     2.10           OBSERVATION DATA    G (GPS)             RINEX VERSION / TYPE
teqc 2005May6 SOPAC 20050707 00:34:39UTC                    PGM / RUN BY / DATE
Linux 2.4.20-8|Pentium IV|gcc|Linux|486/DX+                 COMMENT
BIT 2 OF LLI FLAGS DATA COLLECTED UNDER A/S CONDITION       COMMENT
Bowman                                                      MARKER NAME
BOWM                                                        MARKER NUMBER
Ralph Klopcic                                               OBSERVER / AGENCY
0220224042 TRIMBLE 4700 1.30                                REC # / TYPE / VERS
0220078884 TRM22020.00+GP NONE                              ANT # / TYPE
 -2599053.0000 -4114139.0000  4109362.0000                  APPROX POSITION XYZ
        2.0000        0.0000        0.0000                  ANTENNA: DELTA H/E/N
     1     1                                                WAVELENGTH FACT L1/2
     6    L1    L2    C1    P2    P1    D1                  # / TYPES OF OBSERV
    15.0000                                                 INTERVAL
Northern California Height Modernization 2004               COMMENT
                                                            COMMENT
SOPAC - Scripps Orbit and Permanent Array Center            COMMENT
IGPP - Institute of Geophysics and Planetary Physics        COMMENT
SIO - Scripps Institution of Oceanography                   COMMENT
UCSD - University of California, San Diego                  COMMENT
                                                            COMMENT
email: archive@gpsmail.ucsd.edu                             COMMENT
ftp://garner.ucsd.edu                                       COMMENT
http://sopac.ucsd.edu                                       COMMENT
                                                            COMMENT
                                                            COMMENT
Approximate Lat, Lon : 40.369, -122.282                     COMMENT
                                                            COMMENT
SNR is mapped to RINEX snr flag value [0-9]                 COMMENT
L1 & L2: 2-19 dBHz = 1, 20-27 dBHz = 2, 28-31 dBHz = 3      COMMENT
32-35 dBHz = 4, 36-38 dBHz = 5, 39-41 dBHz = 6              COMMENT
42-44 dBHz = 7, 45-48 dBHz = 8, >= 49 dBHz = 9              COMMENT
  2004     9    10    14    55   45.0000000     GPS         TIME OF FIRST OBS
                                                            END OF HEADER
 04  9 10 14 55 45.0000000  0  7G 1G11G14G15G19G22G25
   -106953.19258    -74401.19955  22555369.4534   22555368.1254
      2541.6724
    -81489.70759    -57877.95656  22083029.1484   22083025.3364
      1946.4694
     79621.12859     49372.49258  20853552.9384   20853549.5784
     -1880.8444
    160442.62658    101184.47654  22948640.9144   22948640.3754
     -3785.6724
    111312.35658     69222.75055  23274441.8364   23274438.0434
     -2634.5624
     98827.65959     61572.89656  22623201.9144   22623198.3054
     -2357.3594
   -110176.02159    -77194.10956  22234073.2584   22234071.5394
      2641.3594
 04  9 10 14 56  0.0000000  0  7G 1G11G14G15G19G22G25
   -145170.20448   -104180.69845  22548096.6724   22548095.8874
      2554.3444
   -110762.30049    -80687.78446  22077458.9064   22077455.3324
      1956.9224
    107748.18749     71289.65548  20858905.3364   20858902.2934
     -1869.1254
    217130.65548    145356.90144  22959428.1564   22959428.4804
     -3772.2974
    150740.72948     99946.13444  23281944.5554   23281940.6604
     -2622.0784
    134080.39749     89042.51746  22629910.1024   22629906.4804
     -2342.7034
   -149884.24549   -108135.56646  22226516.8134   22226515.4224
      2653.4844
 04  9 10 14 56 15.0000000  0  7G 1G11G14G15G19G22G25
   -183568.56348   -134101.50545  22540789.8674   22540789.0704
      2565.0944
   -140183.12849   -103613.11946  22071860.0314   22071856.7544
      1965.5314
    135707.76149     93076.30948  20864225.7734   20864222.5594
     -1859.2344
    273625.23148    189378.57344  22970178.7894   22970178.7234
     -3760.6564
    189989.27748    130529.38344  23289413.1884   23289410.0474
     -2611.3754
    169120.96449    116346.81846  22636577.7974   22636574.3754
     -2329.7194
   -189765.47549   -139211.84546  22218927.7584   22218925.9614
      2663.6414
 04  9 10 14 56 30.0000000  0  7G 1G11G14G15G19G22G25
   -222139.46949   -164156.76045  22533449.9924   22533449.0944
      2576.5784
   -169743.20649   -126646.96646  22066234.9384   22066231.6334
      1974.7504
    163508.31049    114739.04948  20869516.2894   20869513.1804
     -1848.5624
    329934.84848    233256.14644  22980894.2734   22980893.9884
     -3748.3124
    229066.41748    160979.06644  23296849.5634   23296845.9734
     -2599.9534
    203958.00849    143492.50846  22643207.1564   22643203.8244
     -2316.2194
   -229810.53049   -170415.77346  22211307.3984   22211305.9024
      2674.6414
 04  9 10 14 56 45.0000000  0  7G 1G11G14G15G19G22G25
   -260875.18949   -194340.43945  22526079.1334   22526077.9924
      2587.9534
   -199434.74449   -149783.24046  22060584.4774   22060581.4344
      1983.8444
    191157.18249    136283.59548  20874777.6484   20874774.5354
     -1838.1094
    386066.70948    276995.20144  22991575.6414   22991575.9694
     -3736.1564
    267979.31848    191300.77344  23304254.5634   23304250.9184
     -2588.6094
    238599.04749    170485.47446  22649799.1254   22649795.7194
     -2302.8594
   -270011.64849   -201741.31346  22203657.5554   22203655.6524
      2685.3594
 04  9 10 14 57  0.0000000  0  7G 1G11G14G15G19G22G25
   -299763.56549   -224643.08145  22518679.0084   22518677.7664
      2597.4844
   -229245.28749   -173012.26046  22054912.2034   22054908.9454
      1991.1254
    218666.15549    157719.13248  20880012.1644   20880009.2114
     -1829.4694
    442032.63148    320604.96844  23002225.6954   23002226.0354
     -3725.7344
    306739.75948    221503.68144  23311629.8674   23311626.9964
     -2579.1094
    273056.19649    197335.15146  22656356.1094   22656352.0394
     -2291.2344
   -310356.37149   -233178.74746  22195980.3134   22195978.3444
      2694.1724
 04  9 10 14 57 15.0000000  0  7G 1G11G14G15G19G22G25
   -338795.88249   -255057.87545  22511251.4614   22511250.5514
      2606.1724
   -259166.01749   -196327.12946  22049218.3834   22049214.8524
      1997.5474
    246043.54949    179052.14348  20885221.9384   20885218.8594
     -1821.5624
    497840.96648    364091.90644  23012846.1564   23012845.8324
     -3716.1874
    345355.98948    251594.23344  23318978.7504   23318974.7974
     -2570.3754
    307338.11249    224048.28646  22662880.0554   22662876.4964
     -2280.4534
   -350835.70549   -264721.06646  22188277.0004   22188275.2154
      2702.3134
 04  9 10 14 57 30.0000000  0  7G 1G11G14G15G19G22G25
   -377957.58249   -285573.48846  22503799.0784   22503797.7774
      2614.7344
   -289182.28549   -219716.43346  22043506.6564   22043503.1134
      2003.9384
    273303.60649    200293.72648  20890409.5784   20890406.3524
     -1813.7664
    553505.80648    407467.05444  23023438.8284   23023438.5124
     -3706.5944
    383841.86748    281583.20544  23326302.5634   23326299.1454
     -2561.7664
    341459.14249    250636.05446  22669372.8674   22669369.3164
     -2269.7664
   -391434.95349   -296356.81746  22180551.4844   22180549.5594
      2710.2814
 04  9 10 14 57 45.0000000  0  7G 1G11G14G15G19G22G25
   -417236.82049   -316180.71246  22496324.7194   22496323.3674
      2622.0164
   -319282.08849   -243170.84646  22037778.6484   22037775.9734
      2008.9384
    300457.79649    221452.81348  20895576.7114   20895573.5984
     -1807.2194
    609038.58548    450739.29444  23034006.2894   23034005.7424
     -3698.2344
    422208.91048    311479.56244  23333604.1334   23333600.3484
     -2554.2664
    375430.99749    277107.57646  22675837.7034   22675834.2664
     -2260.3444
   -432142.06448   -328076.64746  22172804.8674   22172803.5354
      2717.0004
 04  9 10 14 58  0.0000000  0  7G 1G11G14G15G19G22G25
   -456633.67149   -346879.55346  22488827.5314   22488826.2704
      2629.9384
   -349465.28849   -266690.23046  22032034.8834   22032031.9344
      2014.4844
    327505.87449    242529.21348  20900723.7274   20900720.9184
     -1800.1094
    664438.94348    493908.36444  23044547.9924   23044548.1374
     -3689.2974
    460456.57248    341282.92844  23340882.1094   23340878.0044
     -2546.2974
    409253.62548    303462.81746  22682273.7664   22682270.0984
     -2250.2814
   -472956.86148   -359880.36546  22165038.5864   22165036.6844
      2724.1254
 04  9 10 14 58 15.0000000  0  7G 1G11G14G15G19G22G25
   -496132.31149   -377657.71146  22481311.6954   22481310.4614
      2635.9694
   -379716.01049   -290262.23546  22026278.4774   22026275.0354
      2018.3444
    354463.16849    263534.87248  20905853.9844   20905851.1374
     -1794.7034
    719722.30948    536986.27644  23055068.6484   23055068.1954
     -3682.2194
    498600.20048    371005.19045  23348140.2274   23348136.6994
     -2540.0624
    442942.59948    329713.92346  22688684.4064   22688681.2344
     -2242.0784
   -513863.34948   -391755.53846  22157254.1954   22157252.8484
      2729.5314
 04  9 10 14 58 30.0000000  0  7G 1G11G14G15G19G22G25
   -535724.36249   -408508.66345  22473777.2114   22473775.5824
      2642.9224
   -410025.62549   -313880.12446  22020510.4774   22020507.2974
      2022.8914
    381337.78549    284476.11548  20910967.7344   20910964.6024
     -1788.5784
    774896.75648    579979.30344  23065568.1884   23065568.3524
     -3674.3284
    536647.68948    400652.56344  23355380.5234   23355376.9184
     -2532.9534
    476506.26549    355867.38146  22695071.6254   22695068.5204
     -2233.1564
   -554852.84448   -423695.38246  22149454.1484   22149452.2464
      2735.6884
 04  9 10 14 58 45.0000000  0  7G 1G11G14G15G19G22G25
   -575407.49349   -439430.58846  22466225.7424   22466224.8834
      2648.2344
   -440391.70649   -337542.02546  22014732.3134   22014729.3444
      2026.0164
    408131.61349    305354.40647  20916066.4844   20916063.4344
     -1783.8444
    829964.21748    622888.97344  23076046.2894   23076046.7814
     -3667.9064
    574600.86848    430226.44945  23362602.9454   23362599.0944
     -2527.4534
    509946.82848    381924.90846  22701435.2194   22701431.6684
     -2225.5784
   -595922.89148   -455698.00346  22141638.5864   22141636.0984
      2740.2664
 04  9 10 14 59  0.0000000  0  7G 1G11G14G15G19G22G25
   -615164.10948   -470409.76345  22458660.5634   22458659.1684
      2652.6724
   -470796.43249   -361234.02446  22008946.3984   22008943.0944
      2027.9694
    434861.88049    326183.17448  20921153.1804   20921150.1844
     -1780.1254
    884941.92248    665728.70644  23086508.7424   23086509.1684
     -3662.4534
    612476.89648    459740.20645  23369810.1414   23369807.2934
     -2522.8124
    543281.78348    407900.16446  22707778.7194   22707775.1644
     -2219.0944
   -637055.72148   -487749.52846  22133811.2504   22133809.1454
      2744.0164
 04  9 10 14 59 15.0000000  0  7G 1G11G14G15G19G22G25
   -654983.71849   -501438.03245  22451083.0314   22451082.0474
      2656.9534
   -501229.29449   -384947.95746  22003155.6174   22003152.0784
      2029.9844
    461538.82249    346970.37447  20926229.6254   20926226.4844
     -1776.4694
    939839.90448    708506.28944  23096955.7894   23096955.8714
     -3656.9534
    650285.76848    489201.63845  23377005.5704   23377001.4964
     -2518.0624
    576521.43848    433801.16146  22714103.9614   22714100.5314
     -2212.5474
   -678240.54448   -519841.58346  22125974.2274   22125972.2464
      2747.6884
 04  9 10 14 59 30.0000000  0  7G 1G11G14G15G19G22G25
   -694860.03149   -532510.48545  22443494.4774   22443493.5394
      2660.8444
   -531683.76849   -408678.73146  21997359.9384   21997356.8054
      2031.5634
    488168.32549    367720.60648  20931296.8444   20931294.2814
     -1773.1874
    994664.06348    751226.36644  23107388.4224   23107388.8094
     -3651.9534
    688033.34148    518615.29045  23384188.0704   23384184.6954
     -2513.9374
    609671.92448    459632.64646  22720412.2274   22720409.3634
     -2206.5314
   -719470.85148   -551969.09646  22118128.1804   22118126.7034
      2750.7344
 04  9 10 14 59 45.0000000  0  7G 1G11G14G15G19G22G25
   -734794.99349   -563628.63445  22435895.1024   22435893.9454
      2663.9224
   -562161.59749   -432427.70946  21991560.4064   21991557.2344
      2032.2344
    514748.10549    388432.10648  20936355.1254   20936352.1914
     -1770.7664
   1049412.07848    793887.12044  23117806.7894   23117806.5554
     -3647.6874
    725717.02548    547979.17945  23391359.5864   23391355.5704
     -2510.5164
    642731.30548    485393.16345  22726703.2894   22726699.7464
     -2201.3124
   -760748.42048   -584133.41346  22110273.2194   22110271.5864
      2753.0314
 04  9 10 15  0  0.0000000  0  7G 1G11G14G15G19G22G25
   -774778.89449   -594784.92845  22428286.2584   22428285.3014
      2667.1094
   -592652.93649   -456187.20846  21985758.1644   21985754.7384
      2033.0944
    541287.49549    409112.13848  20941405.2114   20941402.2424
     -1768.0164
   1104093.32548    836495.82944  23128212.2894   23128212.0864
     -3643.2974
    763346.06948    577300.47244  23398519.2504   23398515.6954
     -2506.8914
    675709.04148    511090.05846  22732978.6724   22732975.3594
     -2195.9064
   -802063.18949   -616326.72546  22102411.5704   22102409.2894
      2755.5004
 04  9 10 15  0 15.0000000  0  7G 1G11G14G15G19G22G25
   -814805.94348   -625974.83645  22420669.7034   22420668.4574
      2669.5944
   -623151.91649   -479952.65846  21979954.4534   21979950.8634
      2033.1414
    567791.97749    429764.95248  20946448.8754   20946445.8094
     -1766.0624
   1158713.20748    879056.73644  23138606.1094   23138606.2114
     -3639.5474
    800925.84948    606583.36444  23405671.0634   23405667.4964
     -2504.0474
    708610.92748    536727.84546  22739239.9144   22739236.6524
     -2191.2344
   -843409.25848   -648544.42246  22094543.2274   22094541.9454
      2757.1884
 04  9 10 15  0 30.0000000  0  7G 1G11G14G15G19G22G25
   -854870.92648   -657194.29045  22413045.4304   22413044.0044
      2672.0634
   -653653.18649   -503719.89046  21974150.0864   21974147.1134
      2033.2504
    594266.50949    450394.44748  20951487.0864   20951483.4844
     -1764.1874
   1213276.56148    921573.58244  23148989.3364   23148989.6334
     -3635.8594
    838461.02048    635831.52945  23412813.7894   23412810.3754
     -2501.0164
    741441.93248    562310.39946  22745487.4614   22745484.2304
     -2186.5474
   -884781.17249   -680782.26546  22086670.6564   22086668.6644
      2758.7814
 04  9 10 15  0 45.0000000  0  7G 1G11G14G15G19G22G25
   -894973.33248   -688442.92345  22405414.5634   22405413.1134
      2675.0164
   -684155.94249   -527488.27946  21968345.5864   21968342.3364
      2033.8594
    620711.11749    471000.61548  20956519.3364   20956516.3524
     -1761.6254
   1267783.53948    964046.49444  23159361.4064   23159362.2734
     -3631.5944
    875951.69248    665045.00544  23419947.6094   23419944.1334
     -2497.5624
    774202.56149    587838.12246  22751721.5704   22751719.0204
     -2181.3914
   -926178.29749   -713039.74746  22078792.7194   22078791.4184
      2760.9534
 04  9 10 15  1  0.0000000  0  7G 1G11G14G15G19G22G25
   -935107.75849   -719716.50845  22397777.2734   22397775.5234
      2676.2504
   -714654.82149   -551253.65446  21962541.9384   21962538.0044
      2032.6564
    647130.87849    491587.42347  20961546.8364   20961543.7974
     -1760.9534
   1322239.07448   1006479.32544  23169724.4384   23169724.1054
     -3629.1094
    913402.81447    694227.65044  23427074.5474   23427071.6134
     -2495.8594
    806898.16148    613315.16646  22757943.3054   22757940.2974
     -2177.9694
   -967595.05149   -745312.52746  22070911.5234   22070909.8954
      2761.2814
 04  9 10 15  1 15.0000000  0  7G 1G11G14G15G19G22G25
   -975272.42648   -751013.64145  22390134.1414   22390132.4064
      2678.5164
   -745147.87949   -575014.49446  21956739.1094   21956735.8524
      2032.5004
    673527.35849    512156.08248  20966569.9694   20966566.9454
     -1759.1874
   1376644.66448   1048873.24544  23180077.1254   23180077.1414
     -3625.5314
    950815.66748    723380.49144  23434194.1884   23434191.1414
     -2493.0164
    839530.25849    638742.72746  22764152.5784   22764149.7704
     -2173.5314
  -1009029.36849   -777598.98646  22063027.1804   22063025.6334
      2762.7344
 04  9 10 15  1 30.0000000  0  7G 1G11G14G15G19G22G25
  -1015460.62449   -782329.13545  22382486.0474   22382485.2114
      2679.9844
   -775628.15549   -598765.36246  21950938.9534   21950935.6334
      2031.4694
    699906.75549    532711.44248  20971590.0234   20971586.9964
     -1758.2034
   1431006.73948   1091233.26344  23190422.1884   23190422.3444
     -3622.6874
    988196.50648    752508.37644  23441307.2814   23441303.9734
     -2491.0624
    872105.50048    664125.98646  22770351.7114   22770348.6374
     -2169.8914
  -1050474.20949   -809893.65746  22055140.0004   22055138.3834
      2763.2664
 04  9 10 15  1 45.0000000  0  7G 1G11G14G15G19G22G25
  -1055670.81449   -813661.73345  22374834.8054   22374833.3404
      2681.7974
   -806093.99249   -622504.98446  21945141.7894   21945138.2974
      2030.8754
    726270.33049    553254.47348  20976606.6094   20976603.4534
     -1756.7344
   1485326.31848   1133560.14344  23200758.9064   23200759.1524
     -3619.5624
   1025546.29648    781612.08544  23448415.2974   23448411.5864
     -2488.6254
    904625.19249    689465.96546  22776540.2974   22776536.9734
     -2165.8754
  -1091927.96149   -842195.26646  22047251.5474   22047250.2034
      2764.2194
 04  9 10 15  2  0.0000000  0  7G 1G11G14G15G19G22G25
  -1095898.52349   -845008.01545  22367179.5234   22367177.9184
      2682.2664
   -836540.72449   -646229.72546  21939347.8134   21939344.6174
      2028.9224
    752622.25149    573788.40748  20981620.8284   20981618.1054
     -1756.6094
   1539607.51548   1175857.12844  23211088.0234   23211087.9694
     -3617.6564
   1062869.11048    810694.78244  23455516.8754   23455513.8134
     -2487.4694
    937093.89649    714766.21346  22782719.3674   22782715.6994
     -2163.0784
  -1133385.99749   -874500.20746  22039362.7034   22039360.8754
      2763.7974
 04  9 10 15  2 15.0000000  0  7G 1G11G14G15G19G22G25
  -1136142.94049   -876367.29946  22359521.4694   22359519.9384
      2683.4064
   -866967.57149   -669938.97446  21933557.9694   21933554.5904
      2027.6094
    778962.94349    594313.60448  20986633.4454   20986630.6524
     -1755.7974
   1593850.82348   1218124.57644  23221410.3754   23221409.7734
     -3615.0474
   1100165.33748    839756.72044  23462614.2974   23462611.0744
     -2485.7344
    969512.28549    740027.25246  22788888.1094   22788884.5434
     -2159.7344
  -1174847.16049   -906807.59446  22031472.5474   22031471.1604
      2764.0164
 04  9 10 15  2 30.0000000  0  7G 1G11G14G15G19G22G25
  -1176393.78849   -907731.58846  22351861.4694   22351860.1174
      2683.1564
   -897363.94849   -693624.46946  21927773.4454   21927770.3094
      2024.8914
    805302.37549    614837.81348  20991645.9144   20991642.9224
     -1756.4224
   1648066.12348   1260370.23544  23231727.3984   23231727.0664
     -3613.9224
   1137444.62048    868805.47844  23469708.9224   23469705.1604
     -2485.1874
   1001890.46149    765256.95346  22795049.3134   22795046.2234
     -2157.7194
  -1216301.00049   -939109.26346  22023584.5704   22023583.2584
      2762.8134
 04  9 10 15  2 45.0000000  0  7G 1G11G14G15G19G22G25
  -1216653.57448   -939102.84345  22344200.7584   22344199.6094
      2684.0784
   -927732.15249   -717288.00346  21921994.5704   21921991.0664
      2023.3754
    831637.72149    635358.84548  20996657.3594   20996654.1804
     -1755.7974
   1702250.55048   1302591.82844  23242038.2664   23242038.0004
     -3611.4694
   1174704.05348    897838.78544  23476798.8984   23476795.1914
     -2483.4694
   1034225.89249    790453.34546  22801202.6954   22801199.1294
     -2154.5314
  -1257749.58149   -971406.84446  22015696.8984   22015695.5004
      2762.8754
 04  9 10 15  3  0.0000000  0  7G 1G11G14G15G19G22G25
  -1256912.97849   -970473.80746  22336539.8524   22336538.2504
      2684.0944
   -958062.68849   -740922.20346  21916222.8524   21916219.7384
      2020.8914
    857977.93149    655883.65548  21001669.4384   21001666.4454
     -1756.1254
   1756413.05248   1344796.32143  23252345.3754   23252344.8324
     -3609.9374
   1211952.55048    926863.55444  23483887.2504   23483883.1764
     -2482.7504
   1066527.69549    815623.53546  22807349.6254   22807346.1644
     -2152.2194
  -1299183.46249  -1003692.97646  22007812.1334   22007810.1994
      2761.8444
 04  9 10 15  3 15.0000000  0  7G 1G11G14G15G19G22G25
  -1297173.14549  -1001845.35645  22328877.9224   22328876.5164
      2684.1414
   -988356.75749   -764527.98946  21910458.1094   21910454.9304
      2018.5164
    884321.47449    676411.08248  21006682.9384   21006679.6374
     -1756.2034
   1810552.04948   1386982.53044  23262647.5394   23262647.1334
     -3608.4064
   1249188.37648    955878.46944  23490972.4454   23490968.9614
     -2481.8284
   1098794.65249    840766.57646  22813489.9144   22813486.5514
     -2149.8284
  -1340603.80849  -1035968.55646  21999929.9774   21999928.4384
      2760.9694
 04  9 10 15  3 30.0000000  0  7G 1G11G14G15G19G22G25
  -1337435.34249  -1033218.49645  22321216.5784   22321215.0124
      2684.4694
  -1018615.39649   -788106.16546  21904700.2274   21904696.8754
      2016.2814
    910666.79249    696939.87247  21011696.0554   21011692.9494
     -1756.2034
   1864665.89548   1429149.11043  23272945.0084   23272944.5784
     -3606.5004
   1286409.84348    984882.19744  23498056.5394   23498052.0394
     -2480.7814
   1131025.47049    865881.43946  22819623.1884   22819619.6094
     -2147.2664
  -1382011.55049  -1068234.32146  21992050.5784   21992048.8754
      2760.2814
 04  9 10 15  3 45.0000000  0  7G 1G11G14G15G19G22G25
  -1377695.59949  -1064590.10845  22313555.0314   22313554.3054
      2683.6254
  -1048834.46649   -811653.49446  21898949.9304   21898946.8444
      2012.9844
    937017.52149    717472.89848  21016710.4384   21016707.5314
     -1757.1564
   1918758.15948   1471298.88143  23283238.4304   23283237.9614
     -3605.7504
   1323620.34548   1013877.35544  23505137.1954   23505133.7424
     -2480.6724
   1163223.95349    890971.13446  22825750.3984   22825747.5664
     -2145.7504
  -1423402.59049  -1100487.05447  21984174.2814   21984172.4384
      2758.4844
 04  9 10 15  4  0.0000000  0  7G 1G11G14G15G19G22G25
  -1417958.97249  -1095964.16946  22305893.5164   22305891.9144
      2683.8134
  -1079018.86749   -835173.81346  21893205.8674   21893202.6374
      2010.7194
    963368.25149    738005.91448  21021725.0004   21021722.1724
     -1757.1564
   1972823.45948   1513427.63843  23293526.4844   23293526.3054
     -3603.9224
   1360814.31748   1042859.66144  23512214.9384   23512211.4734
     -2479.4844
   1195384.93049    916031.58246  22831870.5314   22831866.8754
     -2143.2974
  -1464781.65349  -1132730.46346  21976300.2814   21976298.3874
      2757.7344
 04  9 10 15  4 15.0000000  0  7G 1G11G14G15G19G22G25
  -1458216.73149  -1127333.84446  22298232.3834   22298231.0864
      2683.9694
  -1109159.82049   -858660.28946  21887469.9844   21887466.9184
      2008.2344
    989727.39849    758545.48148  21026740.6804   21026737.6954
     -1757.2504
   2026870.18548   1555541.92343  23303811.0234   23303810.6844
     -3602.2194
   1398000.20148   1071835.65744  23519291.3054   23519286.9844
     -2478.4844
   1227516.92949    941069.46245  22837984.8444   22837981.8324
     -2140.8594
  -1506139.81549  -1164957.59046  21968429.9774   21968428.1884
      2756.7664
 04  9 10 15  4 30.0000000  0  7G 1G11G14G15G19G22G25
  -1498470.34048  -1158700.27945  22290572.6334   22290571.3284
      2683.4384
  -1139258.64649   -882113.92546  21881742.4844   21881738.9384
      2005.2034
   1016093.15349    779090.21248  21031758.0634   21031755.6914
     -1757.9064
   2080896.44048   1597640.26543  23314092.5784   23314091.6804
     -3601.0474
   1435175.88848   1100803.71044  23526365.6724   23526361.3714
     -2477.9844
   1259618.39849    966083.54146  22844093.8364   22844090.3094
     -2139.1724
  -1547478.50249  -1197169.53746  21960563.0784   21960560.8984
      2755.2974
 04  9 10 15  4 45.0000000  0  7G 1G11G14G15G19G22G25
  -1538716.35848  -1190060.80246  22282914.0944   22282912.7154
      2682.7034
  -1169311.58549   -905531.80546  21876023.6644   21876020.3554
      2001.8754
   1042468.62249    799642.50648  21036777.1094   21036774.5554
     -1758.8284
   2134905.30348   1639725.05143  23324370.6724   23324369.1764
     -3600.1414
   1472344.43948   1129766.17044  23533438.3594   23533434.7974
     -2477.7664
   1291692.70249    991076.46145  22850196.8364   22850193.6804
     -2137.5004
  -1588793.86449  -1229363.31247  21952701.3754   21952699.2854
      2753.3754
 04  9 10 15  5  0.0000000  0  7G 1G11G14G15G19G22G25
  -1578949.48448  -1221411.28146  22275257.7424   22275256.5204
      2681.8444
  -1199313.28549   -928909.77046  21870314.5314   21870311.2624
      1998.4224
   1068858.74449    820206.21948  21041798.8834   21041796.2114
     -1759.7814
   2188901.75848   1681800.18743  23334645.4064   23334644.8914
     -3599.2974
   1509510.64548   1158726.84244  23540510.7584   23540507.3554
     -2477.5784
   1323745.16149   1016052.36546  22856296.6804   22856293.5514
     -2135.9534
  -1630080.47348  -1261534.67247  21944844.4534   21944842.5434
      2751.5164
 04  9 10 15  5 15.0000000  0  7G 1G11G14G15G19G22G25
  -1619171.07848  -1252752.79246  22267603.7814   22267602.6334
      2681.0944
  -1229264.97149   -952248.75546  21864614.9064   21864611.4184
      1995.1094
   1095261.84749    840780.04147  21046823.4844   21046820.6174
     -1760.6564
   2242884.08548   1723864.29643  23344917.7734   23344917.5164
     -3598.3284
   1546672.71848   1187684.24844  23547582.8444   23547579.1914
     -2477.2974
   1355774.19949   1041010.00046  22862391.2664   22862388.5784
     -2134.5314
  -1671339.55048  -1293684.59746  21936992.8524   21936990.7304
      2749.6094
 04  9 10 15  5 30.0000000  0  7G 1G11G14G15G19G22G25
  -1659381.14249  -1284085.29146  22259952.4144   22259951.0354
      2680.2194
  -1259166.67049   -975548.78446  21858924.8754   21858921.7974
      1991.6884
   1121677.51249    861363.66147  21051849.9774   21051847.5354
     -1761.5624
   2296851.79048   1765917.02043  23355186.9844   23355187.4384
     -3597.4844
   1583830.16748   1216638.10644  23554653.4844   23554650.0004
     -2477.0474
   1387779.65249   1065949.28946  22868481.9224   22868478.9494
     -2132.9844
  -1712570.80349  -1325812.82946  21929147.5004   21929145.4494
      2747.7504
 04  9 10 15  5 45.0000000  0  7G 1G11G14G15G19G22G25
  -1699579.75749  -1315408.88146  22252302.8284   22252301.6174
      2679.3754
  -1289018.17649   -998809.71146  21853244.2034   21853241.0004
      1988.2504
   1148105.33149    881956.74448  21056879.1804   21056876.2584
     -1762.4534
   2350804.43648   1807957.98243  23365454.3204   23365453.9924
     -3596.4534
   1620982.36448   1245587.81544  23561723.4774   23561719.3014
     -2476.8914
   1419761.40349   1090870.07645  22874568.0394   22874564.8014
     -2131.5164
  -1753774.12149  -1357919.29246  21921306.4454   21921304.7704
      2745.8594
 04  9 10 15  6  0.0000000  0  7G 1G11G14G15G19G22G25
  -1739764.87949  -1346721.95846  22244656.1954   22244654.6454
      2678.4064
  -1318817.24049  -1022029.78446  21847573.5234   21847570.2544
      1984.7344
   1174547.01549    902560.62648  21061910.7584   21061908.1414
     -1763.4064
   2404743.73947   1849988.57343  23375718.2974   23375718.0744
     -3595.6094
   1658130.84448   1274534.65044  23568792.9064   23568789.1564
     -2476.4374
   1451721.31349   1115773.85946  22880649.7664   22880646.7034
     -2130.0314
  -1794947.18749  -1390002.20547  21913471.6334   21913469.6564
      2743.7664
 04  9 10 15  6 15.0000000  0  7G 1G11G14G15G19G22G25
  -1779931.68849  -1378020.75746  22237012.2034   22237010.9304
      2677.1094
  -1348558.88049  -1045205.07546  21841913.7974   21841910.8954
      1980.7814
   1201007.09249    923178.86048  21066946.1094   21066943.1914
     -1764.7034
   2458674.16847   1892012.21143  23385981.1254   23385980.8204
     -3595.1414
   1695280.12348   1303482.10144  23575861.2584   23575858.3404
     -2476.7664
   1483664.20149   1140664.38346  22886728.3204   22886725.5824
     -2129.0784
  -1836084.87549  -1422057.51946  21905642.8204   21905641.5354
      2741.2034
 04  9 10 15  6 30.0000000  0  7G 1G11G14G15G19G22G25
  -1820083.18849  -1409307.64646  22229371.7504   22229370.0514
      2676.7344
  -1378245.89049  -1068337.83146  21836264.9304   21836261.6524
      1977.7974
   1227482.29749    943808.86347  21071984.4534   21071981.4064
     -1764.9534
   2512592.30348   1934026.29443  23396241.9534   23396241.0434
     -3593.6094
   1732426.62948   1332427.39944  23582930.8204   23582926.8984
     -2475.7974
   1515586.94449   1165539.19645  22892802.9924   22892800.0164
     -2127.0004
  -1877190.03149  -1454087.50347  21897821.1804   21897819.0664
      2739.7034
 04  9 10 15  6 45.0000000  0  7G 1G11G14G15G19G22G25
  -1860224.85548  -1440586.86346  22221732.8134   22221731.3094
      2675.6094
  -1407883.76449  -1091432.27946  21830624.9304   21830621.7344
      1974.0944
   1253966.72149    964446.05348  21077024.1564   21077021.7344
     -1766.0784
   2566492.27648   1976026.21343  23406498.3524   23406498.5044
     -3592.8444
   1769564.32048   1361365.83344  23589997.4454   23589994.4264
     -2475.6874
   1547483.96649   1190393.97145  22898872.7114   22898869.5904
     -2125.7504
  -1918267.98748  -1486096.27947  21890004.3444   21890002.7304
      2737.5314
 04  9 10 15  7  0.0000000  0  7G 1G11G14G15G19G22G25
  -1900353.34848  -1471855.82546  22214096.3594   22214095.2544
      2674.1884
  -1437468.93749  -1114485.68046  21824995.0394   21824991.4344
      1969.9844
   1280463.43849    985092.83048  21082066.4064   21082063.5784
     -1767.4224
   2620377.16348   2018014.37943  23416752.5004   23416752.5434
     -3592.3594
   1806696.19747   1390299.72744  23597063.1564   23597060.2034
     -2475.9064
   1579358.48549   1215231.20945  22904938.1954   22904935.3324
     -2124.7974
  -1959315.20049  -1518081.10747  21882193.1484   21882191.6724
      2734.8754
 04  9 10 15  7 15.0000000  0  7G 1G11G14G15G19G22G25
  -1940461.89749  -1503109.21446  22206464.2894   22206462.9224
      2673.2344
  -1466994.41949  -1137492.55146  21819376.8834   21819373.4454
      1966.3754
   1306978.93949   1005754.24448  21087111.9534   21087108.7464
     -1768.2974
   2674253.41048   2059995.83543  23427004.6724   23427004.5784
     -3591.4374
   1843828.50848   1419233.96644  23604129.2584   23604125.9224
     -2475.4374
   1611217.22949   1240056.16345  22911001.1564   22910998.5084
     -2123.3284
  -2000324.70949  -1550036.55447  21874389.2584   21874387.3134
      2732.7034
 04  9 10 15  7 30.0000000  0  7G 1G11G14G15G19G22G25
  -1980552.53749  -1534348.66346  22198835.0944   22198834.1684
      2672.0784
  -1496462.20449  -1160454.46747  21813768.8914   21813765.7154
      1962.5634
   1333510.73949   1026428.35148  21092160.7734   21092158.0084
     -1769.3444
   2728118.50848   2101968.58943  23437255.2814   23437254.7734
     -3590.6414
   1880958.78448   1448166.61544  23611195.1254   23611192.2974
     -2475.3914
   1643058.07549   1264867.15945  22917060.1954   22917057.0004
     -2122.1564
  -2041298.22949  -1581963.96447  21866592.6564   21866590.7194
      2730.3444
 04  9 10 15  7 45.0000000  0  7G 1G11G14G15G19G22G25
  -2020630.74849  -1565578.42746  22191208.6644   22191207.2894
      2670.6884
  -1525877.69149  -1183375.63247  21808171.5634   21808168.1454
      1958.4844
   1360053.02649   1047110.64248  21097211.7974   21097209.0554
     -1770.5164
   2781966.60648   2143928.12543  23447501.7114   23447502.0984
     -3590.0474
   1918081.04648   1477093.02244  23618258.8364   23618256.3444
     -2475.3444
   1674875.37848   1289659.81745  22923114.8134   22923111.6604
     -2121.1414
  -2082240.99949  -1613867.40147  21858801.1254   21858799.5864
      2727.7344
 04  9 10 15  8  0.0000000  0  7G 1G11G14G15G19G22G25
  -2060681.18149  -1596786.55346  22183587.5164   22183586.4414
      2669.2344
  -1555225.25349  -1206243.87247  21802586.6094   21802583.8524
      1954.3444
   1386620.95649   1067812.90447  21102267.2894   21102264.4264
     -1771.9694
   2835812.62447   2185886.00543  23457748.6644   23457748.8404
     -3589.5164
   1955210.19148   1506024.78244  23625324.7424   23625321.8674
     -2475.4224
   1706684.36049   1314445.98445  22929168.2274   22929164.9454
     -2120.2194
  -2123137.48449  -1645734.78747  21851018.8054   21851017.0474
      2725.0164
 04  9 10 15  8 15.0000000  0  7G 1G11G14G15G19G22G25
  -2100710.04349  -1627977.86246  22175970.3524   22175968.9574
      2667.8134
  -1584510.96749  -1229063.91446  21797013.8134   21797010.5594
      1950.2814
   1413207.94249   1088530.01648  21107326.7034   21107323.8324
     -1773.0944
   2889650.03048   2227837.19543  23467992.9384   23467993.9064
     -3588.9374
   1992339.55748   1534956.75544  23632390.1334   23632386.7624
     -2475.2664
   1738478.74848   1339220.79445  22935217.9534   22935215.2384
     -2119.1724
  -2163993.70949  -1677570.77747  21843244.1644   21843242.8834
      2722.4224
 04  9 10 15  8 30.0000000  0  7G 1G11G14G15G19G22G25
  -2140713.18049  -1659149.14046  22168357.2584   22168356.6524
      2665.8284
  -1613730.53849  -1251832.42346  21791453.4064   21791450.3284
      1945.6094
   1439817.80249   1109264.95347  21112390.4694   21112387.7154
     -1774.8594
   2943482.57748   2269784.57443  23478237.6954   23478238.1454
     -3588.7974
   2029472.89048   1563891.77544  23639456.5634   23639453.2704
     -2475.7974
   1770262.60548   1363987.38045  22941266.1804   22941263.3674
     -2118.7664
  -2204805.23749  -1709371.96747  21835477.7974   21835476.1884
      2719.1254
 04  9 10 15  8 45.0000000  0  7G 1G11G14G15G19G22G25
  -2180692.04149  -1690301.47946  22160749.9774   22160749.0904
      2664.6724
  -1642885.44549  -1274550.53946  21785905.4774   21785902.0514
      1941.7814
   1466448.72749   1130016.29647  21117458.1094   21117455.4654
     -1775.7504
   2997308.45748   2311726.77643  23488480.5084   23488480.1454
     -3587.8124
   2066608.10148   1592828.28244  23646522.9144   23646519.5084
     -2475.3754
   1802034.36248   1388744.55345  22947312.5234   22947309.8674
     -2117.4374
  -2245573.49249  -1741139.41747  21827719.7664   21827718.7344
      2716.6884
 04  9 10 15  9  0.0000000  0  7G 1G11G14G15G19G22G25
  -2220645.48749  -1721434.03346  22153146.8674   22153145.5354
      2663.3134
  -1671974.19549  -1297217.10247  21780369.8204   21780366.7194
      1937.6414
   1493101.53549   1150784.69847  21122530.0314   21122527.4454
     -1776.8594
   3051128.45848   2353664.40543  23498722.2114   23498721.6564
     -3587.2034
   2103745.88248   1621766.78644  23653590.6334   23653587.0394
     -2475.2814
   1833795.11249   1413493.13645  22953356.6564   22953353.3244
     -2116.4224
  -2286297.10449  -1772872.08747  21819970.3444   21819968.8554
      2714.0634
 04  9 10 15  9 15.0000000  0  7G 1G11G14G15G19G22G25
  -2260585.10849  -1752555.80146  22145546.8054   22145545.4614
      2661.9224
  -1701008.30649  -1319841.08546  21774845.1644   21774841.9024
      1933.5944
   1519764.34249   1171560.89747  21127603.5394   21127601.0704
     -1778.0314
   3104930.61448   2395588.11843  23508960.0164   23508959.9924
     -3586.4374
   2140874.21248   1650697.94444  23660655.8834   23660652.5784
     -2475.2194
   1865533.03848   1438223.93945  22959396.0314   22959393.1954
     -2115.3124
  -2326987.52749  -1804578.90347  21812227.5084   21812225.8984
      2711.3754
 04  9 10 15  9 30.0000000  0  7G 1G11G14G15G19G22G25
  -2300500.92549  -1783659.04546  22137951.0164   22137949.6724
      2660.5634
  -1729977.56349  -1342414.55246  21769332.3594   21769329.5234
      1929.3594
   1546446.85349   1192352.43748  21132681.5164   21132678.4454
     -1779.1564
   3158724.62848   2437505.51343  23519196.2034   23519196.5634
     -3585.7504
   2178002.67748   1679629.17844  23667721.0394   23667717.4654
     -2474.9064
   1897258.25148   1462944.85245  22965433.6094   22965429.9924
     -2114.2344
  -2367634.37549  -1836251.76547  21804492.7114   21804490.1844
      2708.6414
 04  9 10 15  9 45.0000000  0  7G 1G11G14G15G19G22G25
  -2340390.49449  -1814741.81246  22130360.4694   22130359.4384
      2658.5784
  -1758879.62749  -1364935.64147  21763832.7034   21763829.5164
      1924.7034
   1573151.00249   1213160.85548  21137762.9614   21137760.1374
     -1780.8284
   3212512.49248   2479418.06643  23529432.7894   23529432.3204
     -3585.4694
   2215133.17148   1708561.98244  23674786.8674   23674782.8524
     -2475.2664
   1928972.85848   1487657.49545  22971468.5784   22971465.3594
     -2113.7974
  -2408235.15149  -1867888.71947  21796766.5554   21796764.7114
      2705.3444
 04  9 10 15 10  0.0000000  0  7G 1G11G14G15G19G22G25
  -2380261.17549  -1845809.87146  22122773.1954   22122772.0664
      2657.1414
  -1787721.61149  -1387409.93146  21758344.1884   21758341.0354
      1920.4844
   1599869.12749   1233980.15248  21142847.3594   21142844.2934
     -1781.9534
   3266286.48848   2521319.83143  23539665.3674   23539665.2154
     -3584.7504
   2252257.82348   1737490.27444  23681851.8284   23681847.7974
     -2475.1094
   1960669.42348   1512356.08545  22977500.0554   22977497.3014
     -2112.8124
  -2448797.02649  -1899495.36447  21789047.3204   21789045.4224
      2702.5004
 04  9 10 15 10 15.0000000  0  7G 1G11G14G15G19G22G25
  -2420110.13549  -1876861.00746  22115190.5474   22115188.7544
      2655.8594
  -1816500.41149  -1409834.98546  21752867.9454   21752864.1684
      1916.4534
   1626603.88449   1254812.40847  21147934.8204   21147931.8244
     -1782.8914
   3320049.13748   2563212.76143  23549896.3674   23549895.9304
     -3583.7664
   2289379.07948   1766415.89844  23688915.7194   23688912.1414
     -2474.6724
   1992350.88648   1537042.88445  22983528.8204   22983525.6174
     -2111.5784
  -2489316.77949  -1931069.19447  21781337.0944   21781335.0864
      2699.8914
 04  9 10 15 10 30.0000000  0  7G 1G11G14G15G19G22G25
  -2459930.62648  -1907889.95646  22107612.9384   22107611.2774
      2654.0944
  -1845209.22649  -1432205.49247  21747404.5704   21747401.7464
      1911.7974
   1653361.70849   1275662.64048  21153026.6724   21153024.0664
     -1784.3124
   3373806.73448   2605101.74343  23560126.0784   23560126.3834
     -3583.4844
   2326503.25948   1795343.81844  23695979.7114   23695976.5864
     -2474.7814
   2024023.76748   1561722.98945  22989555.7974   22989553.3324
     -2111.0004
  -2529787.62748  -1962604.90547  21773635.3134   21773633.7344
      2696.6884
 04  9 10 15 10 45.0000000  0  7G 1G11G14G15G19G22G25
  -2499729.75448  -1938902.26146  22100038.9694   22100037.6604
      2652.7504
  -1873855.04549  -1454526.91847  21741953.1484   21741950.3204
      1907.7504
   1680135.10049   1296524.99947  21158121.4534   21158118.8484
     -1785.2974
   3427551.93147   2646981.06343  23570353.0784   23570353.4104
     -3582.4534
   2363622.82347   1824268.14244  23703043.2734   23703040.3834
     -2474.3284
   2055680.96548   1586390.88245  22995580.1954   22995577.5004
     -2109.7814
  -2570216.39248  -1994107.83147  21765942.6484   21765940.4614
      2693.9384
 04  9 10 15 11  0.0000000  0  7G 1G11G14G15G19G22G25
  -2539505.94648  -1969896.68746  22092470.3284   22092468.5784
      2650.4384
  -1902436.01149  -1476797.80847  21736515.0164   21736512.1914
      1902.6564
   1706925.40549   1317400.53947  21163219.4844   21163216.7384
     -1787.1414
   3481285.96947   2688851.72942  23580578.1024   23580578.2384
     -3582.3754
   2400738.74748   1853189.57444  23710106.3754   23710103.3794
     -2474.8594
   2087323.96148   1611047.70945  23001601.9144   23001598.7384
     -2109.6254
  -2610601.19148  -2025576.49947  21758257.4384   21758255.5004
      2690.2974
 04  9 10 15 11 15.0000000  0  7G 1G11G14G15G19G22G25
  -2579255.90148  -2000870.66446  22084906.1484   22084904.4144
      2648.9384
  -1930948.74149  -1499015.53547  21731089.1884   21731085.8984
      1898.3594
   1733735.57649   1338291.57347  21168321.4384   21168318.4654
     -1788.2034
   3535011.78947   2730715.92742  23590801.9064   23590801.8054
     -3581.6094
   2437853.95747   1882110.49244  23717168.8984   23717166.6914
     -2474.6414
   2118955.86549   1635695.89645  23007621.2974   23007618.1764
     -2108.5944
  -2650938.44348  -2057008.11047  21750581.5944   21750579.3634
      2687.3284
 04  9 10 15 11 30.0000000  0  7G 1G11G14G15G19G22G25
  -2618981.02848  -2031825.29246  22077346.4384   22077345.1684
      2648.0634
  -1959394.55149  -1521181.10047  21725675.8834   21725672.9844
      1894.7194
   1760563.83449   1359196.69647  21173426.7034   21173423.8874
     -1788.5784
   3588727.53347   2772572.29742  23601023.9844   23601023.9574
     -3580.1094
   2474966.48847   1911029.29944  23724231.1884   23724228.4964
     -2473.4844
   2150575.17948   1660334.27645  23013638.0944   23013634.5084
     -2107.0164
  -2691229.48448  -2088403.71047  21742914.2504   21742912.5164
      2685.1414
 04  9 10 15 11 45.0000000  0  7G 1G11G14G15G19G22G25
  -2658680.44548  -2062759.90046  22069791.8364   22069790.4024
      2645.2974
  -1987772.36149  -1543293.70147  21720275.8524   21720272.5594
      1889.1254
   1787410.78449   1380116.36647  21178535.2734   21178532.5234
     -1790.8124
   3642433.80747   2814421.30743  23611243.4774   23611243.9614
     -3580.5314
   2512076.75047   1939946.36543  23731293.5394   23731290.0474
     -2474.4064
   2182182.76548   1684963.51145  23019653.1024   23019650.0594
     -2107.2504
  -2731473.21848  -2119762.46147  21735256.2664   21735254.5824
      2680.8754
 04  9 10 15 12  0.0000000  0  7G 1G11G14G15G19G22G25
  -2698348.45749  -2093670.02846  22062243.3054   22062241.8014
      2643.3594
  -2016076.36349  -1565348.77747  21714889.7114   21714886.5634
      1884.3444
   1814281.83749   1401054.83447  21183648.8524   21183645.9614
     -1792.3444
   3696135.92747   2856267.05542  23621462.9534   23621462.9024
     -3580.2814
   2549190.00347   1968865.72644  23738355.7194   23738352.5864
     -2474.4064
   2213784.17949   1709587.95545  23025666.3834   23025663.4884
     -2106.7344
  -2771663.75149  -2151079.73947  21727607.8914   21727605.8954
      2677.4224
 04  9 10 15 12 15.0000000  0  7G 1G11G14G15G19G22G25
  -2737981.87449  -2124553.20346  22054701.5234   22054700.1724
      2641.2664
  -2044303.27749  -1587343.78647  21709518.4614   21709515.2704
      1879.4694
   1841179.76549   1422014.22947  21188767.4384   21188764.9304
     -1793.8284
   3749836.61547   2898111.70142  23631682.1094   23631681.8984
     -3579.7664
   2586309.06147   1997789.63744  23745418.8674   23745415.9224
     -2474.5784
   2245382.54248   1734209.99345  23031679.1094   23031676.8164
     -2106.3284
  -2811797.67449  -2182352.92247  21719971.1094   21719968.9804
      2673.8754
 04  9 10 15 12 30.0000000  0  7G 1G11G14G15G19G22G25
  -2777586.61649  -2155414.02546  22047164.8524   22047163.2384
      2639.1564
  -2072458.77749  -1609283.14047  21704160.8914   21704157.3134
      1874.4534
   1868098.44649   1442989.80248  21193889.4064   21193886.9024
     -1795.4844
   3803529.67847   2939950.42742  23641899.3134   23641899.5434
     -3579.4374
   2623427.48347   2026713.06243  23752482.3754   23752479.3204
     -2474.7504
   2276971.86648   1758824.97945  23037690.0084   23037687.9734
     -2105.8594
  -2851880.60549  -2213586.36847  21712343.1884   21712341.4534
      2670.2974
 04  9 10 15 12 45.0000000  0  7G 1G11G14G15G19G22G25
  -2817158.31949  -2186249.08546  22039634.6564   22039633.0904
      2637.3134
  -2100538.35849  -1631163.34147  21698817.3134   21698814.4414
      1869.6724
   1895041.87249   1463984.66247  21199016.8674   21199014.3794
     -1796.7664
   3857219.04047   2981786.24343  23652115.8284   23652116.7344
     -3578.8754
   2660549.29147   2055639.10043  23759546.7814   23759543.8714
     -2474.5474
   2308556.37148   1783436.23945  23043701.2584   23043698.3714
     -2105.1254
  -2891907.92149  -2244776.46347  21704726.4694   21704724.4844
      2666.8914
 04  9 10 15 13  0.0000000  0  7G 1G11G14G15G19G22G25
  -2856697.01549  -2217058.45646  22032110.7584   22032109.2384
      2634.7034
  -2128541.97449  -1652984.34647  21693488.4844   21693485.5474
      1864.2194
   1922009.78249   1484998.59947  21204148.7274   21204145.9804
     -1798.7814
   3910904.41947   3023618.94143  23662332.5944   23662332.9774
     -3579.0474
   2697673.91447   2084567.34343  23766610.9304   23766608.2544
     -2475.1874
   2340136.08648   1808043.76145  23049710.6804   23049707.9414
     -2105.3284
  -2931879.52549  -2275923.15647  21697120.0554   21697118.3634
      2662.8284
 04  9 10 15 13 15.0000000  0  7G 1G11G14G15G19G22G25
  -2896204.88449  -2247843.80246  22024592.2894   22024590.7974
      2632.5634
  -2156471.66249  -1674747.75546  21688173.5554   21688169.9184
      1859.2344
   1948999.62349   1506029.62147  21209284.7424   21209281.9104
     -1800.3124
   3964583.21447   3065446.52643  23672547.2504   23672547.6374
     -3578.6254
   2734798.69347   2113495.68843  23773675.2974   23773672.9964
     -2475.2034
   2371708.57248   1832645.65645  23055718.6644   23055716.0664
     -2104.8124
  -2971797.39549  -2307027.98047  21689524.2114   21689521.9614
      2659.1724
 04  9 10 15 13 30.0000000  0  7G 1G11G14G15G19G22G25
  -2935676.39549  -2278600.80646  22017081.0944   22017079.6484
      2630.7344
  -2184321.76249  -1696449.12547  21682874.2504   21682870.6804
      1854.5314
   1976016.57749   1527081.78947  21214426.1024   21214423.0824
     -1801.5314
   4018260.66647   3107273.05943  23682761.3834   23682762.5314
     -3577.9844
   2771928.76047   2142428.19444  23780741.4064   23780738.2424
     -2474.9844
   2403279.35148   1857246.23345  23061726.3754   23061723.2234
     -2104.1564
  -3011655.82249  -2338086.46947  21681939.0474   21681937.4264
      2655.7504
 04  9 10 15 13 45.0000000  0  7G 1G11G14G15G19G22G25
  -2975122.43649  -2309337.95846  22009574.8364   22009573.3984
      2629.0314
  -2212103.01049  -1718096.85747  21677587.3594   21677583.9884
      1849.9694
   2003049.46049   1548146.34647  21219570.4224   21219567.5474
     -1802.5784
   4071925.45547   3149089.73043  23692973.5164   23692974.4264
     -3577.1414
   2809052.68648   2171355.90344  23787806.5234   23787802.7664
     -2474.5624
   2434837.50948   1881836.95945  23067731.6884   23067728.8364
     -2103.2814
  -3051465.50149  -2369106.99147  21674363.7814   21674361.8324
      2652.5004
 04  9 10 15 14  0.0000000  0  7G 1G11G14G15G19G22G25
  -3014534.22849  -2340048.45446  22002075.1414   22002073.6214
      2626.3754
  -2239806.37249  -1739683.91247  21672315.6174   21672312.4264
      1844.3134
   2030106.76649   1569229.94247  21224718.7344   21224716.1294
     -1804.5944
   4125585.99747   3190903.06943  23703185.1644   23703185.1684
     -3577.2504
   2846178.79547   2200285.29944  23794870.7894   23794867.3204
     -2475.1724
   2466391.64048   1906424.54845  23073736.1334   23073733.6454
     -2103.4224
  -3091217.46449  -2400082.53947  21666799.2504   21666797.5394
      2648.2344
 04  9 10 15 14 15.0000000  0  7G 1G11G14G15G19G22G25
  -3053904.50449  -2370726.57146  21994583.0394   21994581.3324
      2624.0164
  -2267424.55749  -1761204.56347  21667060.1174   21667056.6454
      1839.0944
   2057195.39549   1590337.95247  21229873.6804   21229871.0944
     -1806.2344
   4179249.09648   3232718.43943  23713397.4534   23713397.3244
     -3576.8284
   2883313.93648   2229221.72344  23801937.8204   23801934.5744
     -2475.2344
   2497948.89948   1931014.58845  23079741.6484   23079739.0314
     -2103.1564
  -3130904.25449  -2431007.28847  21659246.6024   21659245.4804
      2644.3754
 04  9 10 15 14 30.0000000  0  7G 1G11G14G15G19G22G25
  -3093239.41249  -2401377.15446  21987097.7504   21987096.3554
      2620.4384
  -2294963.47249  -1782663.48647  21661819.2274   21661816.3324
      1832.6094
   2084308.86849   1611465.29347  21235033.2424   21235030.6024
     -1809.1564
   4232908.44647   3274530.85643  23723607.8444   23723608.9064
     -3577.8444
   2920451.50448   2258160.03943  23809004.1024   23809001.0234
     -2476.6254
   2529503.18048   1955602.27345  23085746.0554   23085743.4414
     -2104.2194
  -3170531.71649  -2461885.82647  21651706.0164   21651704.3754
      2639.1564
 04  9 10 15 14 45.0000000  0  7G 1G11G14G15G19G22G25
  -3132541.64149  -2432002.24846  21979619.0314   21979617.2544
      2619.3754
  -2322425.80049  -1804062.71047  21656593.8834   21656590.1214
      1828.5944
   2111444.31649   1632609.79547  21240196.8134   21240194.2034
     -1809.4374
   4286560.94447   3316337.96243  23733817.7114   23733817.6884
     -3576.2814
   2957588.38948   2287097.83644  23816071.9224   23816068.0554
     -2475.3594
   2561051.64748   1980185.46645  23091749.5084   23091746.5904
     -2102.7344
  -3210102.36149  -2492720.08247  21644175.8594   21644174.0474
      2636.4384
 04  9 10 15 15  0.0000000  0  7G 1G11G14G15G19G22G25
  -3171817.25549  -2462606.59946  21972144.5164   21972143.6414
      2617.4534
  -2349817.35749  -1825406.78147  21651381.0474   21651378.2034
      1823.6564
   2138595.41849   1653766.47147  21245363.7584   21245361.6254
     -1810.6564
   4340200.16248   3358134.71443  23744025.0004   23744025.3954
     -3575.5944
   2994718.01548   2316030.02444  23823137.5944   23823133.6914
     -2475.0624
   2592588.05049   2004759.24445  23097751.1884   23097748.0904
     -2102.0474
  -3249622.13949  -2523514.69347  21636655.6094   21636654.1094
      2632.9224
 04  9 10 15 15 15.0000000  0  7G 1G11G14G15G19G22G25
  -3211059.95949  -2493185.33546  21964677.0394   21964676.1254
      2614.9384
  -2377131.77749  -1846690.76047  21646183.0864   21646179.8874
      1818.3444
   2165768.11049   1674939.97647  21250534.5004   21250531.7074
     -1812.3124
   4393832.06647   3399925.73243  23754230.7974   23754231.7544
     -3575.2814
   3031846.14548   2344960.98844  23830202.9064   23830199.2774
     -2475.2344
   2624118.71248   2029328.55145  23103751.0554   23103748.4024
     -2101.9064
  -3289084.43949  -2554264.52847  21629146.1884   21629144.6334
      2628.8444
 04  9 10 15 15 30.0000000  0  7G 1G11G14G15G19G22G25
  -3250268.47749  -2523737.41546  21957216.1174   21957214.8794
      2612.5944
  -2404367.57049  -1867913.46247  21641000.6174   21640997.3054
      1812.9064
   2192963.36749   1696131.06547  21255709.7274   21255706.9774
     -1813.9534
   4447457.60347   3441711.81743  23764435.3524   23764436.1214
     -3574.9064
   3068973.67148   2373891.49044  23837267.6804   23837264.6414
     -2475.2344
   2655644.80049   2053894.29045  23109750.1954   23109747.5514
     -2101.6874
  -3328487.69149  -2584968.34747  21621648.1484   21621646.2274
      2624.8284
 04  9 10 15 15 45.0000000  0  7G 1G11G14G15G19G22G25
  -3289436.51449  -2554257.95646  21949762.8284   21949761.5594
      2609.9844
  -2431518.39249  -1889069.95047  21635834.4614   21635831.1804
      1807.3914
   2220187.01849   1717344.27447  21260890.1334   21260887.5004
     -1815.6874
   4501082.64447   3483497.51843  23774640.0474   23774641.2384
     -3574.8914
   3106106.50548   2402826.12344  23844334.3364   23844330.3794
     -2475.5784
   2687172.46248   2078461.25445  23115749.9144   23115747.2344
     -2101.6874
  -3367825.47849  -2615621.15847  21614162.3284   21614160.4654
      2620.5164
 04  9 10 15 16  0.0000000  0  7G 1G11G14G15G19G22G25
  -3328569.01849  -2584750.80646  21942315.7424   21942314.9414
      2608.0004
  -2458589.03849  -1910163.97847  21630682.2034   21630679.2304
      1802.3914
   2247433.97949   1738575.65547  21266074.7664   21266072.3284
     -1816.8754
   4554701.93647   3525278.71543  23784843.6484   23784844.1724
     -3574.0624
   3143239.25647   2431760.73344  23851400.4844   23851396.0514
     -2475.1094
   2718696.77649   2103025.60645  23121748.5004   23121746.0124
     -2101.1564
  -3407102.49949  -2646226.60547  21606687.8834   21606686.0824
      2616.8594
 04  9 10 15 16 15.0000000  0  7G 1G11G14G15G19G22G25
  -3367676.44349  -2615224.12946  21934874.0474   21934872.9574
      2606.2194
  -2485589.88249  -1931203.59347  21625544.6414   21625541.3524
      1797.5784
   2274693.45249   1759816.79247  21271262.2734   21271259.6484
     -1817.7974
   4608304.61047   3567046.99243  23795043.7344   23795044.6054
     -3573.1414
   3180360.91548   2460686.67244  23858464.2974   23858460.7114
     -2474.5314
   2750207.19149   2127579.14445  23127744.7194   23127742.3634
     -2100.3754
  -3446329.04249  -2676792.72947  21599223.6884   21599221.8244
      2613.2974
 04  9 10 15 16 30.0000000  0  7G 1G11G14G15G19G22G25
  -3406750.42749  -2645671.38946  21927438.4534   21927437.3874
      2603.9694
  -2512512.40649  -1952182.19047  21620421.3204   21620417.9384
      1792.4534
   2301973.49949   1781073.94947  21276453.7194   21276451.0704
     -1819.1094
   4661898.69747   3608808.54843  23805242.4144   23805243.1914
     -3572.3914
   3217479.36547   2489610.07744  23865527.3834   23865524.1454
     -2474.2344
   2781711.92948   2152128.24945  23133739.7504   23133737.4924
     -2099.9224
  -3485496.56249  -2707312.86547  21591769.9844   21591768.1454
      2609.3914
 04  9 10 15 16 45.0000000  0  7G 1G11G14G15G19G22G25
  -3445798.69749  -2676098.61646  21920007.8364   21920006.4614
      2602.3284
  -2539364.06649  -1973105.57847  21615311.3834   21615308.4844
      1787.7034
   2329266.01349   1802340.81747  21281646.8674   21281644.4734
     -1819.9844
   4715476.15047   3650557.13343  23815438.6414   23815439.1484
     -3571.2814
   3254586.48847   2518524.69443  23872589.3364   23872584.8204
     -2473.4844
   2813203.21249   2176666.86145  23139733.0704   23139730.3634
     -2098.9694
  -3524612.50449  -2737792.80247  21584326.5554   21584325.1684
      2605.9844
 04  9 10 15 17  0.0000000  0  7G 1G11G14G15G19G22G25
  -3484809.97549  -2706497.01446  21912584.5474   21912583.4184
      2599.1724
  -2566133.54449  -1993964.91347  21610217.4614   21610214.1524
      1781.5314
   2356581.99849   1823625.98547  21286845.4844   21286842.8134
     -1822.2504
   4769047.87547   3692301.26743  23825632.6334   23825633.4144
     -3571.5944
   3291693.13748   2547438.97944  23879650.4384   23879646.4264
     -2474.1254
   2844692.29748   2201203.75744  23145724.7114   23145722.4924
     -2099.5474
  -3563665.49749  -2768223.68747  21576894.9534   21576893.3244
      2601.1094
 04  9 10 15 17 15.0000000  0  7G 1G11G14G15G19G22G25
  -3523783.96849  -2736866.34746  21905167.8524   21905166.3244
      2596.7194
  -2592820.35449  -2014759.84247  21605139.1564   21605135.7384
      1776.0474
   2383921.44249   1844929.42647  21292047.9454   21292044.7814
     -1823.7504
   4822613.82047   3734040.95243  23835826.3054   23835826.1024
     -3571.1874
   3328799.12747   2576352.67944  23886710.8914   23886707.7344
     -2474.0944
   2876179.23449   2225738.99145  23151716.9924   23151714.3094
     -2099.4534
  -3602655.06049  -2798605.16447  21569475.3204   21569473.9184
      2596.9064
 04  9 10 15 17 30.0000000  0  7G 1G11G14G15G19G22G25
  -3562720.08549  -2767206.17847  21897758.9614   21897757.0634
      2594.9384
  -2619423.87849  -2035489.87447  21600076.8444   21600073.4614
      1771.1564
   2411284.70449   1866251.42247  21297254.9694   21297252.3054
     -1824.5784
   4876174.14547   3775776.24043  23846018.1094   23846018.3954
     -3570.1564
   3365904.53547   2605265.94943  23893772.1724   23893768.7704
     -2473.1724
   2907664.61749   2250273.01745  23157708.3674   23157705.3914
     -2098.5474
  -3641580.35749  -2828936.53747  21562068.3984   21562066.4884
      2593.3134
 04  9 10 15 17 45.0000000  0  7G 1G11G14G15G19G22G25
  -3601614.08349  -2797513.19146  21890357.0084   21890356.1094
      2591.9534
  -2645939.72149  -2056151.57147  21595030.7584   21595027.5594
      1765.2194
   2438675.70749   1887595.04447  21302467.0394   21302465.0204
     -1826.5474
   4929732.75147   3817510.16942  23856209.2194   23856210.3444
     -3570.0164
   3403013.19647   2634181.73243  23900833.4924   23900830.6524
     -2473.6094
   2939152.68248   2274809.12444  23163699.7584   23163697.6524
     -2098.8444
  -3680436.99849  -2859214.42247  21554674.4224   21554672.2194
      2588.6094
 04  9 10 15 18  0.0000000  0  7G 1G11G14G15G19G22G25
  -3640474.66749  -2827794.17147  21882962.4224   21882961.0514
      2589.8444
  -2672376.29549  -2076751.51647  21590000.3204   21589997.0124
      1760.0314
   2466085.49249   1908953.28947  21307683.3834   21307680.5004
     -1827.7194
   4983280.67547   3859235.72742  23866399.2194   23866400.3134
     -3569.3444
   3440115.98046   2663092.95643  23907894.3284   23907890.6414
     -2473.1564
   2970634.60448   2299340.44144  23169690.6024   23169688.3914
     -2098.3914
  -3719233.56049  -2889445.49047  21547291.4924   21547289.9614
      2584.6724
 04  9 10 15 18 15.0000000  0  7G 1G11G14G15G19G22G25
  -3679301.83349  -2858049.09546  21875573.5704   21875572.6174
      2587.0944
  -2698733.61549  -2097289.70047  21584984.8984   21584981.7544
      1754.2504
   2493513.66549   1930325.86547  21312902.7194   21312900.0784
     -1829.4374
   5036817.47847   3900952.66342  23876587.7814   23876588.3094
     -3569.0164
   3477212.41747   2691999.27143  23914953.9454   23914949.7114
     -2473.1564
   3002110.18848   2323866.82144  23175680.6024   23175678.1484
     -2098.4374
  -3757969.65249  -2919629.44547  21539920.2344   21539918.3674
      2580.0944
 04  9 10 15 18 30.0000000  0  7G 1G11G14G15G19G22G25
  -3718094.27449  -2888276.95746  21868192.0394   21868190.6294
      2585.3444
  -2725010.24349  -2117764.99147  21579984.2814   21579980.9924
      1749.3754
   2520961.20449   1951713.55147  21318125.3524   21318123.0744
     -1830.1094
   5090344.19447   3942661.74042  23886773.8204   23886773.9384
     -3567.7344
   3514303.39146   2720901.30543  23922010.6024   23922008.3524
     -2472.2344
   3033580.74448   2348389.29944  23181669.1954   23181666.6644
     -2097.4844
  -3796643.74549  -2949765.08047  21532560.8914   21532558.9304
      2576.5944
 04  9 10 15 18 45.0000000  0  7G 1G11G14G15G19G22G25
  -3756854.81449  -2918479.97646  21860815.9454   21860814.7194
      2582.4694
  -2751208.83849  -2138179.49547  21574998.8984   21574996.1334
      1743.4534
   2548425.05249   1973113.93047  21323351.9454   21323349.2304
     -1832.0314
   5143857.59047   3984360.43442  23896956.2194   23896957.1214
     -3567.6874
   3551385.49146   2749796.37243  23929068.1804   23929064.0984
     -2472.3444
   3065043.36548   2372905.59845  23187656.3284   23187653.8204
     -2097.8124
  -3835258.56649  -2979854.54547  21525212.4694   21525210.5434
      2571.7814
 04  9 10 15 19  0.0000000  0  8G 1G11G14G15G19G22G25G20
  -3795576.18949  -2948652.46646  21853447.7274   21853446.6724
      2580.3444
  -2777322.11249  -2158527.51347  21570029.5004   21570026.1024
      1738.2344
   2575912.19449   1994532.46447  21328582.5784   21328580.0234
     -1832.9374
   5197364.62547   4026054.18642  23907138.6724   23907139.4774
     -3566.5624
   3588465.70746   2778690.04443  23936123.6954   23936120.8324
     -2471.6094
   3096505.24549   2397421.30444  23193643.6724   23193641.1414
     -2097.1564
  -3873806.58449  -3009891.94647  21517877.2584   21517875.2154
      2567.8914
   -138940.21357   -104899.38952  24117329.4224   24117326.9734
      3280.5004
 04  9 10 15 19 15.0000000  0  8G 1G11G14G15G19G22G25G20
  -3834259.12249  -2978795.01046  21846086.2344   21846084.5984
      2577.7974
  -2803350.56649  -2178809.42947  21565076.8204   21565073.2734
      1732.6884
   2603421.58249   2015968.32947  21333817.3364   21333814.9614
     -1834.3754
   5250864.29947   4067742.15143  23917319.4924   23917320.7624
     -3566.1254
   3625542.80846   2807581.26543  23943178.8754   23943176.4694
     -2471.4374
   3127965.60549   2421935.83244  23199630.0944   23199628.0664
     -2096.9844
  -3912288.24449  -3039877.63647  21510554.2114   21510551.9574
      2563.5634
   -188161.29447   -143253.47442  24107962.7344   24107960.6174
      3282.8284
 04  9 10 15 19 30.0000000  0  8G 1G11G14G15G19G22G25G20
  -3872907.14449  -3008910.34446  21838731.8444   21838730.9804
      2575.0314
  -2829297.68649  -2199027.98047  21560139.2664   21560135.6054
      1726.7034
   2630949.42549   2037418.56947  21339055.9064   21339053.4534
     -1836.1564
   5304352.67647   4109421.38242  23927497.9064   23927498.5704
     -3565.8594
   3662612.89146   2836467.01043  23950233.9454   23950230.4304
     -2471.4374
   3159420.77748   2446446.31344  23205615.7664   23205613.7344
     -2097.2504
  -3950706.97949  -3069814.29947  21503243.3594   21503241.4384
      2558.8284
   -237421.07147   -181637.70342  24098588.3204   24098587.3404
      3284.9384
 04  9 10 15 19 45.0000000  0  8G 1G11G14G15G19G22G25G20
  -3911512.84649  -3038992.69846  21831385.6804   21831384.0634
      2572.7664
  -2855155.77649  -2219177.14647  21555218.5784   21555215.4454
      1721.4384
   2658502.85949   2058888.76547  21344298.9694   21344296.5274
     -1837.2504
   5357836.89447   4151097.35242  23937676.2584   23937676.0664
     -3565.0004
   3699682.86746   2865352.65943  23957287.8914   23957284.8524
     -2470.8754
   3190878.24048   2470958.58644  23211602.5864   23211599.4574
     -2096.7194
  -3989055.15149  -3099695.96147  21495945.9924   21495944.2424
      2554.6884
   -286711.96047   -220046.19042  24089208.9384   24089208.0474
      3287.5634
 04  9 10 15 20  0.0000000  0  7G 1G11G14G19G22G25G20
  -3950085.23149  -3069049.09746  21824045.2664   21824044.0044
      2569.9844
  -2880933.64149  -2239263.81347  21550313.1884   21550310.0664
      1715.5004
   2686072.62849   2080371.66347  21349545.7114   21349542.9654
     -1838.9224
   3736743.31246   2894230.88743  23964340.7894   23964337.5044
     -2470.7034
   3222328.87648   2495465.51644  23217586.4844   23217584.6724
     -2096.8914
  -4027341.65149  -3129529.59047  21488660.4384   21488658.2704
      2549.9844
   -336042.95647   -258485.91243  24079822.2894   24079820.0984
      3289.7344
 04  9 10 15 20 15.0000000  0  7G 1G11G14G19G22G25G20
  -3988618.16749  -3099074.74246  21816712.6174   21816711.5984
      2568.0944
  -2906624.98049  -2259283.03947  21545424.3204   21545421.1214
      1710.4224
   2713664.56049   2101871.86547  21354796.2194   21354793.4844
     -1839.6254
   3773799.86546   2923106.09743  23971392.2034   23971389.3364
     -2469.7194
   3253778.73748   2519971.86644  23223571.3204   23223569.4064
     -2096.0624
  -4065560.07849  -3159310.14847  21481387.3364   21481385.5004
      2546.1884
   -385407.96047   -296952.14643  24070428.8444   24070426.5234
      3292.6724
 04  9 10 15 20 30.0000000  0  7G 1G11G14G19G22G25G20
  -4027118.97449  -3129075.36646  21809386.3444   21809384.5594
      2565.5004
  -2932237.25149  -2279240.67347  21540550.4304   21540546.9384
      1704.7034
   2741270.97849   2123383.33647  21360049.7114   21360046.8444
     -1841.0164
   3810844.70746   2951972.12443  23978441.7894   23978438.5124
     -2469.1874
   3285220.31548   2544471.75144  23229554.9304   23229552.0044
     -2095.9224
  -4103717.56249  -3189043.23847  21474126.5634   21474124.6214
      2541.7034
   -434814.20047   -335450.51243  24061026.5474   24061024.7974
      3294.9534
 04  9 10 15 20 45.0000000  0  7G 1G11G14G19G22G25G20
  -4065574.63749  -3159040.79946  21802068.4384   21802066.9144
      2562.4384
  -2957757.24349  -2299126.38747  21535694.2344   21535691.1294
      1698.4384
   2768904.64649   2144916.04147  21365307.9144   21365305.4304
     -1842.9224
   3847890.57346   2980839.00743  23985491.8204   23985487.7424
     -2469.5624
   3316666.67848   2568975.36744  23235539.1644   23235536.4774
     -2096.3754
  -4141800.82749  -3218718.49347  21466879.6644   21466877.3484
      2536.6254
   -484248.69747   -373970.88743  24051619.9454   24051617.2624
      3296.8754
 04  9 10 15 21  0.0000000  0  7G 1G11G14G19G22G25G20
  -4103992.43049  -3188976.73246  21794757.6414   21794756.4144
      2559.7974
  -2983191.95249  -2318945.63547  21530854.2504   21530851.2464
      1692.7034
   2796557.96549   2166464.06247  21370570.1644   21370567.7504
     -1844.2034
   3884929.62646   3009700.54843  23992539.5474   23992536.2074
     -2469.1564
   3348110.46449   2593476.98844  23241522.4224   23241520.2344
     -2096.2504
  -4179816.96049  -3248341.43647  21459645.2344   21459643.3444
      2532.0784
   -533718.64347   -412518.91143  24042205.9144   24042203.8164
      3299.1884
 04  9 10 15 21 15.0000000  0  7G 1G11G14G19G22G25G20
  -4142374.34449  -3218884.69846  21787454.3834   21787452.9104
      2557.5474
  -3008543.31849  -2338699.97047  21526029.7504   21526026.7544
      1687.3444
   2824228.69549   2188025.64447  21375836.0164   21375833.5394
     -1845.3594
   3921959.52046   3038554.97143  23999586.4534   23999582.9264
     -2468.4224
   3379549.44948   2617974.85344  23247504.6954   23247502.8324
     -2095.8754
  -4217767.89349  -3277913.56747  21452423.1174   21452421.1334
      2527.8594
   -583226.08346   -451096.11742  24032784.1804   24032782.5784
      3301.6094
 04  9 10 15 21 30.0000000  0  7G 1G11G14G19G22G25G20
  -4180715.02249  -3248760.52646  21780158.0474   21780156.3794
      2554.7034
  -3033805.84649  -2358385.05747  21521222.4844   21521219.5744
      1681.2344
   2851921.89549   2209604.74047  21381105.7034   21381103.4024
     -1846.8754
   3958985.25046   3067406.14944  24006632.3364   24006628.2544
     -2468.2814
   3410989.08749   2642473.22344  23253488.2194   23253485.9454
     -2095.9064
  -4255647.75149  -3307430.32247  21445215.1644   21445212.9534
      2522.9844
   -632765.50546   -489698.22442  24023357.6414   24023355.5664
      3303.7344
 04  9 10 15 21 45.0000000  0  7G 1G11G14G19G22G25G20
  -4219011.06849  -3278601.59746  21772870.6484   21772869.1484
      2552.0164
  -3058976.15249  -2377998.28847  21516432.7584   21516429.7584
      1675.2974
   2879640.67649   2231203.77147  21386380.3594   21386377.9454
     -1848.3594
   3996009.63446   3096256.27943  24013677.7584   24013674.7234
     -2467.9374
   3442432.70649   2666974.70544  23259471.7194   23259469.2974
     -2096.0004
  -4293452.95149  -3336888.89347  21438021.0084   21438019.2624
      2518.2344
   -682333.61346   -528322.70642  24013923.7584   24013923.4144
      3305.7974
 04  9 10 15 22  0.0000000  0  7G 1G11G14G19G22G25G20
  -4257272.60149  -3308415.76147  21765589.6724   21765587.9064
      2550.0164
  -3084064.00949  -2397547.27947  21511658.9144   21511655.8754
      1670.1564
   2907374.65849   2252814.64047  21391658.3674   21391655.3634
     -1849.0314
   4033022.10346   3125097.13444  24020720.8444   24020717.7114
     -2466.7974
   3473870.09849   2691471.32445  23265454.4064   23265451.5554
     -2095.1564
  -4331193.74349  -3366297.28947  21430838.9614   21430836.8204
      2514.2974
   -731940.40446   -566977.33242  24004485.3524   24004483.5124
      3308.8134
 04  9 10 15 22 15.0000000  0  7G 1G11G14G19G22G25G20
  -4295491.95449  -3338197.06446  21758316.5864   21758314.6804
      2546.1094
  -3109061.69549  -2417026.01147  21506902.1484   21506898.5594
      1663.0944
   2935131.27249   2274443.15347  21396940.2664   21396937.5824
     -1851.5944
   4070029.86546   3153934.32044  24027762.7814   24027759.9694
     -2467.3444
   3505308.80249   2715968.96444  23271436.9224   23271434.6374
     -2096.3754
  -4368862.18549  -3395649.31247  21423671.0704   21423669.0744
      2508.4064
   -781578.15147   -605656.06542  23995039.5864   23995037.8444
      3309.7974
 04  9 10 15 22 30.0000000  0  7G 1G11G14G19G22G25G20
  -4333667.51748  -3367944.23347  21751052.1884   21751050.1954
      2543.8594
  -3133967.43349  -2436433.08847  21502162.6334   21502159.2464
      1657.6564
   2962911.88849   2296090.36047  21402226.5164   21402224.0044
     -1852.5004
   4107034.19646   3182768.79144  24034804.5084   24034802.1564
     -2466.4844
   3536750.43649   2740468.90244  23277419.9304   23277417.4064
     -2095.8594
  -4406456.38749  -3424943.47247  21416516.8834   21416514.8834
      2504.1414
   -831245.09347   -644357.59742  23985588.2664   23985585.8134
      3312.4694
 04  9 10 15 22 45.0000000  0  7G 1G11G14G19G22G25G20
  -4371805.31648  -3397661.99746  21743794.6024   21743793.2194
      2541.0314
  -3158787.11949  -2455773.11247  21497439.7274   21497436.5434
      1651.5164
   2990710.09749   2317751.27947  21407516.2194   21407513.8404
     -1854.0624
   4144028.61746   3211595.59044  24041844.8984   24041841.8444
     -2466.1564
   3568188.91749   2764966.36444  23283402.7814   23283399.9534
     -2096.0314
  -4443982.08648  -3454184.26247  21409375.8594   21409374.3634
      2499.1414
   -880947.30447   -683086.58342  23976130.6644   23976127.6334
      3314.3594
 04  9 10 15 23  0.0000000  0  7G 1G11G14G19G22G25G20
  -4409895.02648  -3427342.27646  21736546.2034   21736545.0474
      2537.6254
  -3183510.53649  -2475038.12647  21492734.8284   21492731.6994
      1644.9534
   3018535.87649   2339433.68347  21412811.2734   21412809.1094
     -1855.9844
   4181022.87047   3240422.27944  24048884.3134   24048881.0434
     -2466.3124
   3599634.37549   2789469.27844  23289386.6024   23289384.1914
     -2096.6414
  -4481428.89548  -3483363.58347  21402250.0784   21402248.0514
      2493.8594
   -930674.50647   -721835.08842  23966667.1254   23966664.5474
      3315.9844
 04  9 10 15 23 15.0000000  0  7G 1G11G14G19G22G25G20
  -4447945.75548  -3456992.18546  21729305.7274   21729304.0084
      2535.4064
  -3208146.40749  -2494234.92047  21488046.8204   21488042.9844
      1639.5004
   3046379.92949   2361130.33047  21418109.9454   21418107.5944
     -1856.8284
   4218007.67846   3269241.51743  24055922.5164   24055919.1954
     -2465.3444
   3631077.73249   2813970.56244  23295369.5864   23295367.5634
     -2096.1094
  -4518805.66848  -3512488.32147  21395137.6024   21395135.4264
      2489.5004
   -980435.68247   -760610.05842  23957198.7664   23957195.8594
      3318.5314
 04  9 10 15 23 30.0000000  0  7G 1G11G14G19G22G25G20
  -4485958.39548  -3486612.42547  21722072.0944   21722070.2974
      2532.6884
  -3232695.58249  -2513364.16047  21483375.4454   21483371.8164
      1633.5634
   3074241.01649   2382840.23647  21423412.0864   21423409.3244
     -1858.1724
   4254981.52146   3298052.26243  24062958.5314   24062955.6094
     -2464.8594
   3662517.99649   2838469.42144  23301353.1724   23301350.6054
     -2096.0944
  -4556113.16048  -3541559.08147  21388038.0394   21388035.6564
      2484.6884
  -1030231.71047   -799412.13142  23947722.2114   23947720.1644
      3320.7034
 04  9 10 15 23 45.0000000  0  7G 1G11G14G19G22G25G20
  -4523926.30348  -3516197.79446  21714847.2974   21714845.8954
      2529.8594
  -3257151.32649  -2532420.58647  21478721.4534   21478717.9144
      1627.4694
   3102125.58749   2404568.45647  21428718.1094   21428715.1174
     -1859.5784
   4291950.62046   3326859.32243  24069992.8444   24069990.7974
     -2464.2504
   3693961.73848   2862970.98544  23307336.8524   23307334.1254
     -2096.1094
  -4593344.38249  -3570570.40947  21380953.1174   21380951.5234
      2479.7504
  -1080055.85447   -838236.16242  23938241.4304   23938238.7934
      3322.7034
 04  9 10 15 24  0.0000000  0  6G 1G11G14G22G25G20
  -4561852.14549  -3545750.38547  21707629.8524   21707628.4924
      2527.2974
  -3281516.08149  -2551406.12447  21474084.9844   21474081.8204
      1621.6564
   3130030.72449   2426312.69547  21434027.8914   21434025.4694
     -1860.6874
   3725406.18049   2887473.09844  23313320.1804   23313317.9264
     -2095.9534
  -4630501.95149  -3599524.34647  21373882.5554   21373880.7424
      2475.0314
  -1129910.78147   -877084.14242  23928753.6884   23928751.7344
      3325.0784
 04  9 10 15 24 15.0000000  0  6G 1G11G14G22G25G20
  -4599741.47549  -3575274.53047  21700419.8054   21700418.2664
      2524.4534
  -3305795.33249  -2570325.02947  21469464.8594   21469461.5984
      1615.4694
   3157950.58149   2448068.40647  21439341.1414   21439338.6174
     -1862.1254
   3756845.77149   2911971.44344  23319302.8754   23319300.4304
     -2096.1254
  -4667591.13849  -3628424.99247  21366824.6174   21366822.7114
      2469.9844
  -1179801.94847   -915960.37342  23919259.8444   23919257.8364
      3326.9534
 04  9 10 15 24 30.0000000  0  6G 1G11G14G22G25G20
  -4637584.99449  -3604762.98146  21693218.4064   21693216.8164
      2521.5944
  -3329979.63149  -2589169.95547  21464862.5864   21464859.7384
      1609.2974
   3185894.12349   2469842.58047  21444658.5634   21444656.3554
     -1863.4374
   3788289.75949   2936473.20344  23325286.4144   23325283.6604
     -2096.2034
  -4704602.45149  -3657264.96747  21359781.5394   21359779.3484
      2465.0784
  -1229719.97247   -954857.49143  23909759.9534   23909758.5164
      3328.9384
 04  9 10 15 24 45.0000000  0  6G 1G11G14G22G25G20
  -4675387.03249  -3634219.12346  21686025.1174   21686023.3914
      2518.4694
  -3354073.29649  -2607944.25047  21460277.9144   21460274.7624
      1602.9534
   3213856.78049   2491631.62847  21449979.7664   21449977.4654
     -1865.0784
   3819733.66149   2960974.88144  23331270.2504   23331267.8794
     -2096.5474
  -4741540.03849  -3686047.48748  21352752.6484   21352750.6914
      2459.7974
  -1279669.23147   -993778.94643  23900255.7424   23900253.6374
      3330.7034
 04  9 10 15 25  0.0000000  0  6G 1G11G14G22G25G20
  -4713146.34049  -3663641.94846  21678839.1254   21678837.9574
      2515.4844
  -3378074.73549  -2626646.66947  21455710.4144   21455707.2894
      1596.6564
   3241839.55949   2513436.37347  21455304.6884   21455302.3914
     -1866.5784
   3851178.72648   2985477.49244  23337253.8364   23337251.7384
     -2096.7034
  -4778402.54749  -3714771.50247  21345737.7974   21345736.0274
      2454.6094
  -1329648.26848  -1032723.65143  23890745.0164   23890743.0744
      3332.5634
 04  9 10 15 25 15.0000000  0  6G 1G11G14G22G25G20
  -4750858.16549  -3693027.77347  21671663.2664   21671662.0704
      2511.7344
  -3401979.26349  -2645273.59247  21451161.5084   21451158.7544
      1589.5474
   3269846.91749   2535260.26047  21460634.3364   21460631.8554
     -1868.8444
   3882629.61649   3009984.63444  23343239.2734   23343237.0354
     -2097.7664
  -4815185.00949  -3743433.14847  21338738.5474   21338735.9654
      2448.6884
  -1379652.46248  -1071687.98743  23881230.0474   23881227.9064
      3333.6254
 04  9 10 15 25 30.0000000  0  6G 1G11G14G22G25G20
  -4788526.21149  -3722379.50246  21664495.1414   21664494.0354
      2510.1724
  -3425790.33549  -2663827.69147  21446630.5164   21446627.5164
      1584.7814
   3297874.75549   2557100.11047  21465968.0704   21465965.4964
     -1868.7664
   3914082.62048   3034493.42844  23349224.4144   23349221.9964
     -2096.4534
  -4851890.87749  -3772035.11748  21331753.4144   21331751.6024
      2445.0164
  -1429685.39448  -1110674.70043  23871708.6724   23871706.4144
      3336.9064
 04  9 10 15 25 45.0000000  0  6G 1G11G14G22G25G20
  -4826158.55049  -3751703.38947  21657334.0234   21657332.1994
      2507.2034
  -3449515.93849  -2682315.17247  21442115.6724   21442112.3554
      1578.4384
   3325914.85149   2578949.51247  21471304.0474   21471301.4774
     -1870.1564
   3945529.61249   3058997.54044  23355208.8054   23355206.3324
     -2096.7034
  -4888527.88849  -3800583.41847  21324781.6484   21324779.7304
      2439.7344
  -1479755.09448  -1149690.07443  23862180.6884   23862178.5744
      3338.7974
 04  9 10 15 26  0.0000000  0  6G 1G11G14G22G25G20
  -4863747.89549  -3780993.78646  21650180.8134   21650179.3634
      2504.1884
  -3473148.83049  -2700730.43347  21437618.4224   21437615.4184
      1572.1414
   3353974.24449   2600813.95247  21476643.4614   21476641.0904
     -1871.5164
   3976977.61148   3083502.42544  23361192.8284   23361190.3284
     -2096.8444
  -4925088.73749  -3829072.38147  21317824.2274   21317822.5824
      2434.5634
  -1529854.17747  -1188728.32743  23852647.7194   23852645.4694
      3340.7034
 04  9 10 15 26 15.0000000  0  6G 1G11G14G22G25G20
  -4901287.46849  -3810245.37946  21643037.6484   21643035.9144
      2501.4694
  -3496681.95649  -2719067.94147  21433140.4844   21433137.1174
      1566.0944
   3382059.42549   2622698.48847  21481988.0474   21481985.1914
     -1872.6874
   4008433.42949   3108013.39644  23367178.6644   23367176.7894
     -2096.8284
  -4961566.35749  -3857496.49347  21310882.8754   21310880.8364
      2429.5784
  -1579975.91447  -1227784.20343  23843109.9144   23843107.7424
      3342.7034
 04  9 10 15 26 30.0000000  0  6G 1G11G14G22G25G20
  -4938790.49749  -3839468.50947  21635900.7734   21635899.3674
      2498.5784
  -3520128.48349  -2737337.96347  21428678.5474   21428675.6294
      1559.7344
   3410156.86749   2644592.58247  21487334.7034   21487332.8244
     -1873.9694
   4039883.96948   3132520.28444  23373163.4774   23373161.4304
     -2096.9374
  -4997973.84149  -3885865.93347  21303954.7424   21303952.6214
      2424.3754
  -1630133.32347  -1266867.88943  23833564.5394   23833562.6454
      3344.5474
 04  9 10 15 26 45.0000000  0  6G 1G11G14G22G25G20
  -4976244.40548  -3868653.36546  21628773.3284   21628771.6884
      2495.4844
  -3543475.60949  -2755530.54547  21424235.8204   21424232.6764
      1553.3134
   3438278.82449   2666505.76547  21492686.0394   21492683.7274
     -1875.4844
   4071341.61849   3157032.68744  23379149.8364   23379147.3874
     -2097.2664
  -5034298.39749  -3914170.78148  21297042.5004   21297040.3554
      2419.0164
  -1680313.81147  -1305969.54443  23824014.5314   23824013.5314
      3346.2034
 04  9 10 15 27  0.0000000  0  6G 1G11G14G22G25G20
  -5013657.59148  -3897806.48747  21621653.7814   21621652.3134
      2492.5784
  -3566731.62349  -2773652.12647  21419810.1414   21419806.8914
      1546.9844
   3466416.65649   2688431.32747  21498040.4694   21498038.4184
     -1876.6874
   4102797.90949   3181544.04544  23385136.2344   23385133.6334
     -2097.3124
  -5070548.19249  -3942417.35347  21290144.4224   21290142.4344
      2413.8754
  -1730525.71447  -1345095.69943  23814460.4614   23814458.7384
      3348.2344
 04  9 10 15 27 15.0000000  0  6G 1G11G14G22G25G20
  -5051025.50549  -3926924.33647  21614543.0784   21614541.7344
      2489.8914
  -3589891.98049  -2791699.16247  21415403.1564   21415400.0274
      1541.0944
   3494574.66549   2710372.60447  21503399.0634   21503396.5084
     -1877.5944
   4134257.27049   3206057.78444  23391122.5004   23391120.5004
     -2097.1564
  -5106718.57349  -3970602.06047  21283261.0634   21283259.2854
      2408.9844
  -1780764.38247  -1384242.69543  23804900.9614   23804899.1484
      3350.3914
 04  9 10 15 27 30.0000000  0  6G 1G11G14G22G25G20
  -5088350.72748  -3956008.92147  21607440.2504   21607438.9694
      2486.7034
  -3612958.99548  -2809673.46647  21411013.7664   21411010.3594
      1534.5474
   3522750.11649   2732327.48047  21508760.8594   21508758.1254
     -1879.1874
   4165717.10248   3230571.88344  23397108.5944   23397107.0044
     -2097.5474
  -5142811.85549  -3998726.68547  21276393.0864   21276390.7424
      2403.4384
  -1831032.45446  -1423412.62943  23795335.3054   23795333.3204
      3352.0164
 04  9 10 15 27 45.0000000  0  6G 1G11G14G22G25G20
  -5125634.01948  -3985060.82447  21600345.2734   21600343.6374
      2484.3914
  -3635933.42849  -2827575.62947  21406641.4144   21406638.7504
      1528.7814
   3550941.93349   2754295.10947  21514125.4384   21514122.7704
     -1879.7504
   4197176.69648   3255085.79444  23403095.6884   23403092.7894
     -2097.1414
  -5178828.66049  -4026791.71047  21269539.2584   21269536.7384
      2398.7814
  -1881330.47247  -1462605.86843  23785763.9924   23785761.4104
      3354.3444
 04  9 10 15 28  0.0000000  0  6G 1G11G14G22G25G20
  -5162879.18648  -4014083.02147  21593257.9304   21593256.7114
      2481.5004
  -3658818.94349  -2845408.50747  21402286.5234   21402283.2814
      1522.4844
   3579145.98949   2776272.28047  21519492.3754   21519489.6884
     -1880.9064
   4228632.08649   3279596.43444  23409081.3834   23409079.0204
     -2097.0314
  -5214772.60849  -4054799.96747  21262699.3984   21262697.0474
      2393.7034
  -1931662.25946  -1501825.45043  23776186.0004   23776183.2464
      3356.4064
 04  9 10 15 28 15.0000000  0  6G 1G11G14G22G25G20
  -5200082.69448  -4043072.75347  21586178.3914   21586176.7544
      2478.6724
  -3681611.88549  -2863169.25647  21397949.4694   21397945.9104
      1516.2664
   3607365.62149   2798261.57247  21524862.4454   21524859.7464
     -1882.0164
   4260086.75748   3304106.51544  23415067.1484   23415064.8054
     -2097.1254
  -5250639.97249  -4082748.55547  21255873.7274   21255871.9804
      2388.4224
  -1982024.17146  -1541068.56743  23766602.1644   23766599.7624
      3358.2814
 04  9 10 15 28 30.0000000  0  6G 1G11G14G22G25G20
  -5237244.13448  -4072029.69647  21579107.0944   21579105.7464
      2476.0474
  -3704311.65548  -2880857.39147  21393629.7424   21393626.7424
      1510.2814
   3635601.05749   2820263.20347  21530235.2974   21530232.9964
     -1882.7814
   4291541.07948   3328616.33944  23421052.4774   23421050.9384
     -2096.9694
  -5286430.12749  -4110636.96247  21249063.3054   21249061.5164
      2383.4844
  -2032415.82746  -1580334.72942  23757012.3284   23757010.4344
      3360.4844
 04  9 10 15 28 45.0000000  0  6G 1G11G14G22G25G20
  -5274363.02848  -4100953.49447  21572043.4694   21572041.9844
      2473.3284
  -3726917.71749  -2898472.51347  21389327.9384   21389324.8444
      1504.1564
   3663852.38449   2842277.19747  21535611.6254   21535609.2704
     -1883.8124
   4322995.45048   3353126.17544  23427038.6174   23427036.6054
     -2096.8124
  -5322142.44249  -4138464.73347  21242267.5944   21242265.1374
      2378.4064
  -2082836.69045  -1619623.70442  23747417.1094   23747415.5744
      3362.4384
 04  9 10 15 29  0.0000000  0  6G 1G11G14G22G25G20
  -5311432.09148  -4129838.47347  21564989.2734   21564987.8874
      2469.8754
  -3749422.66449  -2916008.85047  21385045.3754   21385042.4614
      1497.2034
   3692126.64049   2864309.05347  21540991.9304   21540989.5864
     -1885.4224
   4354457.10148   3377641.67144  23433025.3594   23433023.0434
     -2097.4064
  -5357769.53249  -4166226.09547  21235487.8524   21235485.7074
      2372.5634
  -2133279.34646  -1658929.63842  23737818.4844   23737817.0514
      3363.7194
 04  9 10 15 29 15.0000000  0  6G 1G11G14G22G25G20
  -5348456.67448  -4158688.78847  21557944.0944   21557942.2894
      2466.8284
  -3771831.76649  -2933470.50147  21380781.5704   21380778.4654
      1490.7194
   3720418.22449   2886354.41247  21546375.3594   21546373.2074
     -1886.6414
   4385920.58748   3402158.63244  23439012.5084   23439010.6174
     -2097.6414
  -5393316.45749  -4193924.99547  21228723.5234   21228721.1994
      2367.1564
  -2183748.97146  -1698256.62543  23728215.2194   23728213.0274
      3365.5944
 04  9 10 15 29 30.0000000  0  6G 1G11G14G22G25G20
  -5385431.54249  -4187500.35647  21550907.6804   21550906.4964
      2463.1724
  -3794139.59949  -2950853.23447  21376536.0944   21376532.8524
      1483.6564
   3748732.17649   2908417.21847  21551763.6954   21551761.3324
     -1888.4844
   4417391.09848   3426681.05744  23445001.5164   23444999.0664
     -2098.4374
  -5428777.67049  -4221557.08547  21221975.4844   21221973.5744
      2361.0634
  -2234240.32847  -1737600.51143  23718607.0634   23718604.9454
      3366.6564
 04  9 10 15 29 45.0000000  0  6G 1G11G14G22G25G20
  -5422357.37949  -4216273.71647  21543881.0944   21543879.5824
      2460.0474
  -3816346.92649  -2968157.66047  21372310.3444   21372307.5004
      1477.1564
   3777067.40249   2930496.59147  21557155.7034   21557153.8404
     -1889.7194
   4448867.78848   3451208.28144  23450990.7344   23450989.3244
     -2098.6724
  -5464153.83549  -4249122.92047  21215243.6804   21215241.5474
      2355.6414
  -2284754.20646  -1776961.96244  23708994.3444   23708992.4774
      3368.2814
 04  9 10 15 30  0.0000000  0  6G 1G11G14G22G25G20
  -5459243.72348  -4245016.29547  21536861.7424   21536860.2934
      2457.8594
  -3838463.05449  -2985391.01247  21368101.7034   21368098.7234
      1471.4224
   3805414.21149   2952584.98147  21562549.9774   21562547.7344
     -1890.1254
   4480341.19048   3475732.97544  23456980.5474   23456978.3874
     -2098.1414
  -5499454.22849  -4276629.71247  21208526.2504   21208524.4964
      2350.8284
  -2335299.93346  -1816348.22243  23699375.6884   23699374.3444
      3370.7974
 04  9 10 15 30 15.0000000  0  6G 1G11G14G22G25G20
  -5496086.53649  -4273724.96247  21529850.6954   21529849.8594
      2455.0634
  -3860484.03949  -3002550.23147  21363911.0864   21363908.2274
      1465.1724
   3833776.28549   2974685.28647  21567947.0004   21567944.5514
     -1891.0164
   4511815.19348   3500258.08844  23462969.7504   23462967.6604
     -2098.0004
  -5534674.70149  -4304074.21747  21201824.1564   21201821.5084
      2345.7194
  -2385873.42846  -1855756.15043  23689752.3674   23689750.0944
      3372.8594
 04  9 10 15 30 30.0000000  0  6G 1G11G14G22G25G20
  -5532886.76549  -4302400.44747  21522847.8984   21522846.4534
      2451.5784
  -3882410.33249  -3019635.66047  21359738.8444   21359735.7424
      1458.1414
   3862152.58449   2996796.65747  21573346.8134   21573344.3094
     -1892.7034
   4543288.90248   3524783.01944  23468958.8674   23468956.5204
     -2098.7194
  -5569815.94449  -4331456.99847  21195136.8444   21195134.8404
      2339.6564
  -2436475.42146  -1895186.26343  23680122.2584   23680120.9144
      3374.0474
 04  9 10 15 30 45.0000000  0  6G 1G11G14G22G25G20
  -5569637.65749  -4331037.49247  21515854.3754   21515852.9104
      2448.4844
  -3904235.25349  -3036642.10447  21355585.8594   21355582.6994
      1451.7034
   3890549.60649   3018924.19547  21578750.8204   21578748.2034
     -1893.7814
   4574769.00148   3549312.89444  23474949.0784   23474947.1644
     -2098.8284
  -5604871.14849  -4358772.72648  21188465.8834   21188463.5634
      2334.2034
  -2487099.26945  -1934633.38542  23670488.4304   23670487.7234
      3375.8444
 04  9 10 15 31  0.0000000  0  6G 1G11G14G22G25G20
  -5606342.65049  -4359638.78547  21508869.6644   21508868.0664
      2445.5164
  -3925962.05849  -3053572.10247  21351451.0394   21351448.2074
      1445.2034
   3918963.66349   3041064.98347  21584157.4454   21584155.3484
     -1894.7504
   4606252.08848   3573845.11944  23480940.6644   23480938.2774
     -2099.0004
  -5639843.26449  -4386023.71547  21181810.7424   21181808.4614
      2328.7504
  -2537748.26845  -1974100.12142  23660850.5164   23660849.0084
      3377.5634
 04  9 10 15 31 15.0000000  0  6G 1G11G14G22G25G20
  -5643008.40549  -4388209.46647  21501892.3834   21501890.5984
      2443.3134
  -3947597.28549  -3070430.72747  21347334.0704   21347331.1134
      1439.5944
   3947387.70749   3063213.57247  21589566.5164   21589564.4104
     -1895.0474
   4637731.26148   3598374.28444  23486930.3594   23486928.7814
     -2098.2034
  -5674738.97249  -4413215.16247  21175170.2894   21175168.1564
      2324.0314
  -2588428.97246  -2013591.57843  23651206.7734   23651204.5044
      3380.0474
 04  9 10 15 31 30.0000000  0  6G 1G11G14G22G25G20
  -5679627.37749  -4416743.72147  21494924.0234   21494922.9494
      2439.7344
  -3969133.18349  -3087211.94647  21343235.8364   21343232.6484
      1432.4844
   3975829.08349   3085375.66447  21594978.8674   21594976.4064
     -1896.5624
   4669214.11548   3622906.31444  23492921.6954   23492919.8094
     -2098.9224
  -5709550.64549  -4440341.13848  21168545.8204   21168544.0744
      2318.0474
  -2639133.76047  -2053101.78743  23641558.4924   23641556.0594
      3381.1094
 04  9 10 15 31 45.0000000  0  6G 1G11G14G22G25G20
  -5716199.67349  -4445241.59547  21487964.3444   21487962.7854
      2436.6094
  -3990570.04549  -3103916.01647  21339156.4534   21339153.7194
      1425.8914
   4004287.44349   3107550.97647  21600394.3914   21600392.1954
     -1897.7664
   4700700.46848   3647441.07544  23498913.5394   23498911.6054
     -2099.0784
  -5744278.17549  -4467401.53447  21161937.5944   21161935.6484
      2312.3914
  -2689862.75546  -2092630.90643  23631905.2894   23631902.4224
      3382.7194
 04  9 10 15 32  0.0000000  0  6G 1G11G14G22G25G20
  -5752724.62849  -4473702.57347  21481014.0864   21481012.6954
      2432.8754
  -4011907.03849  -3120542.25047  21335096.6024   21335093.5354
      1418.5784
   4032763.27549   3129739.91747  21605813.0314   21605810.8714
     -1899.5314
   4732190.91548   3671979.04044  23504906.0554   23504904.0394
     -2100.0164
  -5778920.69349  -4494395.68748  21155344.9304   21155343.0164
      2306.1254
  -2740615.10147  -2132178.19243  23622247.0084   23622244.8284
      3383.6724
 04  9 10 15 32 15.0000000  0  6G 1G11G14G22G25G20
  -5789202.34048  -4502126.73847  21474072.5164   21474071.0474
      2430.8134
  -4033143.97349  -3137090.52847  21331055.3984   21331052.0514
      1412.9694
   4061256.14749   3151942.12347  21611234.9694   21611232.8524
     -1899.5164
   4763685.22948   3696520.00243  23510899.3984   23510896.9534
     -2099.2664
  -5813477.90649  -4521323.38348  21148769.1414   21148766.8094
      2301.4844
  -2791390.83646  -2171743.69743  23612584.6414   23612583.2734
      3386.4384
 04  9 10 15 32 30.0000000  0  6G 1G11G14G22G25G20
  -5825640.36349  -4530519.98047  21467138.7504   21467137.1644
      2428.0004
  -4054288.47349  -3153566.76347  21327031.3204   21327028.2304
      1406.7194
   4089758.29749   3174151.58247  21616658.9304   21616656.6524
     -1900.3594
   4795175.92148   3721058.14144  23516891.9304   23516889.7854
     -2099.0944
  -5847957.30549  -4548190.43347  21142208.1484   21142205.9654
      2296.1414
  -2842197.44146  -2211333.22643  23602915.9144   23602914.8484
      3388.1884
 04  9 10 15 32 45.0000000  0  6G 1G11G14G22G25G20
  -5862033.44348  -4558878.21047  21460213.2894   21460211.7274
      2424.2974
  -4075335.05348  -3169966.70647  21323026.4454   21323023.2034
      1399.3594
   4118274.73649   3196372.15947  21622085.2974   21622082.9304
     -1902.0164
   4826668.13448   3745597.44944  23522884.6334   23522882.4614
     -2099.9694
  -5882353.43549  -4574992.60147  21135662.4694   21135660.5434
      2289.8134
  -2893029.63946  -2250942.70943  23593242.7194   23593240.8954
      3389.2344
 04  9 10 15 33  0.0000000  0  6G 1G11G14G22G25G20
  -5898375.35348  -4587196.54847  21453297.6094   21453295.7074
      2421.1254
  -4096277.49549  -3186285.49647  21319041.4614   21319038.2114
      1392.7504
   4146811.40249   3218608.49847  21627515.5864   21627512.9494
     -1903.0474
   4858168.11648   3770142.84744  23528878.9144   23528877.1174
     -2100.2974
  -5916659.84349  -4601724.85647  21129134.3524   21129132.1484
      2284.1724
  -2943880.98446  -2290567.12243  23583566.2584   23583564.1914
      3390.7814
 04  9 10 15 33 15.0000000  0  6G 1G11G14G22G25G20
  -5934666.66949  -4615475.47947  21446391.5554   21446389.8984
      2418.5164
  -4117116.17649  -3202523.44147  21315075.6804   21315072.4344
      1386.6094
   4175367.51149   3240859.98947  21632949.8134   21632947.1804
     -1903.6254
   4889675.23048   3794693.77644  23534874.3594   23534872.5124
     -2099.9374
  -5950877.04849  -4628387.59948  21122623.1804   21122621.3754
      2278.9844
  -2994752.01246  -2330206.89343  23573885.6254   23573883.2584
      3392.7194
 04  9 10 15 33 30.0000000  0  6G 1G11G14G22G25G20
  -5970915.25348  -4643721.10947  21439493.3754   21439492.0004
      2415.0944
  -4137858.78149  -3218686.50747  21311128.7424   21311125.4534
      1379.5784
   4203935.07649   3263120.40847  21638385.9454   21638383.8714
     -1904.9064
   4921181.54148   3819244.09044  23540869.9304   23540868.2584
     -2100.4844
  -5985012.69949  -4654986.79948  21116127.5084   21116125.4414
      2272.9224
  -3045650.46447  -2369868.02043  23564200.1954   23564197.8984
      3394.1414
 04  9 10 15 33 45.0000000  0  6G 1G11G14G22G25G20
  -6007112.83048  -4671926.98747  21432605.1724   21432604.3874
      2411.8754
  -4158497.09449  -3234768.32947  21307201.5634   21307198.2424
      1372.8134
   4232521.99949   3285395.90447  21643825.8914   21643823.6214
     -1906.0624
   4952695.19948   3843800.12244  23546867.3364   23546865.7194
     -2100.8594
  -6019058.48349  -4681515.97648  21109648.7034   21109646.3204
      2267.0944
  -3096568.01347  -2409544.06443  23554512.2584   23554508.4104
      3395.5314
 04  9 10 15 34  0.0000000  0  6G 1G11G14G22G25G20
  -6043261.30749  -4700094.61447  21425726.7734   21425725.2344
      2407.9694
  -4179032.82049  -3250770.19347  21303293.7114   21303290.3204
      1365.3134
   4261126.13049   3307684.81547  21649269.2034   21649266.9574
     -1907.7814
   4984214.28048   3868360.39544  23552864.9304   23552863.2464
     -2101.7344
  -6053015.99249  -4707976.35948  21103186.4844   21103184.5704
      2260.6094
  -3147506.49647  -2449236.39743  23544818.2894   23544815.4614
      3396.3134
 04  9 10 15 34 15.0000000  0  6G 1G11G14G22G25G20
  -6079360.25049  -4728223.64147  21418857.4384   21418855.7934
      2405.5164
  -4199465.54749  -3266691.81447  21299405.2974   21299402.2704
      1359.3134
   4289747.66749   3329987.28347  21654715.8754   21654713.6294
     -1908.0624
   5015739.18948   3892925.18744  23558864.0234   23558861.8134
     -2101.3124
  -6086884.49849  -4734367.39648  21096741.7584   21096739.5004
      2255.5164
  -3198465.40946  -2488944.62843  23535120.3054   23535118.0784
      3398.4534
 04  9 10 15 34 30.0000000  0  6G 1G11G14G22G25G20
  -6115419.92349  -4756322.06547  21411995.0704   21411993.4774
      2403.0474
  -4219805.25549  -3282540.93947  21295534.6254   21295531.5824
      1353.2664
   4318376.22449   3352295.22947  21660163.5314   21660161.2194
     -1908.4534
   5047259.68148   3917486.56744  23564862.2344   23564860.0944
     -2100.9064
  -6120674.05449  -4760696.90848  21090311.6884   21090309.4804
      2250.3754
  -3249454.90346  -2528676.69343  23525417.8524   23525416.4064
      3400.6254
 04  9 10 15 34 45.0000000  0  6G 1G11G14G22G25G20
  -6151429.34349  -4784381.33847  21405143.0394   21405141.6604
      2398.3754
  -4240041.02049  -3298309.08347  21291683.9224   21291680.7854
      1344.9534
   4347022.47849   3374616.96847  21665614.9384   21665612.5234
     -1910.8444
   5078786.63448   3942052.96144  23570861.6414   23570860.0784
     -2102.5314
  -6154373.63749  -4786956.32848  21083898.7194   21083896.8204
      2243.0474
  -3300463.81747  -2568423.89343  23515710.8674   23515709.0514
      3400.6884
 04  9 10 15 35  0.0000000  0  6G 1G11G14G22G25G20
  -6187382.02449  -4812396.40547  21398301.5864   21398299.9614
      2395.5784
  -4260166.14649  -3313991.00247  21287854.4614   21287851.5634
      1338.6724
   4375692.66349   3396957.35047  21671070.6644   21671068.4614
     -1911.5004
   5110326.54248   3966629.47044  23576863.3054   23576861.9384
     -2102.5004
  -6187976.60649  -4813140.43448  21077504.5314   21077502.3984
      2237.6254
  -3351485.69346  -2608181.15643  23506001.4224   23505999.9884
      3402.5474
 04  9 10 15 35 15.0000000  0  6G 1G11G14G22G25G20
  -6223286.47848  -4840373.87947  21391468.7584   21391467.0354
      2391.6254
  -4280189.11049  -3329593.31747  21284044.1254   21284041.0864
      1331.1414
   4404378.00549   3419309.53547  21676529.0164   21676526.7464
     -1913.1874
   5141870.71548   3991209.29344  23582866.3444   23582864.4454
     -2103.4064
  -6221491.28549  -4839255.77048  21071126.8674   21071124.6684
      2230.9534
  -3402528.85147  -2647955.05743  23496288.9534   23496286.3204
      3403.2344
 04  9 10 15 35 30.0000000  0  6G 1G11G14G22G25G20
  -6259143.40548  -4868314.32247  21384645.6804   21384644.2544
      2388.8754
  -4300110.52749  -3345116.49647  21280253.5314   21280250.4534
      1324.7344
   4433077.59249   3441672.83047  21681990.6484   21681988.2274
     -1913.7664
   5173418.49648   4015791.93043  23588869.3364   23588867.9804
     -2103.3284
  -6254918.22049  -4865302.71548  21064765.7504   21064763.8484
      2225.5634
  -3453593.94048  -2687746.00943  23486571.9454   23486569.3284
      3405.0784
 04  9 10 15 35 45.0000000  0  6G 1G11G14G22G25G20
  -6294956.93949  -4896220.96947  21377830.2734   21377828.6994
      2386.2194
  -4319934.41749  -3360563.69547  21276480.7814   21276477.9844
      1318.4534
   4461787.06749   3464043.82147  21687453.9064   21687451.1564
     -1914.2034
   5204965.68448   4040374.10544  23594872.8524   23594870.9844
     -2103.0474
  -6288261.29149  -4891284.32948  21058420.9224   21058418.7464
      2220.1414
  -3504685.02448  -2727557.24443  23476849.7424   23476847.0474
      3406.9844
 04  9 10 15 36  0.0000000  0  6G 1G11G14G22G25G20
  -6330725.28448  -4924092.38747  21371023.8594   21371022.2664
      2383.5474
  -4339658.70249  -3375933.27247  21272727.2814   21272724.4304
      1312.1414
   4490508.04749   3486423.79047  21692919.2274   21692916.6844
     -1914.6094
   5236514.03648   4064957.21143  23600876.1954   23600874.8674
     -2102.7504
  -6321518.64549  -4917199.13348  21052092.3834   21052090.4414
      2214.7974
  -3555800.19947  -2767387.27043  23467122.9064   23467119.2504
      3408.9694
 04  9 10 15 36 15.0000000  0  6G 1G11G14G22G25G20
  -6366452.93649  -4951932.10047  21364225.0084   21364223.2814
      2380.5784
  -4359287.96949  -3391228.80947  21268992.2274   21268989.0274
      1305.4384
   4519235.71849   3508808.96247  21698385.9614   21698383.4454
     -1915.3444
   5268059.03148   4089537.67544  23606878.9224   23606877.3954
     -2102.8594
  -6354694.52049  -4943050.45348  21045779.2584   21045776.8244
      2209.0474
  -3606943.82047  -2807239.48343  23457389.8444   23457387.1374
      3410.5314
 04  9 10 15 36 30.0000000  0  6G 1G11G14G22G25G20
  -6402133.76049  -4979735.34347  21357435.7194   21357434.0394
      2377.0634
  -4378815.92749  -3406445.42247  21265276.1954   21265272.8404
      1298.4064
   4547976.01649   3531203.96047  21703855.0634   21703853.0004
     -1916.4844
   5299606.71248   4114120.22444  23612882.6484   23612880.4494
     -2103.3124
  -6387782.61149  -4968833.38348  21039482.6094   21039480.5594
      2202.8754
  -3658109.70347  -2847108.97543  23447653.1954   23447650.8134
      3411.7344
 04  9 10 15 36 45.0000000  0  6G 1G11G14G22G25G20
  -6437767.70949  -5007502.03947  21350654.1024   21350652.3094
      2373.9384
  -4398242.51949  -3421583.01847  21261579.3754   21261576.0204
      1291.6564
   4576728.77449   3553608.69046  21709326.3674   21709324.0664
     -1917.3124
   5331156.99848   4138704.81344  23618885.7664   23618884.8954
     -2103.5314
  -6420782.75649  -4994547.76248  21033202.6334   21033200.5864
      2197.0314
  -3709297.69847  -2886995.68343  23437912.2664   23437909.9694
      3413.2034
 04  9 10 15 37  0.0000000  0  6G 1G11G14G22G25G20
  -6473350.86449  -5035229.15947  21343883.1954   21343881.3834
      2371.1564
  -4417563.65949  -3436638.45647  21257902.6024   21257899.5594
      1285.1564
   4605497.66849   3576025.99447  21714801.0314   21714798.5594
     -1917.9064
   5362713.90648   4163294.56143  23624891.1414   23624890.3914
     -2103.4374
  -6453690.77449  -5020190.36148  21026940.7344   21026938.5864
      2191.3284
  -3760503.66847  -2926896.42943  23428168.5864   23428166.2034
      3414.8754
 04  9 10 15 37 15.0000000  0  6G 1G11G14G22G25G20
  -6508888.23949  -5062920.61447  21337120.7734   21337119.3874
      2367.3754
  -4436784.36449  -3451615.64047  21254244.8914   21254242.1844
      1277.8754
   4634277.40749   3598451.73147  21720277.9844   21720275.6644
     -1919.1724
   5394272.38948   4187885.51744  23630896.5474   23630895.5664
     -2104.1094
  -6486511.52649  -5045764.95948  21020695.1884   21020692.7814
      2184.9694
  -3811732.66547  -2966815.11344  23418419.6174   23418417.5984
      3415.8594
 04  9 10 15 37 30.0000000  0  6G 1G11G14G22G25G20
  -6544377.17049  -5090574.32547  21330367.2504   21330365.8244
      2364.0634
  -4455901.76349  -3466512.31947  21250607.2424   21250603.9064
      1270.8444
   4663070.47249   3620887.85947  21725757.1334   21725754.9534
     -1920.1874
   5425834.99848   4212479.70843  23636902.4614   23636901.1764
     -2104.5784
  -6519242.34049  -5071269.47848  21014466.8364   21014464.6844
      2178.8754
  -3862981.95346  -3006749.61043  23408667.3134   23408665.3754
      3416.9844
 04  9 10 15 37 45.0000000  0  6G 1G11G14G22G25G20
  -6579815.74349  -5118188.78347  21323623.5784   21323621.9184
      2361.0474
  -4474913.97049  -3481327.02347  21246989.4774   21246986.0044
      1264.1254
   4691878.52449   3643335.67247  21731238.9304   21731236.7734
     -1920.7504
   5457403.43148   4237078.41843  23642909.9384   23642909.6374
     -2104.6094
  -6551881.04249  -5096702.21648  21008255.6414   21008253.3984
      2173.0314
  -3914249.52447  -3046698.37143  23398911.9144   23398909.2464
      3418.6254
 04  9 10 15 38  0.0000000  0  6G 1G11G14G22G25G20
  -6615201.67849  -5145762.23747  21316889.9614   21316888.3054
      2357.7034
  -4493818.48449  -3496057.82547  21243391.7114   21243388.7074
      1257.0784
   4720703.54349   3665796.69447  21736723.8674   21736721.9304
     -1921.8124
   5488980.02848   4261683.51343  23648919.3204   23648917.9774
     -2104.9844
  -6584425.11049  -5122061.23348  21002062.4774   21002060.5044
      2166.8444
  -3965532.94247  -3086659.47843  23389152.3054   23389150.2034
      3419.7814
 04  9 10 15 38 15.0000000  0  6G 1G11G14G22G25G20
  -6650545.45149  -5173302.81447  21310163.7034   21310162.3014
      2354.9224
  -4512625.75149  -3510712.83447  21239812.7424   21239809.6254
      1250.6564
   4749534.87749   3688262.64647  21742210.5864   21742208.3984
     -1922.2344
   5520554.28748   4286286.79744  23654927.5394   23654926.3524
     -2104.7974
  -6616884.96949  -5147354.61048  20995885.4614   20995883.5634
      2161.2344
  -4016842.55347  -3126640.99243  23379388.1094   23379385.8834
      3421.5634
 04  9 10 15 38 30.0000000  0  6G 1G11G14G22G25G20
  -6685842.34349  -5200806.89047  21303447.0704   21303445.4414
      2351.6724
  -4531331.05549  -3525288.40747  21236253.4774   21236250.6994
      1243.6884
   4778377.00649   3710736.99446  21747699.0164   21747696.9414
     -1923.0624
   5552130.90448   4310891.89743  23660937.0634   23660935.4804
     -2105.0784
  -6649255.70049  -5172578.55048  20989725.6884   20989723.8754
      2155.1884
  -4068173.54747  -3166639.14543  23369619.3754   23369618.1604
      3422.8914
 04  9 10 15 38 45.0000000  0  6G 1G11G14G22G25G20
  -6721095.18049  -5228276.60947  21296738.9534   21296737.0824
      2348.7664
  -4549937.03349  -3539786.57447  21232712.8364   21232710.0204
      1237.1094
   4807227.04149   3733217.52046  21753189.1724   21753186.6294
     -1923.5944
   5583707.05648   4335496.63243  23666945.3204   23666944.0274
     -2105.0314
  -6681539.83749  -5197734.99848  20983582.5004   20983580.3954
      2149.4224
  -4119528.61047  -3206656.07543  23359848.4144   23359846.0704
      3424.4064
 04  9 10 15 39  0.0000000  0  6G 1G11G14G22G25G20
  -6756296.00249  -5255705.81247  21290040.3914   21290038.8984
      2345.0944
  -4568435.64249  -3554201.08947  21229192.3594   21229189.6564
      1229.7344
   4836092.62248   3755710.15646  21758682.0394   21758679.7544
     -1924.8124
   5615290.70548   4360107.21443  23672956.0084   23672953.9734
     -2105.7034
  -6713729.26949  -5222817.66748  20977457.2344   20977454.8054
      2142.9224
  -4170899.69447  -3246685.49343  23350072.6724   23350070.3984
      3425.4064
 04  9 10 15 39 15.0000000  0  6G 1G11G14G22G25G20
  -6791449.16649  -5283097.87947  21283351.1334   21283349.8134
      2341.7974
  -4586831.16749  -3568535.27147  21225692.3134   21225689.0514
      1222.8134
   4864969.21049   3778211.35946  21764177.1954   21764175.1684
     -1925.6564
   5646877.37548   4384720.13943  23678966.2424   23678964.5514
     -2106.0004
  -6745828.25649  -5247829.85848  20971348.7114   20971346.7624
      2136.7974
  -4222291.02748  -3286730.70943  23340293.0474   23340291.0704
      3426.6564
 04  9 10 15 39 30.0000000  0  6G 1G11G14G22G25G20
  -6826554.19349  -5310452.43547  21276670.8284   21276669.2774
      2338.7504
  -4605122.94749  -3582788.61747  21222211.4454   21222208.2704
      1216.0004
   4893856.94248   3800721.25646  21769674.2664   21769672.0744
     -1926.1874
   5678467.47348   4409335.75743  23684977.8134   23684976.5234
     -2106.1414
  -6777836.17249  -5272771.07448  20965257.7424   20965255.0274
      2130.8754
  -4273702.06348  -3326791.24943  23330509.9454   23330507.9774
      3428.0164
 04  9 10 15 39 45.0000000  0  6G 1G11G14G22G25G20
  -6861613.79749  -5337771.58647  21269998.8674   21269997.2344
      2336.1884
  -4623313.52149  -3596963.09847  21218749.9924   21218746.4694
      1209.7344
   4922752.94348   3823237.59247  21775172.9454   21775171.0204
     -1926.2974
   5710058.15548   4433951.82843  23690988.8914   23690987.9024
     -2105.6724
  -6809755.47549  -5297643.24448  20959183.6024   20959181.5744
      2125.3914
  -4325135.35148  -3366869.12644  23320722.3984   23320720.4104
      3429.9534
 04  9 10 15 40  0.0000000  0  6G 1G11G14G22G25G20
  -6896631.27249  -5365057.92147  21263335.4454   21263333.9844
      2332.6724
  -4641406.35949  -3611061.41847  21215306.8284   21215303.7424
      1202.5164
   4951653.72148   3845757.66347  21780672.6644   21780670.4494
     -1927.2814
   5741646.18048   4458565.78543  23697000.1804   23696999.6294
     -2106.1724
  -6841589.23349  -5322448.76348  20953126.0634   20953123.8954
      2118.9694
  -4376594.03748  -3406966.78443  23310930.4454   23310928.4104
      3431.0314
 04  9 10 15 40 15.0000000  0  6G 1G11G14G22G25G20
  -6931600.45549  -5392306.61247  21256680.9064   21256679.5394
      2329.8914
  -4659395.21049  -3625078.71147  21211883.6484   21211880.6604
      1196.0314
   4980565.32948   3868286.15546  21786174.3444   21786172.3014
     -1927.6254
   5773237.79648   4483182.56643  23703011.4924   23703010.8094
     -2105.9224
  -6873331.22949  -5347182.77148  20947085.6484   20947083.5044
      2113.2664
  -4428071.84548  -3447079.34543  23301134.3594   23301131.6294
      3432.7664
 04  9 10 15 40 30.0000000  0  6G 1G11G14G22G25G20
  -6966517.81449  -5419514.93947  21250036.3284   21250034.9414
      2326.4534
  -4677276.29949  -3639012.02747  21208481.0634   21208478.1174
      1188.8594
   5009491.02948   3890825.63746  21791678.4844   21791676.5864
     -1928.5004
   5804836.35648   4507804.75743  23709025.2344   23709023.5664
     -2106.4374
  -6904977.89149  -5371842.48848  20941063.3834   20941061.1884
      2106.9844
  -4479565.21148  -3487204.04343  23291335.4454   23291332.7344
      3433.7974
 04  9 10 15 40 45.0000000  0  6G 1G11G14G22G25G20
  -7001387.88449  -5446686.42147  21243401.0944   21243399.3204
      2323.1724
  -4695054.09049  -3652864.86647  21205098.1644   21205094.8014
      1181.8444
   5038426.08048   3913372.39846  21797184.8204   21797182.8164
     -1929.2504
   5836437.30148   4532428.82343  23715038.7034   23715036.9964
     -2106.7814
  -6936533.48249  -5396431.25048  20935058.7194   20935056.3164
      2100.7034
  -4531078.41348  -3527344.22143  23281532.8524   23281530.6414
      3434.8914
 04  9 10 15 40 59.9990000  0  6G 1G11G14G22G25G20
  -7036201.40149  -5473813.82047  21236776.0654   21236774.3154
      2319.3754
  -4712720.49049  -3666630.88947  21201736.0264   21201732.8974
      1174.2504
   5067375.12648   3935930.07046  21802693.6054   21802691.8044
     -1930.4844
   5868045.43048   4557058.47843  23721053.6514   23721052.2144
     -2107.5314
  -6967988.85149  -5420941.91548  20929072.8784   20929070.0854
      2094.0004
  -4582601.12148  -3567491.77544  23271728.6754   23271726.1124
      3435.5784
 04  9 10 15 41 14.9990000  0  6G 1G11G14G22G25G20
  -7070965.39949  -5500902.64147  21230160.4484   21230158.9524
      2315.9534
  -4730280.12649  -3680313.72647  21198394.6594   21198391.9604
      1167.1254
   5096339.48249   3958499.68246  21808205.6124   21808203.3824
     -1931.3594
   5899662.54648   4581695.15943  23727069.8004   23727068.7964
     -2107.9694
  -6999350.43249  -5445379.49548  20923105.0194   20923102.6474
      2087.6254
  -4634142.54248  -3607653.93844  23261920.6204   23261918.1364
      3436.6724
 04  9 10 15 41 29.9990000  0  6G 1G11G14G22G25G20
  -7105683.78949  -5527955.92347  21223553.7694   21223552.5264
      2312.6254
  -4747737.96149  -3693917.23747  21195072.6834   21195069.7414
      1160.0314
   5125310.75449   3981074.65947  21813718.6054   21813716.3974
     -1932.0314
   5931280.20748   4606332.23343  23733086.4644   23733085.4564
     -2108.2974
  -7030622.17449  -5469747.07048  20917154.0734   20917151.5694
      2081.3594
  -4685705.14648  -3647832.58244  23252107.9014   23252106.0114
      3437.8914
 04  9 10 15 41 44.9990000  0  6G 1G11G14G22G25G20
  -7140349.70149  -5554968.30847  21216957.1364   21216955.6204
      2309.2664
  -4765086.95249  -3707435.93747  21191771.2694   21191767.9014
      1152.9064
   5154295.73349   4003660.32747  21819234.5734   21819232.0464
     -1932.8754
   5962905.28148   4630975.09243  23739105.1364   23739103.3514
     -2108.6414
  -7061797.00849  -5494039.14448  20911221.7374   20911219.6404
      2074.9694
  -4737281.99648  -3688022.30544  23242293.1364   23242291.5854
      3438.8134
 04  9 10 15 41 59.9990000  0  6G 1G11G14G22G25G20
  -7174968.16949  -5581943.72347  21210369.7304   21210368.1594
      2306.6094
  -4782332.22449  -3720873.81747  21188489.7374   21188486.2334
      1146.5314
   5183289.12249   4026252.55846  21824751.4094   21824749.5114
     -1932.8284
   5994532.65648   4655619.75343  23745123.4644   23745121.9644
     -2108.1874
  -7092879.74849  -5518259.45648  20905306.8944   20905305.2144
      2069.3914
  -4788878.07848  -3728227.04144  23232475.0974   23232472.9174
      3440.7344
 04  9 10 15 42 14.9990000  0  6G 1G11G14G22G25G20
  -7209538.62149  -5608881.72247  21203791.3314   21203789.4874
      2303.3594
  -4799472.97949  -3734230.25147  21185227.6984   21185224.8904
      1139.4844
   5212291.24649   4048851.59146  21830270.7064   21830268.3704
     -1933.5474
   6026162.99248   4680266.74343  23751142.4484   23751141.0654
     -2108.4694
  -7123869.68549  -5542407.44648  20899409.3474   20899407.5154
      2063.1564
  -4840492.75248  -3768446.26944  23222653.4014   23222651.5344
      3441.8754
 04  9 10 15 42 29.9990000  0  6G 1G11G14G22G25G20
  -7244060.96549  -5635782.23847  21197221.5734   21197220.1164
      2299.5474
  -4816508.90149  -3747505.01447  21181985.8784   21181982.8974
      1131.8594
   5241302.04449   4071457.36746  21835790.9804   21835789.0344
     -1934.7974
   6057796.23348   4704915.94943  23757162.4404   23757160.6794
     -2109.3284
  -7154766.65649  -5566483.01048  20893530.0584   20893528.1634
      2056.3594
  -4892125.61348  -3808679.68943  23212827.8314   23212825.4914
      3442.4064
 04  9 10 15 42 44.9990000  0  6G 1G11G14G22G25G20
  -7278532.39249  -5662643.06947  21190661.8624   21190660.3084
      2296.2974
  -4833437.36549  -3760696.02847  21178764.6054   21178761.5814
      1124.9534
   5270324.02848   4094071.88046  21841314.2614   21841312.0264
     -1935.2814
   6089435.15348   4729569.62143  23763183.3314   23763181.7104
     -2109.5004
  -7185567.76249  -5590483.86348  20887668.9564   20887666.7924
      2050.1884
  -4943773.70348  -3848924.93544  23202999.4804   23202996.6204
      3443.6414
 04  9 10 15 42 59.9990000  0  6G 1G11G14G22G25G20
  -7312954.48349  -5689465.45347  21184111.5654   21184110.5774
      2293.1564
  -4850259.95749  -3773804.53947  21175563.4804   21175559.7724
      1117.9694
   5299355.43948   4116693.72846  21846838.0584   21846836.0034
     -1935.7504
   6121078.16548   4754226.45843  23769204.2224   23769202.5894
     -2109.6094
  -7216274.29149  -5614411.00048  20881825.5734   20881823.4334
      2044.0474
  -4995438.63548  -3889183.32144  23193168.4094   23193165.5894
      3444.9534
 04  9 10 15 43 14.9990000  0  6G 1G11G14G22G25G20
  -7347330.89349  -5716252.26147  21177569.9334   21177568.0934
      2289.8594
  -4866980.12549  -3786833.26347  21172381.5504   21172378.5304
      1110.9534
   5328392.44748   4139319.93346  21852363.7764   21852362.1444
     -1936.3754
   6152721.55248   4778883.60643  23775226.0654   23775224.0464
     -2109.9534
  -7246889.63449  -5638267.12348  20875999.8624   20875997.3944
      2037.5944
  -5047123.96448  -3929457.61943  23183332.7224   23183330.4994
      3445.9844
 04  9 10 15 43 29.9990000  0  6G 1G11G14G22G25G20
  -7381658.67449  -5743001.15847  21171037.3864   21171035.8044
      2286.9064
  -4883594.74249  -3799779.71447  21169219.9014   21169216.6514
      1104.0784
   5357437.83848   4161952.68546  21857891.1904   21857889.1444
     -1936.5784
   6184368.24448   4803543.32143  23781248.4014   23781247.3274
     -2109.8594
  -7277410.87849  -5662049.89648  20870191.6364   20870189.3084
      2031.6094
  -5098826.48548  -3969745.27644  23173493.9094   23173491.7574
      3447.4224
 04  9 10 15 43 44.9990000  0  6G 1G11G14G22G25G20
  -7415931.79249  -5769707.47847  21164515.6284   21164514.0894
      2283.4534
  -4900097.87649  -3812639.30347  21166079.3624   21166076.3744
      1096.8754
   5386497.33448   4184596.41246  21863421.0344   21863418.4174
     -1937.3444
   6216024.19848   4828210.24343  23787272.2304   23787271.0154
     -2110.3444
  -7307831.81449  -5685754.51748  20864402.8554   20864399.9174
      2025.0784
  -5150540.10048  -4010041.59344  23163652.8154   23163651.6874
      3448.2664
 04  9 10 15 43 59.9990000  0  6G 1G11G14G22G25G20
  -7450152.51949  -5796372.96147  21158003.4724   21158001.9914
      2279.5004
  -4916491.68749  -3825413.70747  21162959.8784   21162957.1904
      1089.1884
   5415568.54748   4207249.28646  21868953.4804   21868951.1944
     -1938.6094
   6247687.05448   4852882.55943  23793297.0114   23793295.6284
     -2111.2034
  -7338154.54949  -5709382.61348  20858632.6364   20858630.3744
      2018.0944
  -5202266.91648  -4050348.16944  23153809.7144   23153808.2144
      3448.8134
 04  9 10 15 44 14.9990000  0  6G 1G11G14G22G25G20
  -7484320.36649  -5822997.23647  21151501.7924   21151500.2374
      2276.1884
  -4932775.66849  -3838102.53447  21159861.1204   21159857.9484
      1082.0164
   5444651.78748   4229911.51646  21874487.3394   21874485.4254
     -1939.1874
   6279357.39248   4877560.69443  23799324.2844   23799322.6014
     -2111.5164
  -7368378.51449  -5732933.74148  20852881.0424   20852879.2574
      2011.6884
  -5254006.39248  -4090664.62244  23143963.4954   23143961.8904
      3449.7814
 04  9 10 15 44 29.9990000  0  6G 1G11G14G22G25G20
  -7518437.94949  -5849582.34947  21145009.4874   21145007.6794
      2273.2194
  -4948952.17249  -3850707.60647  21156782.6444   21156780.0034
      1075.2344
   5473744.14748   4252580.85746  21880023.9334   21880021.5504
     -1939.3444
   6311032.46348   4902242.53243  23805351.4804   23805350.3554
     -2111.4534
  -7398506.13849  -5756409.81548  20847148.2304   20847145.7654
      2005.7344
  -5305760.99948  -4130992.89944  23134116.0654   23134113.1874
      3451.1414
 04  9 10 15 44 44.9990000  0  6G 1G11G14G22G25G20
  -7552506.26649  -5876129.08047  21138526.1204   21138524.8784
      2269.4534
  -4965022.13349  -3863229.66547  21153724.8084   21153721.8124
      1067.6564
   5502844.48848   4275256.42146  21885561.3084   21885558.7614
     -1940.4224
   6342711.38248   4926927.37043  23811380.1594   23811378.4374
     -2112.2194
  -7428538.23349  -5779811.43748  20841432.8084   20841430.5974
      1998.8444
  -5357531.54048  -4171333.58443  23124264.1054   23124261.5544
      3451.8284
 04  9 10 15 44 59.9990000  0  6G 1G11G14G22G25G20
  -7586528.14949  -5902639.61347  21132052.2614   21132050.6514
      2266.4534
  -4980988.39149  -3875670.91647  21150686.3784   21150683.6404
      1060.8594
   5531949.76848   4297935.84546  21891099.7454   21891097.5264
     -1940.5944
   6374391.17748   4951612.87443  23817408.2844   23817407.0934
     -2112.1564
  -7458477.50549  -5803140.72848  20835735.7694   20835733.7764
      1992.8444
  -5409320.67548  -4211688.76843  23114408.6204   23114406.3744
      3453.1254
 04  9 10 15 45 14.9990000  0  6G 1G11G14G22G25G20
  -7620502.39049  -5929113.03147  21125587.1754   21125585.3474
      2263.0634
  -4996849.75749  -3888030.43347  21147668.6444   21147665.3354
      1053.6254
   5561061.04548   4320619.91946  21896639.4564   21896637.2964
     -1941.2814
   6406072.92948   4976299.90943  23823436.5654   23823436.0114
     -2112.4844
  -7488322.48349  -5826396.55448  20830056.4404   20830054.5074
      1986.1564
  -5461127.18247  -4252057.46843  23104550.0264   23104548.7534
      3453.9224
 04  9 10 15 45 29.9990000  0  6G 1G11G14G22G25G20
  -7654409.19749  -5955533.91447  21119134.8004   21119133.1794
      2258.8594
  -5012586.36949  -3900292.72747  21144673.9334   21144670.8744
      1045.5944
   5590197.74549   4343323.82546  21902184.3864   21902182.4524
     -1942.7344
   6437776.46048   5001003.89543  23829470.1204   23829469.2064
     -2113.6564
  -7518053.22849  -5849563.35548  20824398.9564   20824396.6404
      1978.8754
  -5512931.08248  -4292424.11644  23094692.1594   23094690.1244
      3454.1094
 04  9 10 15 45 44.9990000  0  6G 1G11G14G22G25G20
  -7688268.30649  -5981917.63147  21112691.6754   21112690.1554
      2255.6724
  -5028217.70949  -3912473.00547  21141699.4014   21141696.0934
      1038.5784
   5619340.02049   4366032.05046  21907729.6364   21907727.5584
     -1942.9224
   6469482.01248   5025709.48743  23835503.5114   23835502.4334
     -2113.7194
  -7547689.47649  -5872656.53948  20818759.3084   20818757.3044
      1972.6254
  -5564752.01948  -4332804.06444  23084830.7764   23084829.3004
      3455.2974
 04  9 10 15 45 59.9990000  0  6G 1G11G14G22G25G20
  -7722076.53149  -6008261.68747  21106257.9804   21106256.3154
      2251.9384
  -5043740.58549  -3924568.76947  21138745.4174   21138742.4404
      1030.9384
   5648490.93148   4388747.01646  21913276.7144   21913274.7804
     -1943.9694
   6501192.78048   5050419.13843  23841538.4334   23841536.8744
     -2114.4534
  -7577227.83849  -5895673.43748  20813138.5114   20813136.3744
      1965.6254
  -5616586.57848  -4373194.62044  23074967.1514   23074965.2104
      3455.8134
 04  9 10 15 46 14.9990000  0  6G 1G11G14G22G25G20
  -7755833.23149  -6034565.59547  21099834.4874   21099832.9604
      2248.6884
  -5059154.29449  -3936579.46047  21135811.9874   21135808.9014
      1023.8594
   5677650.94448   4411469.07646  21918825.7374   21918823.9334
     -1944.4064
   6532909.36147   5075133.31543  23847572.9724   23847572.0624
     -2114.7814
  -7606667.40349  -5918613.35148  20807536.2924   20807533.9834
      1959.3134
  -5668434.03348  -4413595.22844  23065100.7764   23065099.3274
      3456.9064
 04  9 10 15 46 29.9990000  0  6G 1G11G14G22G25G20
  -7789539.80649  -6060830.44347  21093420.2924   21093418.8234
      2245.5784
  -5074460.29949  -3948506.21847  21132899.4174   21132896.7844
      1016.9844
   5706818.43548   4434196.96746  21924376.2694   21924374.1714
     -1944.6564
   6564630.21747   5099850.79643  23853610.0734   23853608.6284
     -2114.6724
  -7636009.56049  -5941477.36048  20801952.6754   20801950.4484
      1953.0634
  -5720295.69148  -4454006.89844  23055232.2924   23055230.0224
      3458.1094
 04  9 10 15 46 44.9990000  0  6G 1G11G14G22G25G20
  -7823198.92249  -6087058.31747  21087015.2304   21087013.3584
      2242.2504
  -5089661.06949  -3960350.97847  21130006.8784   21130003.9484
      1009.7974
   5735990.43848   4456928.35946  21929927.2224   21929925.6124
     -1945.0474
   6596352.77548   5124569.61843  23859646.5034   23859645.4564
     -2115.0314
  -7665256.77149  -5964267.39948  20796386.6834   20796385.1444
      1946.5164
  -5772173.97048  -4494431.50643  23045359.6514   23045357.8904
      3458.9224
 04  9 10 15 46 59.9990000  0  6G 1G11G14G22G25G20
  -7856809.57149  -6113248.42647  21080619.1124   21080617.7694
      2239.4064
  -5104755.74349  -3972113.07247  21127134.2924   21127131.5194
      1003.0784
   5765167.85848   4479663.99146  21935479.2844   21935477.6874
     -1945.0624
   6628077.88247   5149290.42143  23865683.7614   23865682.5504
     -2114.7814
  -7694407.85549  -5986982.50948  20790839.7144   20790837.5034
      1940.5004
  -5824067.74648  -4534868.19943  23035484.5194   23035482.6474
      3460.4384
 04  9 10 15 47 14.9990000  0  6G 1G11G14G22G25G20
  -7890372.81549  -6139401.59847  21074232.5504   21074230.6244
      2235.5784
  -5119745.17249  -3983793.16947  21124282.0264   21124278.9404
       995.4844
   5794349.46049   4502402.86746  21941033.1754   21941031.0304
     -1945.9534
   6659804.53947   5174012.43843  23871721.1364   23871720.0584
     -2115.4374
  -7723463.91649  -6009623.59548  20785310.5114   20785307.7454
      1933.5634
  -5875977.94248  -4575317.68844  23025606.7534   23025604.3944
      3460.8284
 04  9 10 15 47 29.9990000  0  6G 1G11G14G22G25G20
  -7923888.86449  -6165517.99947  21067854.4484   21067852.3474
      2232.4534
  -5134629.42948  -3995391.29347  21121449.7844   21121446.9254
       988.4064
   5823534.84649   4525144.70346  21946586.5504   21946584.6904
     -1946.1724
   6691532.54747   5198735.50843  23877758.4954   23877757.2144
     -2115.6094
  -7752424.90949  -6032190.60648  20779799.7304   20779797.1054
      1927.1254
  -5927904.60248  -4615780.02844  23015725.2844   23015723.0304
      3461.9064
 04  9 10 15 47 44.9990000  0  6G 1G11G14G22G25G20
  -7957354.25949  -6191594.90647  21061486.3394   21061484.3514
      2229.3594
  -5149405.01049  -4006904.74147  21118638.1514   21118634.7064
       981.4064
   5852727.21949   4547891.98846  21952141.9484   21952140.0154
     -1946.3594
   6723265.32047   5223462.30743  23883796.9644   23883795.7964
     -2115.5624
  -7781287.22349  -6054680.69648  20774307.0734   20774305.0074
      1920.9064
  -5979844.13348  -4656252.36944  23005841.7764   23005839.3944
      3463.1254
 04  9 10 15 47 59.9990000  0  6G 1G11G14G22G25G20
  -7990760.71149  -6217625.90647  21055129.1754   21055127.8084
      2225.1254
  -5164063.55049  -4018326.98647  21115848.4644   21115845.3154
       973.3594
   5881934.73149   4570651.06046  21957700.0974   21957698.2724
     -1947.6094
   6755010.99947   5248199.16343  23889838.4484   23889837.1324
     -2116.7504
  -7810042.36649  -6077087.30348  20768835.3084   20768833.1714
      1913.5004
  -6031788.13448  -4696728.21544  22995957.2374   22995954.8904
      3463.1094
 04  9 10 15 48 14.9990000  0  6G 1G11G14G22G25G20
  -8024115.55549  -6243616.68647  21048782.1284   21048780.2694
      2221.6884
  -5178612.35449  -4029663.72647  21113080.1674   21113076.8234
       966.0164
   5911149.88049   4593416.07846  21963259.4334   21963257.3274
     -1948.1564
   6786762.22346   5272940.31043  23895880.5194   23895878.9954
     -2117.0474
  -7838697.61749  -6099416.06948  20763382.3154   20763380.1084
      1906.7974
  -6083743.89648  -4737213.21744  22986069.4014   22986068.0894
      3463.9384
 04  9 10 15 48 29.9990000  0  6G 1G11G14G22G25G20
  -8057421.80449  -6269569.60447  21042444.1364   21042442.2304
      2218.9694
  -5193054.44849  -4040917.31747  21110331.7224   21110329.0074
       959.4534
   5940369.41249   4616184.52446  21968819.9874   21968817.7224
     -1947.8914
   6818515.95547   5297683.43743  23901922.8394   23901922.1084
     -2116.7504
  -7867255.79949  -6121669.18748  20757947.9254   20757945.6944
      1900.8594
  -6135714.18548  -4777709.51044  22976180.5814   22976178.8084
      3465.3444
 04  9 10 15 48 44.9990000  0  6G 1G11G14G22G25G20
  -8090675.96349  -6295481.92347  21036115.8624   21036114.0654
      2215.0474
  -5207386.24349  -4052084.96147  21107604.3474   21107601.5974
       951.6414
   5969596.64249   4638958.95646  21974381.6054   21974379.6904
     -1948.8914
   6850275.63846   5322431.19243  23907966.8084   23907965.8474
     -2117.6254
  -7895713.31449  -6143843.86948  20752532.5584   20752530.3434
      1893.6254
  -6187695.27348  -4818214.26244  22966288.8004   22966286.1364
      3465.5784
 04  9 10 15 48 59.9990000  0  6G 1G11G14G22G25G20
  -8123880.97349  -6321355.95547  21029797.4804   21029795.8234
      2211.8444
  -5221610.62748  -4063168.91047  21104897.9874   21104894.8194
       944.4844
   5998828.56249   4661737.05446  21979943.7454   21979942.6244
     -1949.0624
   6882038.44847   5347181.36843  23914011.2064   23914009.6554
     -2117.8444
  -7924072.87649  -6165942.22148  20747135.8084   20747133.2844
      1887.1254
  -6239690.04448  -4858729.65644  22956394.6444   22956392.5894
      3466.6414
 04  9 10 15 49 14.9990000  0  6G 1G11G14G22G25G20
  -8157031.87049  -6347187.81947  21023488.7844   21023487.1474
      2208.0784
  -5235722.64049  -4074165.30347  21102212.4094   21102209.2964
       936.8444
   6028069.85149   4684522.43946  21985508.8474   21985507.0264
     -1949.9374
   6913809.22246   5371937.79743  23920056.9174   23920055.6324
     -2118.5784
  -7952329.49349  -6187960.36348  20741758.7454   20741756.8194
      1880.1254
  -6291693.39048  -4899251.75744  22946499.1754   22946496.4404
      3466.9694
 04  9 10 15 49 29.9990000  0  6G 1G11G14G22G25G20
  -8190129.31749  -6372978.03247  21017190.6444   21017188.9484
      2205.0944
  -5249722.93049  -4085074.62247  21099548.3084   21099545.1794
       930.0164
   6057319.59749   4707314.42946  21991074.4644   21991072.8274
     -1949.8284
   6945587.23947   5396699.82943  23926104.2304   23926103.3154
     -2118.4374
  -7980483.64349  -6209898.64648  20736401.1514   20736398.9444
      1873.9694
  -6343705.79248  -4939780.90244  22936601.3784   22936598.9954
      3468.2194
 04  9 10 15 49 44.9990000  0  6G 1G11G14G22G25G20
  -8223182.18449  -6398733.51447  21010900.7304   21010898.8704
      2201.7034
  -5263620.10949  -4095903.60947  21096903.6984   21096900.6054
       922.5944
   6086568.81749   4730105.99246  21996640.9724   21996638.8274
     -1950.3124
   6977363.63046   5421460.61943  23932150.3394   23932150.0194
     -2118.8284
  -8008544.07349  -6231763.91248  20731061.5264   20731059.0894
      1867.1564
  -6395735.98848  -4980323.89644  22926700.2454   22926698.3904
      3468.8134
 04  9 10 15 49 59.9990000  0  6G 1G11G14G22G25G20
  -8256185.00549  -6424449.98747  21004620.6514   21004618.8554
      2198.3754
  -5277408.89149  -4106648.12247  21094279.7924   21094276.2374
       915.5164
   6115822.83449   4752901.31246  22002207.7064   22002205.5464
     -1950.5784
   7009143.74346   5446224.30243  23938198.4174   23938197.2024
     -2118.8914
  -8036505.29749  -6253551.87748  20725740.7614   20725738.4254
      1860.6884
  -6447778.40348  -5020876.40944  22916796.3864   22916794.9684
      3469.7504
 04  9 10 15 50 14.9990000  0  6G 1G11G14G22G25G20
  -8289137.37249  -6450127.16747  20998350.0194   20998347.7374
      2195.3444
  -5291088.62749  -4117307.66947  21091676.4724   21091673.3584
       908.5474
   6145081.85749   4775700.51546  22007775.4874   22007773.3084
     -1950.5944
   7040928.05646   5470991.22143  23944247.0974   23944245.9914
     -2118.9694
  -8064366.58749  -6275261.97448  20720438.6444   20720436.2724
      1854.3134
  -6499832.39348  -5061437.94044  22906891.3474   22906889.3624
      3470.8284
 04  9 10 15 50 29.9990000  0  6G 1G11G14G22G25G20
  -8322038.93649  -6475764.73547  20992089.0114   20992086.8044
      2191.9384
  -5304658.87549  -4127881.89847  21089094.1124   21089091.2654
       901.1724
   6174346.02649   4798503.73546  22013344.1284   22013342.3194
     -1950.8594
   7072716.88347   5495761.71643  23950296.2614   23950295.7304
     -2119.1724
  -8092127.56349  -6296893.88148  20715156.1514   20715153.7224
      1847.5784
  -6551897.39548  -5102008.06544  22896983.3154   22896981.3824
      3471.5634
 04  9 10 15 50 44.9990000  0  6G 1G11G14G22G25G20
  -8354891.07649  -6501363.80247  20985837.2844   20985835.6754
      2188.4064
  -5318121.15649  -4138371.99247  21086532.5194   21086529.5344
       893.7814
   6203613.82649   4821309.78146  22018913.5034   22018911.8944
     -1951.3754
   7104508.88646   5520534.66743  23956345.7224   23956345.3194
     -2119.5474
  -8119789.48749  -6318448.62548  20709892.4094   20709890.3274
      1840.7664
  -6603974.62448  -5142587.71844  22887073.7144   22887071.0974
      3472.1414
 04  9 10 15 50 59.9990000  0  6G 1G11G14G22G25G20
  -8387694.24449  -6526924.71747  20979595.1674   20979593.4404
      2185.0314
  -5331475.76549  -4148778.19147  21083991.1904   21083987.8704
       886.5164
   6232884.66349   4844118.19846  22024483.2064   22024481.7884
     -1951.6874
   7136303.44046   5545309.62643  23962396.3554   23962396.3664
     -2119.8754
  -8147352.46949  -6339926.27048  20704647.0654   20704644.3864
      1834.0004
  -6656064.54348  -5183177.26444  22877161.1444   22877158.5504
      3472.8914
 04  9 10 15 51 14.9990000  0  6G 1G11G14G22G25G20
  -8420446.26449  -6552445.75247  20973362.8154   20973361.1514
      2181.9224
  -5344720.51448  -4159098.78447  21081470.9564   21081467.9834
       879.5164
   6262160.44649   4866930.47346  22030054.7144   22030053.0854
     -1951.6874
   7168102.77246   5570088.29643  23968448.1674   23968446.7494
     -2120.0474
  -8174814.32548  -6361325.09848  20699421.2454   20699419.1014
      1827.5634
  -6708164.77648  -5223774.84644  22867246.6674   22867245.0694
      3473.8594
 04  9 10 15 51 29.9990000  0  6G 1G11G14G22G25G20
  -8453148.76049  -6577928.21247  20967139.5344   20967138.3274
      2178.6414
  -5357856.84449  -4169334.89047  21078971.2144   21078968.6164
       872.2194
   6291439.50549   4889745.28946  22035626.3154   22035624.5344
     -1952.0164
   7199905.18346   5594869.31643  23974498.9564   23974498.9294
     -2120.2194
  -8202176.55949  -6382646.31348  20694214.4174   20694212.3704
      1820.9534
  -6760276.60348  -5264381.45644  22857329.6834   22857328.6324
      3474.5474
 04  9 10 15 51 44.9990000  0  6G 1G11G14G22G25G20
  -8485802.03549  -6603372.32847  20960925.8864   20960924.3394
      2175.1564
  -5370885.09949  -4179486.80247  21076491.8394   21076488.7724
       864.8594
   6320721.24449   4912562.20046  22041198.2144   22041196.7494
     -1952.2664
   7231710.39547   5619652.57143  23980552.1204   23980551.4174
     -2120.5164
  -8229439.33349  -6403890.03048  20689026.5264   20689024.1204
      1814.1724
  -6812400.32348  -5304997.33244  22847411.8864   22847409.6284
      3475.1884
 04  9 10 15 51 59.9990000  0  6G 1G11G14G22G25G20
  -8518407.81249  -6628779.42147  20954721.0894   20954719.7534
      2171.7344
  -5383807.03649  -4189555.84747  21074033.4014   21074029.7414
       857.4844
   6350003.83849   4935379.77746  22046770.7764   22046769.0814
     -1952.6094
   7263516.66247   5644436.63943  23986604.5264   23986603.9444
     -2120.9064
  -8256604.28449  -6425057.51048  20683857.1984   20683854.6284
      1807.2504
  -6864537.47548  -5345623.68544  22837490.3154   22837487.8554
      3475.8444
 04  9 10 15 52 14.9990000  0  6G 1G11G14G22G25G20
  -8550964.37249  -6654148.15947  20948525.9484   20948524.2454
      2168.5474
  -5396620.83849  -4199540.64347  21071594.7064   21071591.7334
       850.3284
   6379288.81649   4958199.20846  22052343.5654   22052341.7224
     -1952.7034
   7295325.56847   5669222.77343  23992657.5114   23992656.8584
     -2121.0004
  -8283669.63449  -6446147.38048  20678706.7224   20678704.6204
      1800.7814
  -6916686.24948  -5386259.10044  22827566.5344   22827564.0774
      3476.6884
 04  9 10 15 52 29.9990000  0  5G 1G11G14G25G20
  -8583471.37649  -6679478.28147  20942340.1204   20942338.0344
      2165.2814
  -5409326.12549  -4209440.87547  21069177.1054   21069173.7574
       843.1564
   6408576.38749   4981020.67946  22057917.0654   22057915.4524
     -1952.7974
  -8310634.91149  -6467159.28448  20673575.7144   20673573.2494
      1794.1254
  -6968846.15248  -5426903.17244  22817640.4404   22817638.1674
      3477.4844
 04  9 10 15 52 44.9990000  0  5G 1G11G14G25G20
  -8615928.30949  -6704769.39847  20936163.5344   20936161.6444
      2161.9844
  -5421922.39749  -4219256.16847  21066779.8314   21066776.8434
       835.8914
   6437866.76249   5003844.31946  22063490.4014   22063488.8744
     -1952.9224
  -8337499.45249  -6488092.68348  20668463.5264   20668461.1874
      1787.4224
  -7021016.42248  -5467555.33044  22807713.0344   22807711.0114
      3478.1254
 04  9 10 15 52 59.9990000  0  5G 1G11G14G25G20
  -8648335.76749  -6730021.94647  20929997.0504   20929995.0154
      2158.8914
  -5434410.12949  -4228986.86747  21064403.7064   21064400.3044
       828.9384
   6467159.26249   5026669.62046  22069064.8944   22069062.9014
     -1952.8444
  -8364263.67949  -6508947.91648  20663370.1984   20663368.2724
      1781.0634
  -7073197.49848  -5508215.88344  22797783.6364   22797781.0504
      3479.1724
 04  9 10 15 53 14.9990000  0  5G 1G11G14G25G20
  -8680694.85949  -6755236.81047  20923839.2374   20923837.4444
      2155.8444
  -5446790.46749  -4238633.89547  21062047.6514   21062044.9524
       821.9694
   6496452.62649   5049495.59846  22074639.0584   22074637.5194
     -1952.7194
  -8390928.71149  -6529725.85648  20658296.1364   20658293.5114
      1774.5784
  -7125390.28948  -5548885.59944  22787851.8864   22787849.1944
      3480.0634
 04  9 10 15 53 29.9990000  0  5G 1G11G14G25G20
  -8713002.96649  -6780411.95547  20917690.9334   20917689.3234
      2152.3284
  -5459060.70449  -4248195.13247  21059712.5424   21059709.7414
       814.4694
   6525749.26349   5072324.11946  22080214.1754   22080212.2804
     -1953.1254
  -8417491.63749  -6550424.24648  20653241.3944   20653239.0624
      1767.5784
  -7177592.05048  -5589562.30444  22777918.1284   22777916.0034
      3480.5474
 04  9 10 15 53 44.9990000  0  5G 1G11G14G25G20
  -8745261.97549  -6805548.84947  20911552.4014   20911551.1324
      2148.9844
  -5471222.67748  -4257671.99547  21057398.0264   21057395.0734
       807.2194
   6555047.09649   5095153.57946  22085789.0894   22085787.4524
     -1953.1414
  -8443954.18749  -6571044.40248  20648205.7064   20648203.5154
      1760.8914
  -7229804.55348  -5630247.36944  22767982.0194   22767979.4294
      3481.2664
 04  9 10 15 53 59.9990000  0  5G 1G11G14G25G20
  -8777471.90649  -6830647.49547  20905423.1514   20905421.1474
      2145.9844
  -5483276.22049  -4267064.38047  21055104.5264   21055101.5464
       800.2344
   6584346.01049   5117983.86646  22091364.6754   22091363.1984
     -1953.0004
  -8470316.26249  -6591586.27348  20643189.1364   20643186.6514
      1754.4224
  -7282027.60748  -5670940.65744  22758044.0344   22758042.4404
      3482.2504
 04  9 10 15 54 14.9990000  0  5G 1G11G14G25G20
  -8809633.45049  -6855708.42747  20899302.4014   20899301.3394
      2142.4844
  -5495222.03149  -4276372.81047  21052831.7064   21052828.3624
       792.7814
   6613645.15449   5140814.34546  22096940.5424   22096938.9524
     -1953.3444
  -8496578.36649  -6612050.24448  20638191.6904   20638189.3784
      1747.4694
  -7334261.64248  -5711642.47744  22748104.2924   22748101.9874
      3482.6254
 04  9 10 15 54 29.9990000  0  5G 1G11G14G25G20
  -8841747.46749  -6880732.33348  20893191.4564   20893189.8354
      2139.4224
  -5507061.04349  -4285598.02047  21050578.4564   21050575.6514
       785.7664
   6642943.53849   5163644.22746  22102515.3004   22102513.4954
     -1953.1094
  -8522741.41249  -6632437.02648  20633212.9174   20633210.6554
      1740.9694
  -7386507.45348  -5752353.50444  22738162.4954   22738159.8084
      3483.4694
 04  9 10 15 54 44.9990000  0  5G 1G11G14G25G20
  -8873812.10949  -6905717.76747  20887089.8004   20887088.4254
      2135.8914
  -5518791.39949  -4294738.57347  21048346.2534   21048343.5154
       778.3134
   6672242.77949   5186474.78046  22108091.3944   22108089.0654
     -1953.3444
  -8548803.45449  -6652745.10748  20628253.5504   20628251.0034
      1734.0314
  -7438762.97748  -5793072.10044  22728218.4094   22728216.1204
      3483.9534
 04  9 10 15 54 59.9990000  0  5G 1G11G14G25G20
  -8905827.98049  -6930665.19547  20880997.6444   20880995.9054
      2132.8754
  -5530413.74649  -4303794.95347  21046134.6444   21046131.4524
       771.2814
   6701542.19049   5209305.46946  22113666.2924   22113664.8554
     -1953.2194
  -8574764.99849  -6672974.87148  20623313.2224   20623310.4804
      1727.4844
  -7491028.58948  -5833798.54444  22718273.0344   22718269.8274
      3484.7974
 04  9 10 15 55 14.9990000  0  5G 1G11G14G25G20
  -8937793.93049  -6955573.72347  20874914.6514   20874912.7494
      2129.4844
  -5541926.85149  -4312766.22447  21043943.5264   21043940.5814
       763.9224
   6730842.57749   5232136.90946  22119242.4014   22119240.5544
     -1953.3914
  -8600624.83049  -6693125.38448  20618392.3704   20618389.7454
      1720.6254
  -7543303.04948  -5874531.91044  22708325.2534   22708323.0814
      3485.2664
 04  9 10 15 55 29.9990000  0  5G 1G11G14G25G20
  -8969709.26449  -6980442.80748  20868841.3624   20868839.8624
      2126.1254
  -5553329.92849  -4321651.74847  21041773.8234   21041771.0464
       756.6884
   6760144.58249   5254969.61546  22124818.5584   22124816.9564
     -1953.3594
  -8626382.00649  -6713195.89348  20613490.9334   20613487.9724
      1713.8914
  -7595585.61548  -5915271.53244  22698375.7614   22698373.7614
      3485.9064
 04  9 10 15 55 44.9990000  0  5G 1G11G14G25G20
  -9001576.94549  -7005274.76348  20862777.2064   20862775.7104
      2122.7344
  -5564625.89949  -4330453.82047  21039624.6054   21039621.2724
       749.3284
   6789445.07349   5277801.13946  22130394.0734   22130392.3394
     -1953.5474
  -8652039.36749  -6733188.63248  20608608.1124   20608606.0934
      1706.9534
  -7647878.95048  -5956019.58544  22688425.3944   22688422.4444
      3486.4224
 04  9 10 15 55 59.9990000  0  5G 1G11G14G25G20
  -9033390.30749  -7030064.39547  20856723.2844   20856721.5544
      2119.1564
  -5575807.96249  -4339167.12447  21037496.6284   21037493.6474
       741.7194
   6818750.59548   5300636.57946  22135970.8394   22135968.7654
     -1953.7344
  -8677590.20049  -6753098.36048  20603746.3554   20603743.9604
      1699.9694
  -7700176.14548  -5996770.64944  22678473.4564   22678470.8624
      3486.7034
 04  9 10 15 56 14.9990000  0  5G 1G11G14G25G20
  -9065155.41049  -7054816.41548  20850678.7374   20850676.9604
      2116.2664
  -5586882.25549  -4347796.46047  21035388.9954   21035386.4994
       734.8284
   6848054.98949   5323471.14146  22141547.0894   22141545.7844
     -1953.3594
  -8703040.22949  -6772929.54548  20598903.1674   20598901.1674
      1693.4844
  -7752483.06748  -6037529.29944  22668519.5654   22668517.6324
      3487.6564
 04  9 10 15 56 29.9990000  0  5G 1G11G14G25G20
  -9096867.80749  -7079527.36147  20844643.9174   20844642.0624
      2112.3914
  -5597844.29749  -4356338.31747  21033302.7614   21033299.8554
       726.9844
   6877362.50649   5346308.14146  22147124.4174   22147122.6834
     -1954.0314
  -8728385.12949  -6792678.79848  20594080.2614   20594078.1204
      1686.1254
  -7804795.18348  -6078291.98344  22658564.7224   22658562.7414
      3487.6564
 04  9 10 15 56 44.9990000  0  5G 1G11G14G25G20
  -9128529.86149  -7104199.09147  20838618.9404   20838617.1404
      2109.1724
  -5608696.58749  -4364794.66247  21031238.1594   21031234.9954
       719.9844
   6906670.47048   5369145.48046  22152701.1054   22152699.8474
     -1953.7974
  -8753627.17649  -6812347.92048  20589276.8394   20589274.7304
      1679.4384
  -7857114.67448  -6119060.40144  22648608.6054   22648607.1244
      3488.3444
 04  9 10 15 56 59.9990000  0  5G 1G11G14G25G20
  -9160141.71049  -7128831.69447  20832603.0344   20832601.5854
      2105.7814
  -5619438.98549  -4373165.37847  21029193.9254   21029190.5034
       712.4844
   6935978.76648   5391983.07046  22158278.4334   22158277.0894
     -1953.8914
  -8778766.25149  -6831936.80948  20584492.8084   20584490.9404
      1672.4844
  -7909441.43148  -6159834.49444  22638651.3704   22638648.7764
      3488.6414
 04  9 10 15 57 14.9990000  0  5G 1G11G14G25G20
  -9191704.53349  -7153426.08848  20826596.7924   20826595.2804
      2102.2974
  -5630072.76048  -4381451.44547  21027170.2304   21027166.9724
       705.0314
   6965286.04548   5414819.88145  22163855.6124   22163854.1634
     -1954.0164
  -8803803.44849  -6851446.30148  20579728.4874   20579726.0934
      1665.5004
  -7961776.51648  -6200615.06544  22628692.2304   22628690.3394
      3488.9844
 04  9 10 15 57 29.9990000  0  5G 1G11G14G25G20
  -9223214.10849  -7177978.99948  20820600.9404   20820599.0694
      2099.1414
  -5640593.66848  -4389649.56747  21025168.2454   21025164.9914
       697.9694
   6994596.36048   5437659.05046  22169433.0974   22169431.5894
     -1953.7664
  -8828734.54149  -6870873.13148  20574984.4014   20574981.9094
      1658.8284
  -8014115.49648  -6241398.69644  22618732.6754   22618730.6124
      3489.7344
 04  9 10 15 57 44.9990000  0  6G 1G11G14G23G25G20
  -9254675.33949  -7202494.23247  20814614.0344   20814612.4374
      2095.9384
  -5651006.64849  -4397763.58847  21023186.5264   21023183.6794
       690.7344
   7023904.57248   5460496.57946  22175010.4564   22175008.2184
     -1953.6564
   -161704.98256   -104449.16653  23879296.4094   23879291.9294
      3641.3754
  -8853564.30049  -6890220.98148  20570259.2844   20570257.0854
      1652.0474
  -8066463.15648  -6282189.07244  22608771.3784   22608768.9644
      3490.3134
 04  9 10 15 57 59.9990000  0  6G 1G11G14G23G25G20
  -9286085.04349  -7226969.31947  20808636.8084   20808635.0194
      2092.6414
  -5661308.41149  -4405790.94347  21021226.3944   21021223.5034
       683.4224
   7053213.74248   5483334.85446  22180587.6204   22180586.1014
     -1953.6874
   -216317.72646   -147004.52043  23868903.6444   23868899.6084
      3640.9694
  -8878289.30149  -6909487.22148  20565554.2924   20565551.5974
      1645.2034
  -8118815.97748  -6322983.48644  22598808.2844   22598806.2454
      3490.7504
 04  9 10 15 58 14.9990000  0  6G 1G11G14G23G25G20
  -9317443.45949  -7251404.44148  20802669.4564   20802668.0504
      2089.1254
  -5671499.02849  -4413731.70247  21019287.0894   21019283.9404
       675.8914
   7082523.61148   5506173.67546  22186165.3704   22186163.5774
     -1953.7974
   -270923.88246   -189554.78043  23858512.6984   23858508.5694
      3640.4224
  -8902909.75549  -6928671.97948  20560869.4484   20560867.2374
      1638.0634
  -8171174.08248  -6363781.99944  22588845.1054   22588842.8744
      3490.9224
 04  9 10 15 58 29.9990000  0  6G 1G11G14G23G25G20
  -9348752.25649  -7275800.89048  20796711.6594   20796710.1474
      2085.6884
  -5681580.42649  -4421587.33447  21017368.6754   21017365.5734
       668.5314
   7111832.22448   5529011.52245  22191742.6904   22191740.7184
     -1953.8594
   -325525.05146   -232101.11243  23848121.6054   23848117.7224
      3640.0634
  -8927427.29349  -6947776.54148  20556203.4804   20556201.5624
      1631.1724
  -8223539.02248  -6404585.85145  22578880.9174   22578878.6164
      3491.2504
 04  9 10 15 58 44.9990000  0  6G 1G11G14G23G25G20
  -9380012.20349  -7300159.28847  20790763.3004   20790761.7534
      2082.4694
  -5691553.26049  -4429358.39047  21015471.3004   21015468.1164
       661.3444
   7141138.60448   5551847.63146  22197319.2144   22197317.1244
     -1953.5474
   -380121.94346   -274644.14043  23837732.4954   23837729.0034
      3639.7814
  -8951842.55849  -6966801.43048  20551557.5264   20551555.3004
      1624.3754
  -8275911.41848  -6445395.51345  22568915.1594   22568912.4404
      3491.8914
 04  9 10 15 58 59.9990000  0  6G 1G11G14G23G25G20
  -9411224.86549  -7324480.84347  20784823.5504   20784821.9174
      2079.2034
  -5701419.00649  -4437045.99447  21013593.4874   21013590.6904
       654.0474
   7170441.20648   5574680.78946  22202895.2304   22202893.3974
     -1953.4374
   -434716.06846   -317184.97743  23827343.7064   23827339.4404
      3639.4534
  -8976156.95049  -6985747.70948  20546930.5654   20546928.4604
      1617.5164
  -8328292.59248  -6486212.02245  22558946.8154   22558944.7964
      3492.2974
 04  9 10 15 59 14.9990000  0  6G 1G11G14G23G25G20
  -9442385.72349  -7348762.01648  20778893.6754   20778892.0224
      2075.8444
  -5711173.09949  -4444646.58947  21011737.1204   21011734.3784
       646.6724
   7199744.37448   5597514.39846  22208471.4484   22208469.7494
     -1953.4374
   -489302.86945   -359720.12342  23816954.5734   23816951.8354
      3638.8284
  -9000365.88049  -7004611.80048  20542323.5654   20542321.5464
      1610.5634
  -8380677.85848  -6527031.70845  22548977.9404   22548975.9374
      3492.6254
 04  9 10 15 59 29.9990000  0  6G 1G11G14G23G25G20
  -9473497.37849  -7373004.85748  20772973.5814   20772972.2724
      2072.8284
  -5720818.36649  -4452162.38647  21009901.9644   21009899.1874
       639.7664
   7229045.25248   5620346.20546  22214047.3784   22214046.1634
     -1952.9224
   -543884.75345   -402251.41742  23806568.0114   23806565.4254
      3638.8594
  -9024471.88349  -7023395.69848  20537736.5424   20537734.3044
      1603.9694
  -8433069.49648  -6567856.36045  22539008.3784   22539005.8514
      3493.3594
 04  9 10 15 59 44.9990000  0  6G 1G11G14G23G25G20
  -9504559.10949  -7397208.78848  20767062.3944   20767061.1324
      2068.9844
  -5730353.94449  -4459592.70947  21008087.5974   21008084.0384
       631.9224
   7258344.50948   5643176.76946  22219623.1594   22219621.7064
     -1953.3914
   -598460.88245   -444778.23743  23796183.0344   23796180.0894
      3637.9844
  -9048474.18849  -7042098.79048  20533169.2614   20533166.8194
      1596.5784
  -8485466.79248  -6608685.42545  22529037.5814   22529035.1404
      3493.2344
 04  9 10 15 59 59.9990000  0  6G 1G11G14G23G25G20
  -9535572.71949  -7421375.23348  20761161.2534   20761159.0934
      2065.7504
  -5739781.49349  -4466938.86147  21006293.1904   21006290.3004
       624.7344
   7287640.24148   5666004.57746  22225197.7304   22225196.1324
     -1953.1564
   -653033.10945   -487302.05243  23785798.2534   23785795.0774
      3638.0784
  -9072374.35749  -7060722.28948  20528621.0194   20528618.7064
      1589.7344
  -8537871.20748  -6649520.02645  22519065.5424   22519062.9374
      3493.6724
 04  9 10 16  0 14.9990000  0  6G 1G11G14G23G25G20
  -9566531.22349  -7445498.73148  20755269.7224   20755268.0974
      2062.1094
  -5749094.00848  -4474195.38047  21004521.3084   21004518.3904
       617.0474
   7316939.22248   5688834.91446  22230773.8314   22230771.5074
     -1953.2504
   -707594.03945   -529817.02243  23775415.8394   23775412.7334
      3637.0314
  -9096165.29449  -7079260.67248  20524093.8784   20524091.2414
      1582.4694
  -8590275.53948  -6690354.58245  22509093.4564   22509090.9294
      3493.6724
 04  9 10 16  0 29.9990000  0  6G 1G11G14G23G25G20
  -9597439.19249  -7469582.84948  20749387.8864   20749386.8704
      2059.5314
  -5758296.01949  -4481365.77047  21002770.4404   21002767.4604
       610.4384
   7346236.83148   5711664.18545  22236348.5974   22236346.6794
     -1952.4374
   -762148.31345   -572326.86142  23765034.0504   23765031.0504
      3637.4224
  -9119851.48449  -7097717.44348  20519586.5344   20519583.8864
      1576.2504
  -8642684.19848  -6731192.48745  22499120.1834   22499117.6164
      3494.7664
 04  9 10 16  0 44.9990000  0  6G 1G11G14G23G25G20
  -9628301.86249  -7493631.68148  20743515.1674   20743513.1834
      2055.7974
  -5767393.08149  -4488454.40147  21001039.0584   21001036.2964
       602.7034
   7375527.58848   5734488.12245  22241921.9644   22241920.9134
     -1952.8124
   -816701.06845   -614835.45442  23754653.2614   23754650.5894
      3636.5784
  -9143438.17949  -7116096.67648  20515098.2454   20515096.1164
      1568.9064
  -8695102.19948  -6772037.68345  22489144.8474   22489143.1634
      3494.5634
 04  9 10 16  0 59.9990000  0  6G 1G11G14G23G25G20
  -9659110.88749  -7517638.71148  20737652.3944   20737650.6404
      2052.1094
  -5776376.63449  -4495454.58647  20999329.7224   20999326.6904
       595.0164
   7404819.72748   5757313.13546  22247496.5584   22247494.6634
     -1952.8754
   -871243.78146   -657336.26143  23744275.2694   23744271.6834
      3635.8594
  -9166916.88749  -7134391.77148  20510630.1124   20510627.7694
      1561.6094
  -8747521.09948  -6812883.57445  22479169.6904   22479167.7024
      3494.5784
 04  9 10 16  1 14.9990000  0  6G 1G11G14G23G25G20
  -9689870.22349  -7541607.01048  20731798.7614   20731797.4684
      2049.2344
  -5785250.64149  -4502369.40847  20997641.0814   20997638.5424
       588.1564
   7434109.16348   5780136.03845  22253070.3154   22253068.3704
     -1952.3754
   -925780.51946   -699832.42142  23733896.4484   23733893.0694
      3635.9384
  -9190291.43349  -7152605.70048  20506182.2064   20506179.8584
      1555.0474
  -8799944.65948  -6853733.10645  22469194.4254   22469192.0734
      3495.3134
 04  9 10 16  1 29.9990000  0  6G 1G11G14G23G25G20
  -9720581.33049  -7565537.75048  20725955.2224   20725953.4484
      2045.6414
  -5794016.68349  -4509200.11247  20995973.2064   20995969.9094
       580.6094
   7463394.27249   5802955.56645  22258642.5114   22258641.2304
     -1952.3754
   -980312.46847   -742324.83043  23723519.2844   23723516.0814
      3635.1094
  -9213563.18649  -7170739.53148  20501753.9874   20501751.3784
      1547.8754
  -8852374.06647  -6894587.19445  22459217.2534   22459214.8514
      3495.3134
 04  9 10 16  1 44.9990000  0  6G 1G11G14G23G25G20
  -9751241.54149  -7589428.80748  20720120.6124   20720118.8154
      2042.2194
  -5802671.94449  -4515944.48247  20994325.8864   20994322.4214
       573.1884
   7492677.56948   5825773.68946  22264215.4174   22264213.6594
     -1952.2504
  -1034837.00547   -784811.48043  23713144.0584   23713140.8514
      3634.6094
  -9236729.49249  -7188791.19948  20497345.4404   20497343.1404
      1540.6884
  -8904806.54348  -6935443.66445  22449239.3864   22449237.8704
      3495.4844
 04  9 10 16  1 59.9990000  0  6G 1G11G14G23G25G20
  -9781854.42749  -7613282.99048  20714294.9484   20714293.1754
      2039.2504
  -5811219.88149  -4522605.21647  20992699.5034   20992696.3784
       566.2664
   7521955.41148   5848587.55845  22269787.0034   22269785.6754
     -1951.7034
  -1089357.53647   -827295.03643  23702768.7144   23702765.1714
      3634.5784
  -9259793.87749  -7206763.43948  20492956.6754   20492954.4604
      1534.1724
  -8957245.44548  -6976305.12545  22439260.7224   22439258.7574
      3496.0784
 04  9 10 16  2 14.9990000  0  6G 1G11G14G23G25G20
  -9812415.51749  -7637096.82248  20708479.5114   20708477.9214
      2035.4224
  -5819656.00749  -4529178.82847  20991094.1904   20991091.0504
       558.4064
   7551231.99349   5871400.45345  22275357.9484   22275356.4564
     -1952.0474
  -1143869.49547   -869771.88542  23692395.5654   23692391.8624
      3633.5474
  -9282751.71549  -7224652.65248  20488587.5424   20488585.7144
      1526.6564
  -9009686.15047  -7017168.01545  22429281.9014   22429279.5034
      3495.8134
 04  9 10 16  2 29.9990000  0  6G 1G11G14G23G25G20
  -9842923.65149  -7660869.39048  20702673.9564   20702672.2104
      2031.8134
  -5827979.28049  -4535664.50447  20989510.1204   20989507.1444
       550.7814
   7580508.48248   5894213.25545  22280928.6984   22280927.7264
     -1952.0784
  -1198371.51547   -912240.98643  23682024.4014   23682019.9954
      3632.8444
  -9305601.51849  -7242457.69248  20484239.5264   20484237.0194
      1519.3914
  -9062127.11648  -7058031.10445  22419302.4954   22419300.3434
      3495.7344
 04  9 10 16  2 44.9990000  0  6G 1G11G14G23G25G20
  -9873385.43449  -7684605.83948  20696877.2764   20696875.7144
      2028.8914
  -5836196.35948  -4542067.43547  20987946.6834   20987943.1084
       543.8284
   7609778.21548   5917020.80845  22286499.0814   22286497.6834
     -1951.4694
  -1252870.01847   -954707.35143  23671652.8084   23671650.2654
      3632.6884
  -9328349.92049  -7260183.71348  20479910.6124   20479908.2024
      1512.7814
  -9114574.84948  -7098899.46145  22409321.9954   22409319.9604
      3496.3134
 04  9 10 16  2 59.9990000  0  6G 1G11G14G23G25G20
  -9903799.62749  -7708305.20648  20691089.7374   20691087.8704
      2025.7814
  -5844305.81948  -4548386.50847  20986403.2764   20986400.3664
       536.7974
   7639042.22349   5939823.89645  22292067.7454   22292066.1594
     -1951.0004
  -1307363.91247   -997170.10843  23661283.5814   23661279.7494
      3632.5004
  -9350995.69149  -7277829.76348  20475601.1054   20475598.8904
      1506.0314
  -9167027.87247  -7139771.95145  22399340.4484   22399337.8124
      3496.7814
 04  9 10 16  3 14.9990000  0  6G 1G11G14G23G25G20
  -9934165.49449  -7731966.90648  20685311.3474   20685309.2184
      2022.7034
  -5852307.10749  -4554621.28747  20984880.7304   20984878.0934
       529.7664
   7668301.06448   5962622.95845  22297635.8944   22297633.5774
     -1950.4064
  -1361852.30847  -1039628.57143  23650914.3394   23650911.0114
      3632.2664
  -9373537.99449  -7295395.19348  20471311.5504   20471309.1084
      1499.3444
  -9219485.34248  -7180647.88345  22389358.3314   22389355.7724
      3497.2664
 04  9 10 16  3 29.9990000  0  6G 1G11G14G23G25G20
  -9964483.12749  -7755591.04248  20679542.4404   20679540.4724
      2019.4534
  -5860200.25249  -4560771.80747  20983378.8004   20983375.9254
       522.4844
   7697554.48848   5985417.80645  22303202.1904   22303200.3904
     -1950.0944
  -1416335.16747  -1082082.74243  23640546.6834   23640542.9834
      3631.9384
  -9395976.73649  -7312879.91648  20467041.4724   20467039.4334
      1492.4064
  -9271947.01848  -7221527.10245  22379375.1834   22379373.0694
      3497.4844
 04  9 10 16  3 44.9990000  0  6G 1G11G14G23G25G20
  -9994748.49349  -7779174.43948  20673782.4404   20673780.6834
      2016.2974
  -5867981.19749  -4566834.89647  20981898.3004   20981894.9834
       515.3134
   7726806.49448   6008211.52945  22308769.2304   22308767.2224
     -1949.7664
  -1470808.31547  -1124529.33143  23630180.1124   23630177.4404
      3631.5164
  -9418307.75049  -7330280.70048  20462792.1754   20462789.3944
      1485.4694
  -9324408.69748  -7262406.33045  22369392.0194   22369389.8154
      3497.8134
 04  9 10 16  3 59.9990000  0  6G 1G11G14G23G25G20
 -10024968.37449  -7802722.38748  20668031.8784   20668030.2494
      2013.3284
  -5875656.75249  -4572815.85747  20980437.5584   20980434.7654
       508.3594
   7756050.11948   6030998.73445  22314333.9484   22314331.9214
     -1949.1564
  -1525278.43447  -1166973.58043  23619816.3314   23619811.6284
      3631.4224
  -9440537.87949  -7347602.88248  20458561.7224   20458559.0734
      1478.8284
  -9376876.94448  -7303290.68245  22359407.5194   22359405.4724
      3498.2974
 04  9 10 16  4 14.9990000  0  6G 1G11G14G23G25G20
 -10055138.77749  -7826231.78948  20662290.9174   20662289.2414
      2010.1094
  -5883222.84249  -4578711.52747  20978997.9254   20978994.4644
       501.1414
   7785289.26548   6053782.45045  22319897.8314   22319896.6124
     -1948.7664
  -1579741.50847  -1209412.30543  23609451.6284   23609447.7884
      3631.1414
  -9462663.11349  -7364843.31548  20454351.8234   20454349.2614
      1471.8914
  -9429347.65147  -7344176.93745  22349422.6514   22349420.5774
      3498.5164
 04  9 10 16  4 29.9990000  0  6G 1G11G14G23G25G20
 -10085260.89849  -7849703.57548  20656558.7374   20656556.7924
      2006.3754
  -5890680.71249  -4584522.86847  20977578.6754   20977575.4914
       493.4384
   7814522.53748   6076561.57445  22325460.5734   22325459.6984
     -1948.8754
  -1634198.56347  -1251846.37343  23599089.0814   23599085.6444
      3630.1254
  -9484684.38349  -7382002.74548  20450160.9404   20450158.4334
      1464.4384
  -9481821.78148  -7385065.88045  22339436.8864   22339434.6874
      3498.1564
 04  9 10 16  4 44.9990000  0  6G 1G11G14G23G25G20
 -10115331.01749  -7873134.83848  20650836.7064   20650834.6904
      2003.0944
  -5898026.71949  -4590247.04247  20976180.7374   20976177.6324
       486.1884
   7843753.61448   6099339.00945  22331022.9334   22331021.6944
     -1948.5314
  -1688645.75547  -1294272.72243  23588727.9484   23588724.5034
      3629.6094
  -9506598.00749  -7399078.29648  20445991.1834   20445989.0074
      1457.3914
  -9534295.40748  -7425954.41445  22329451.5894   22329449.6474
      3498.3914
 04  9 10 16  4 59.9990000  0  6G 1G11G14G23G25G20
 -10145354.27149  -7896529.57148  20645123.3474   20645121.6514
      2000.0784
  -5905265.93249  -4595887.99947  20974803.2374   20974799.8704
       479.0944
   7872977.15848   6122110.57245  22336583.9644   22336582.8824
     -1947.9534
  -1743088.15047  -1336695.35143  23578367.7534   23578364.3274
      3629.4224
  -9528408.93549  -7416073.80648  20441840.5504   20441838.2574
      1450.6884
  -9586773.29547  -7466846.27045  22319465.5344   22319463.4214
      3498.7974
 04  9 10 16  5 14.9990000  0  6G 1G11G14G23G25G20
 -10175334.67949  -7919890.91148  20639418.0814   20639416.3354
      1997.4064
  -5912402.33349  -4601448.84147  20973445.0584   20973441.8004
       472.5314
   7902189.21348   6144873.17545  22342143.2614   22342141.9524
     -1946.8594
  -1797529.63247  -1379117.28743  23568007.9334   23568004.7694
      3629.5474
  -9550121.19749  -7432992.44448  20437708.8084   20437706.5814
      1444.4224
  -9639259.37048  -7507744.50345  22309478.1364   22309476.0814
      3499.5164
 04  9 10 16  5 29.9990000  0  6G 1G11G14G23G25G20
 -10205266.47049  -7943214.38248  20633722.3394   20633720.3944
      1993.7034
  -5919430.33749  -4606925.22547  20972107.7374   20972104.7964
       464.7194
   7931395.26348   6167631.09645  22347701.0584   22347699.1324
     -1947.0164
  -1851964.49047  -1421534.05143  23557649.4094   23557646.4524
      3628.6564
  -9571728.99249  -7449829.69248  20433597.1984   20433594.6714
      1436.8594
  -9691747.69147  -7548644.51845  22299489.6594   22299487.1364
      3499.1884
 04  9 10 16  5 44.9990000  0  6G 1G11G14G23G25G20
 -10235154.78749  -7966503.97148  20628034.9564   20628033.1834
      1991.0314
  -5926355.00649  -4612321.09447  20970789.8624   20970786.8584
       458.0634
   7960589.99648   6190380.19945  22353256.7374   22353255.0424
     -1946.1094
  -1906397.63948  -1463949.47643  23547291.2614   23547288.0074
      3628.7344
  -9593237.46349  -7466589.53848  20429504.1444   20429501.6904
      1430.4224
  -9744243.21748  -7589550.08745  22289499.9804   22289497.7334
      3499.8134
 04  9 10 16  5 59.9990000  0  6G 1G11G14G23G25G20
 -10264997.63949  -7989758.12848  20622356.0194   20622354.5194
      1988.0634
  -5933174.23148  -4617634.78447  20969492.2924   20969489.1834
       451.1254
   7989775.34448   6213121.99445  22358810.5424   22358808.4444
     -1945.3754
  -1960826.96648  -1506361.94943  23536933.7924   23536930.1874
      3628.5474
  -9614644.36249  -7483270.22848  20425430.3474   20425427.8704
      1423.7504
  -9796743.68248  -7630459.54445  22279509.5734   22279507.1324
      3500.1884
 04  9 10 16  6 14.9990000  0  6G 1G11G14G23G25G20
 -10294791.49949  -8012974.11148  20616686.1834   20616684.7304
      1984.5474
  -5939884.53649  -4622863.60247  20968215.2144   20968212.1874
       443.6564
   8018954.77648   6235859.18045  22364362.8004   22364361.5264
     -1945.2664
  -2015248.86547  -1548768.61743  23526577.8554   23526574.0504
      3627.7664
  -9635946.10849  -7499868.99148  20421376.9874   20421374.5694
      1416.5314
  -9849245.37848  -7671369.94445  22269518.8784   22269516.7304
      3500.0474
 04  9 10 16  6 29.9990000  0  6G 1G11G14G23G25G20
 -10324535.11649  -8036150.96448  20611026.2534   20611024.8314
      1981.3914
  -5946484.86149  -4628006.74247  20966959.4334   20966956.3434
       436.5634
   8048129.35648   6258592.57545  22369914.6204   22369913.3044
     -1944.6564
  -2069661.94148  -1591168.43743  23516223.2144   23516219.5194
      3627.3754
  -9657141.41949  -7516384.81248  20417343.3314   20417341.0114
      1409.6724
  -9901746.84748  -7712280.18345  22259527.9874   22259526.0734
      3500.2034
 04  9 10 16  6 44.9990000  0  6G 1G11G14G23G25G20
 -10354228.67649  -8059288.79748  20605375.7924   20605373.9254
      1978.7504
  -5952975.37549  -4633064.29547  20965724.3704   20965721.3904
       429.8134
   8077298.72149   6281321.92845  22375466.0034   22375464.2304
     -1943.6874
  -2124066.31348  -1633561.46643  23505869.6444   23505865.9954
      3627.4694
  -9678230.27649  -7532817.69248  20413330.5034   20413328.1324
      1403.1414
  -9954248.03148  -7753190.19245  22249537.3474   22249535.2144
      3500.8284
 04  9 10 16  6 59.9990000  0  6G 1G11G14G23G25G20
 -10383878.63849  -8082392.65148  20599733.3944   20599731.7964
      1974.9844
  -5959362.42549  -4638041.23047  20964508.7614   20964505.7614
       422.2194
   8106456.33849   6304042.11145  22381014.4874   22381013.1204
     -1943.6254
  -2178468.36647  -1675952.66843  23495517.5654   23495514.3234
      3626.5164
  -9699219.21049  -7549172.70148  20409336.4804   20409334.1634
      1395.7814
 -10006755.22948  -7794104.87945  22239545.9174   22239543.4564
      3500.4224
 04  9 10 16  7 14.9990000  0  6G 1G11G14G23G25G20
 -10413480.25949  -8105458.85648  20594100.5814   20594098.7804
      1972.0474
  -5965641.33149  -4642933.89647  20963313.7764   20963311.0384
       415.2034
   8135606.83948   6326756.73445  22386560.9954   22386559.9684
     -1942.9224
  -2232863.24948  -1718338.31943  23485167.2224   23485163.3154
      3626.2814
  -9720103.42849  -7565446.11448  20405362.2694   20405360.1364
      1389.0004
 -10059263.41448  -7835020.36845  22229553.8864   22229551.4764
      3500.7814
 04  9 10 16  7 29.9990000  0  6G 1G11G14G23G25G20
 -10443032.53049  -8128486.59548  20588476.8554   20588475.1794
      1968.6414
  -5971811.05349  -4647741.48647  20962139.7694   20962136.9914
       407.7194
   8164751.08849   6349466.51145  22392107.1904   22392105.4874
     -1942.7034
  -2287249.87747  -1760717.48243  23474817.2374   23474813.7414
      3625.5634
  -9740881.83249  -7581637.08548  20401408.3004   20401406.1714
      1381.8134
 -10111771.37648  -7875935.65545  22219561.9334   22219559.7454
      3500.6564
 04  9 10 16  7 44.9990000  0  6G 1G11G14G23G25G20
 -10472534.94049  -8151475.48248  20582862.8234   20582861.1324
      1965.3134
  -5977871.19549  -4652463.67547  20960986.9014   20960984.1324
       400.5164
   8193889.51949   6372171.74545  22397651.9644   22397650.9174
     -1942.2344
  -2341627.64447  -1803089.79443  23464469.3084   23464466.1014
      3625.0004
  -9761553.81949  -7597745.12748  20397474.5424   20397472.2374
      1374.7194
 -10164278.39348  -7916850.21145  22209569.7764   22209567.6554
      3500.5314
 04  9 10 16  7 59.9990000  0  6G 1G11G14G23G25G20
 -10501990.07549  -8174427.53748  20577257.8784   20577256.0344
      1962.0784
  -5983824.28649  -4657102.45947  20959853.8944   20959850.7804
       393.2504
   8223019.45549   6394870.36445  22403195.5424   22403193.6054
     -1941.7194
  -2395998.93847  -1845457.01343  23454122.6754   23454119.3904
      3624.5474
  -9782121.80649  -7613772.11648  20393560.3554   20393558.0504
      1367.7034
 -10216786.79348  -7957765.83845  22199577.7224   22199575.8744
      3500.4844
 04  9 10 16  8 14.9990000  0  6G 1G11G14G23G25G20
 -10531396.90749  -8197341.94548  20571661.7844   20571659.9524
      1959.0004
  -5989669.45749  -4661657.15947  20958741.8554   20958738.6944
       386.2504
   8252141.76248   6417563.01945  22408737.2534   22408735.8554
     -1941.0004
  -2450362.71047  -1887818.39243  23443777.5814   23443774.4404
      3624.1724
  -9802584.81349  -7629717.31748  20389666.6984   20389664.0344
      1360.8134
 -10269295.38148  -7998681.62845  22189585.9014   22189583.6084
      3500.7034
 04  9 10 16  8 29.9990000  0  6G 1G11G14G23G25G20
 -10560755.56449  -8220218.81748  20566075.0114   20566073.1944
      1955.9384
  -5995406.68248  -4666127.74247  20957650.1284   20957647.5194
       379.2034
   8281256.29048   6440249.63645  22414277.4254   22414276.3554
     -1940.3914
  -2504718.98547  -1930173.89643  23433433.9174   23433431.0814
      3623.7344
  -9822942.79049  -7645580.66848  20385792.8314   20385790.2924
      1353.9694
 -10321803.99848  -8039597.42845  22179593.6834   22179592.1164
      3500.8594
 04  9 10 16  8 44.9990000  0  6G 1G11G14G23G25G20
 -10590065.66049  -8243057.85048  20560497.6984   20560496.0654
      1952.1724
  -6001035.75449  -4670514.05547  20956578.6834   20956575.8084
       371.4064
   8310363.21449   6462930.30845  22419816.7924   22419815.2024
     -1940.4374
  -2559067.23247  -1972523.16143  23423092.0344   23423089.0624
      3622.7974
  -9843195.38049  -7661361.91348  20381938.5734   20381936.0224
      1346.4694
 -10374312.12248  -8080512.84745  22169601.9874   22169599.5194
      3500.3134
 04  9 10 16  8 59.9990000  0  6G 1G11G14G23G25G20
 -10619326.37649  -8265858.40948  20554929.3314   20554927.5424
      1949.0314
  -6006555.83249  -4674815.44047  20955528.5114   20955525.5694
       364.3444
   8339463.27249   6485605.65245  22425354.2064   22425352.3744
     -1939.8284
  -2613406.35247  -2014865.30243  23412751.2614   23412748.9334
      3622.2194
  -9863341.76149  -7677060.37948  20378104.7764   20378102.3154
      1339.5474
 -10426818.65548  -8121427.02445  22159610.0814   22159608.1634
      3500.3594
 04  9 10 16  9 14.9990000  0  6G 1G11G14G23G25G20
 -10648536.77949  -8288619.76548  20549370.8554   20549368.8704
      1945.4694
  -6011965.86748  -4679031.06747  20954499.0194   20954496.3194
       356.7504
   8368557.24649   6508276.24745  22430890.5584   22430888.5974
     -1939.5164
  -2667735.46447  -2057199.66043  23402413.3624   23402409.7724
      3621.4064
  -9883380.87849  -7692675.27348  20374291.3154   20374289.2024
      1332.1884
 -10479322.40449  -8162339.04245  22149619.3784   22149617.1014
      3499.9694
 04  9 10 16  9 29.9990000  0  6G 1G11G14G23G25G20
 -10677698.96549  -8311343.54948  20543821.6054   20543819.5974
      1942.5474
  -6017268.12049  -4683162.70247  20953489.8004   20953486.9644
       349.9384
   8397642.96449   6530940.40145  22436425.2374   22436423.9764
     -1938.6724
  -2722056.75347  -2099527.91644  23392075.9174   23392072.7104
      3621.2504
  -9903314.64849  -7708208.08748  20370498.2534   20370495.7104
      1325.5004
 -10531825.37649  -8203250.44145  22139628.2614   22139626.4914
      3500.2344
 04  9 10 16  9 44.9990000  0  6G 1G11G14G23G25G20
 -10706816.47749  -8334032.51248  20538280.7374   20538279.0114
      1939.8444
  -6022466.03748  -4687213.04247  20952500.7764   20952497.8514
       343.2504
   8426716.86048   6553595.34945  22441957.9644   22441957.0194
     -1937.7034
  -2776373.37447  -2141852.52843  23381740.5424   23381736.8784
      3621.0784
  -9923146.66049  -7723661.59548  20366724.3004   20366721.9014
      1318.8594
 -10584330.68249  -8244163.66745  22129636.9094   22129635.1084
      3500.5634
 04  9 10 16  9 59.9990000  0  6G 1G11G14G23G25G20
 -10735888.60549  -8356686.12448  20532748.1834   20532747.0154
      1936.3594
  -6027558.97549  -4691181.58847  20951531.6204   20951528.6754
       335.7664
   8455779.54649   6576241.56245  22447488.2924   22447487.1404
     -1937.4374
  -2830684.57647  -2184172.92644  23371404.8624   23371402.4404
      3620.3284
  -9942876.18249  -7739035.24748  20362969.7764   20362967.5154
      1311.6414
 -10636837.52649  -8285078.10145  22119645.2144   22119642.6554
      3500.2344
 04  9 10 16 10 14.9990000  0  6G 1G11G14G23G25G20
 -10764908.50849  -8379299.03348  20527226.0114   20527224.2694
      1932.4534
  -6032540.21149  -4695063.10547  20950584.0654   20950581.2144
       327.9534
   8484837.60848   6598884.15745  22453017.7304   22453016.8084
     -1937.4374
  -2884983.59147  -2226483.83444  23361072.1834   23361068.4724
      3619.1884
  -9962496.29249  -7754323.64748  20359236.2694   20359233.8554
      1303.9224
 -10689338.86049  -8325988.22045  22109654.5504   22109652.4994
      3499.5004
 04  9 10 16 10 29.9990000  0  6G 1G11G14G23G25G20
 -10793880.76549  -8401874.81548  20521712.6054   20521710.9914
      1930.3284
  -6037414.37049  -4698861.18047  20949656.2764   20949653.3824
       321.8134
   8513886.31648   6621519.48245  22458545.5894   22458544.3974
     -1935.7974
  -2939274.79848  -2268788.66144  23350741.4874   23350737.4134
      3619.6254
  -9982011.57549  -7769530.34448  20355522.8004   20355520.2494
      1297.9694
 -10741838.99949  -8366897.42445  22099663.7924   22099661.6634
      3500.4224
 04  9 10 16 10 44.9990000  0  6G 1G11G14G23G25G20
 -10822806.19749  -8424414.11548  20516208.4954   20516206.7104
      1926.5314
  -6042182.25949  -4702576.46947  20948748.8004   20948745.6364
       314.0314
   8542924.82248   6644146.85945  22464071.8704   22464070.3664
     -1935.8444
  -2993558.95348  -2311087.98744  23340411.4174   23340407.3154
      3618.4064
 -10001422.70649  -7784655.91148  20351828.8394   20351826.7884
      1290.3444
 -10794338.57849  -8407806.19145  22089673.8234   22089671.4644
      3499.7034
 04  9 10 16 10 59.9990000  0  6G 1G11G14G23G25G20
 -10851682.21149  -8446914.91048  20510713.6674   20510711.7104
      1923.3914
  -6046841.42049  -4706207.01647  20947862.3004   20947859.1444
       306.9384
   8571955.61048   6666768.22845  22469595.6984   22469594.1674
     -1935.1724
  -3047833.32148  -2353379.69244  23330083.5894   23330079.7694
      3617.9844
 -10020727.01549  -7799698.22748  20348155.5114   20348153.1674
      1283.4064
 -10846834.79249  -8448712.33345  22079683.5504   22079681.3974
      3499.6094
 04  9 10 16 11 14.9990000  0  6G 1G11G14G23G25G20
 -10880509.10349  -8469377.42248  20505228.0034   20505225.8354
      1920.3594
  -6051392.24448  -4709753.13447  20946996.6124   20946993.4484
       299.9694
   8600978.23048   6689383.21745  22475118.8944   22475117.8704
     -1934.4694
  -3102098.08648  -2395663.91943  23319757.0654   23319752.8514
      3617.5474
 -10039924.77249  -7814657.52148  20344502.0654   20344499.7614
      1276.5314
 -10899327.67949  -8489615.88345  22069694.9804   22069692.4644
      3499.6414
 04  9 10 16 11 29.9990000  0  6G 1G11G14G23G25G20
 -10909291.37649  -8491805.15748  20499751.0504   20499749.2614
      1917.3594
  -6055838.87949  -4713218.05547  20946150.5034   20946147.4604
       293.0164
   8629988.21949   6711988.37544  22480639.5114   22480637.8624
     -1933.5944
  -3156357.53348  -2437943.99844  23309431.8474   23309428.0424
      3617.1254
 -10059020.29549  -7829537.13748  20340868.5344   20340866.0264
      1269.6414
 -10951821.42149  -8530520.10345  22059705.3394   22059703.3974
      3499.6414
 04  9 10 16 11 44.9990000  0  6G 1G11G14G23G25G20
 -10938028.39349  -8514197.64648  20494282.4174   20494280.5264
      1914.0474
  -6060180.87349  -4716601.45047  20945324.2064   20945321.1054
       285.7194
   8658985.98948   6734584.00645  22486157.4954   22486155.9954
     -1932.9224
  -3210611.05047  -2480219.47744  23299107.4014   23299104.0854
      3616.5314
 -10078013.05749  -7844336.69948  20337254.3234   20337251.8704
      1262.5314
 -11004315.18949  -8571424.33745  22049716.3944   22049713.5544
      3499.3914
 04  9 10 16 11 59.9990000  0  6G 1G11G14G23G25G20
 -10966717.61249  -8536552.88448  20488823.0584   20488821.0894
      1911.0474
  -6064415.69549  -4719901.32447  20944518.2454   20944515.6404
       278.7974
   8687974.03349   6757172.05045  22491673.4564   22491672.3904
     -1932.1564
  -3264855.93647  -2522488.20743  23288784.3624   23288781.7224
      3616.0634
 -10096900.41849  -7859054.11148  20333660.4404   20333657.8974
      1255.6724
 -11056806.25749  -8612326.47845  22039727.5734   22039725.0624
      3499.3444
 04  9 10 16 12 14.9990000  0  6G 1G11G14G23G25G20
 -10995358.19049  -8558870.21148  20483372.8004   20483371.1014
      1907.7974
  -6068542.57249  -4723117.08647  20943732.8624   20943730.0734
       271.5314
   8716953.19648   6779753.18045  22497188.0654   22497187.1084
     -1931.5944
  -3319091.29948  -2564749.51744  23278464.1364   23278460.0774
      3615.4064
 -10115681.38049  -7873688.62048  20330086.2764   20330084.1674
      1248.5314
 -11109293.47349  -8653225.59345  22029739.5584   22029736.7804
      3499.0314
 04  9 10 16 12 29.9990000  0  6G 1G11G14G23G25G20
 -11023951.23849  -8581150.51748  20477931.7224   20477930.1754
      1904.8444
  -6072562.80949  -4726249.75647  20942967.8864   20942965.1364
       264.7194
   8745922.21748   6802326.40845  22502700.6284   22502699.7184
     -1930.6874
  -3373318.09348  -2607004.16144  23268144.4804   23268141.9174
      3614.9844
 -10134357.14449  -7888241.16248  20326532.6674   20326529.7724
      1241.8284
 -11161777.70549  -8694122.38945  22019752.3084   22019749.8124
      3499.0474
 04  9 10 16 12 44.9990000  0  6G 1G11G14G23G25G20
 -11052500.80949  -8603396.91648  20472498.8784   20472497.0264
      1902.1094
  -6076480.50449  -4729302.51047  20942222.4564   20942219.8124
       257.9844
   8774876.89448   6824888.47644  22508211.1834   22508209.3664
     -1929.6414
  -3427540.20148  -2649255.13943  23257826.7694   23257824.1404
      3614.8444
 -10152931.64549  -7902714.79648  20322997.5814   20322995.2304
      1235.1094
 -11214262.81549  -8735019.87146  22009764.6054   22009762.5154
      3499.1884
 04  9 10 16 12 59.9990000  0  6G 1G11G14G23G25G20
 -11081005.90349  -8625608.68548  20467074.2614   20467072.6474
      1899.0474
  -6080294.40949  -4732274.40147  20941496.4804   20941494.0584
       251.0314
   8803818.20348   6847440.10844  22513718.0264   22513716.9914
     -1928.7344
  -3481756.63948  -2691501.70444  23247510.1984   23247506.0264
      3614.4694
 -10171403.84349  -7917108.71848  20319482.6204   20319479.7334
      1228.2664
 -11266747.51749  -8775917.04145  21999777.1124   21999774.7964
      3499.1564
 04  9 10 16 13 14.9990000  0  6G 1G11G14G23G25G20
 -11109466.96749  -8647786.14548  20461658.5584   20461656.9604
      1895.9844
  -6084005.06949  -4735165.84447  20940790.3004   20940787.2374
       244.0004
   8832745.57648   6869980.89944  22519223.3784   22519222.0854
     -1927.9844
  -3535967.70448  -2733744.08644  23237193.6674   23237190.1874
      3613.9224
 -10189774.05949  -7931423.16748  20315986.6444   20315983.9404
      1221.2034
 -11319232.10749  -8816814.12745  21989789.6834   21989787.3354
      3499.0314
 04  9 10 16 13 29.9990000  0  6G 1G11G14G23G25G20
 -11137882.71549  -8669928.27548  20456251.1054   20456249.3354
      1893.0004
  -6087611.35849  -4737975.94747  20940104.0034   20940101.4764
       237.0314
   8861660.14748   6892511.70144  22524724.9014   22524724.2534
     -1927.1094
  -3590171.98248  -2775981.18644  23226879.0814   23226876.0224
      3613.5784
 -10208041.11149  -7945657.22448  20312510.6594   20312507.9174
      1214.4694
 -11371714.99849  -8857709.87345  21979802.6204   21979800.3514
      3498.9384
 04  9 10 16 13 44.9990000  0  6G 1G11G14G23G25G20
 -11166248.08649  -8692031.15648  20450853.2764   20450851.9294
      1889.6564
  -6091108.25649  -4740700.80847  20939438.8784   20939436.4214
       229.8134
   8890566.82948   6915036.35844  22530225.9724   22530224.8154
     -1926.5004
  -3644364.43748  -2818209.05344  23216566.4404   23216563.1594
      3612.7034
 -10226199.87849  -7959806.90548  20309055.3234   20309052.8274
      1207.3134
 -11424190.96449  -8898600.23545  21969816.7064   21969814.0934
      3498.4694
 04  9 10 16 13 59.9990000  0  6G 1G11G14G23G25G20
 -11194566.27549  -8714097.27948  20445464.6674   20445462.8194
      1886.0634
  -6094498.99848  -4743342.96547  20938793.9014   20938790.8354
       222.2974
   8919462.42648   6937552.36244  22535724.7304   22535723.7804
     -1926.2344
  -3698548.09048  -2860430.09944  23206256.0974   23206252.2264
      3611.7034
 -10244253.53949  -7973874.69548  20305619.8084   20305617.2104
      1199.8754
 -11476662.94449  -8939487.49245  21959831.6054   21959829.2104
      3497.7504
 04  9 10 16 14 14.9990000  0  6G 1G11G14G23G25G20
 -11222838.00249  -8736127.20148  20440084.6594   20440083.0034
      1883.3594
  -6097784.38549  -4745903.02247  20938168.3084   20938166.2104
       215.6094
   8948346.13848   6960059.12344  22541220.8234   22541219.7694
     -1925.0164
  -3752723.47348  -2902644.66644  23195946.9804   23195943.5304
      3611.5944
 -10262202.63749  -7987861.00748  20302204.3784   20302201.7184
      1193.2344
 -11529131.38949  -8980371.98945  21949847.0584   21949844.7144
      3497.8754
 04  9 10 16 14 29.9990000  0  6G 1G11G14G23G25G20
 -11251061.26649  -8758119.34548  20434713.9724   20434712.4724
      1880.7504
  -6100962.39849  -4748379.40947  20937563.8084   20937560.6404
       209.0784
   8977219.84548   6982558.08144  22546715.5654   22546714.2764
     -1923.7974
  -3806888.50548  -2944851.18444  23185639.7534   23185635.8784
      3611.4064
 -10280045.16349  -8001764.26548  20298809.0504   20298806.7184
      1186.7664
 -11581594.06649  -9021251.98845  21939863.5654   21939861.2724
      3498.0784
 04  9 10 16 14 44.9990000  0  6G 1G11G14G23G25G20
 -11279239.91049  -8780076.72548  20429351.8234   20429350.1984
      1877.2194
  -6104036.98048  -4750775.21647  20936978.8234   20936975.9914
       201.5784
   9006079.56448   7005046.16244  22552207.6284   22552206.1284
     -1923.4064
  -3861046.89448  -2987052.52044  23175333.7764   23175329.7264
      3610.4844
 -10297785.02649  -8015587.53548  20295433.2374   20295430.5654
      1179.3284
 -11634054.49849  -9062130.24845  21929881.0734   21929878.7574
      3497.4534
 04  9 10 16 14 59.9990000  0  6G 1G11G14G23G25G20
 -11307375.22049  -8802000.34748  20423997.9254   20423996.4834
      1874.2974
  -6107009.47849  -4753091.47847  20936412.9094   20936409.9404
       194.7974
   9034924.02948   7027522.29944  22557696.5344   22557695.5034
     -1922.5624
  -3915199.87248  -3029249.63244  23165029.3154   23165025.2334
      3610.0004
 -10315423.39649  -8029331.71548  20292076.5584   20292074.7144
      1172.5634
 -11686513.76749  -9103007.58945  21919898.3624   21919896.0584
      3497.2194
 04  9 10 16 15 14.9990000  0  6G 1G11G14G23G25G20
 -11335465.14549  -8823888.59748  20418652.9014   20418650.9054
      1870.9064
  -6109877.92149  -4755326.65847  20935867.5814   20935864.5544
       187.4694
   9063755.18248   7049988.10044  22563182.8084   22563181.7534
     -1921.8754
  -3969345.27648  -3071440.84144  23154725.1594   23154721.0384
      3609.2344
 -10332958.12049  -8042995.12948  20288739.8784   20288737.1124
      1165.2664
 -11738969.65649  -9143882.30045  21909916.1834   21909914.1084
      3496.6724
 04  9 10 16 15 29.9990000  0  6G 1G11G14G23G25G20
 -11363512.19649  -8845743.44548  20413315.4094   20413313.9254
      1868.5474
  -6112644.75849  -4757482.66847  20935340.7844   20935338.4014
       181.2504
   9092570.27648   7072441.40144  22568666.6124   22568665.3154
     -1920.3284
  -4023485.56948  -3113628.08244  23144422.6124   23144417.9214
      3609.5004
 -10350391.71649  -8056579.75348  20285422.2764   20285419.5464
      1159.0634
 -11791424.42749  -9184756.14546  21899934.3314   21899932.2964
      3497.0634
 04  9 10 16 15 44.9990000  0  6G 1G11G14G23G25G20
 -11391510.63349  -8867560.40648  20407987.7374   20407986.0304
      1865.0474
  -6115304.32049  -4759555.09347  20934834.7144   20934831.9334
       173.8284
   9121375.04948   7094886.64444  22574147.8624   22574145.9764
     -1920.0004
  -4077614.86348  -3155806.74444  23134122.0034   23134118.8584
      3608.2664
 -10367718.46149  -8070081.11048  20282124.9804   20282122.1474
      1151.6094
 -11843872.02449  -9225624.39346  21889954.3084   21889952.0584
      3496.2974
 04  9 10 16 15 59.9990000  0  6G 1G11G14G23G25G20
 -11419464.05149  -8889342.28448  20402668.2534   20402666.4484
      1861.8594
  -6117860.33649  -4761546.81647  20934348.1284   20934345.3864
       166.7974
   9150165.82348   7117320.99544  22579626.5894   22579625.6054
     -1919.1414
  -4131736.67448  -3197979.55944  23123822.5264   23123819.3154
      3607.6414
 -10384941.93149  -8083501.99348  20278847.4334   20278845.0034
      1144.6564
 -11896315.84849  -9266489.71446  21879974.2844   21879971.9954
      3495.9384
 04  9 10 16 16 14.9990000  0  6G 1G11G14G23G25G20
 -11447372.62249  -8911089.21748  20397357.1754   20397355.7334
      1859.1414
  -6120312.94748  -4763457.97347  20933881.5654   20933878.7614
       160.1884
   9178942.36848   7139744.24644  22585102.5264   22585101.3394
     -1917.7974
  -4185851.04248  -3240146.59444  23113525.3624   23113521.3944
      3607.4224
 -10402062.14549  -8096842.42148  20275590.0034   20275587.6514
      1137.9844
 -11948755.83649  -9307352.02846  21869995.3624   21869992.8124
      3495.9224
 04  9 10 16 16 29.9990000  0  6G 1G11G14G23G25G20
 -11475232.66849  -8932798.34048  20392055.3784   20392054.0344
      1855.7814
  -6122658.49049  -4765285.69047  20933435.2064   20933432.8194
       152.8444
   9207708.24648   7162159.18244  22590576.2694   22590575.0344
     -1917.3444
  -4239954.11248  -3282304.81844  23103229.7614   23103226.1634
      3606.6094
 -10419075.51749  -8110099.58548  20272352.1204   20272349.6634
      1130.7034
 -12001188.00149  -9348208.26446  21860017.6674   21860015.1244
      3495.3444
 04  9 10 16 16 44.9990000  0  6G 1G11G14G23G25G20
 -11503050.39549  -8954474.50048  20386762.0344   20386760.3744
      1853.4694
  -6124903.37849  -4767034.99747  20933007.9644   20933005.4094
       146.6254
   9236457.11647   7184560.84344  22596047.2534   22596046.3234
     -1915.7504
  -4294052.11448  -3324459.08544  23092935.1674   23092931.9254
      3606.6724
 -10435988.21049  -8123278.30248  20269133.8944   20269131.2654
      1124.5004
 -12053618.35249  -9389063.08646  21850040.5504   21850038.3864
      3495.6724
 04  9 10 16 16 59.9990000  0  6G 1G11G14G23G25G20
 -11530821.00749  -8976113.94748  20381477.6674   20381475.6674
      1849.7034
  -6127042.78049  -4768702.08647  20932600.9484   20932598.0934
       139.0164
   9265193.68848   7206952.95144  22601515.9564   22601514.3514
     -1915.4064
  -4348140.09448  -3366605.57144  23082642.9014   23082638.6404
      3605.4694
 -10452795.47249  -8136374.86948  20265935.5114   20265933.2334
      1116.9064
 -12106041.86749  -9429912.57846  21840064.7374   21840062.2614
      3494.5474
 04  9 10 16 17 14.9990000  0  6G 1G11G14G23G25G20
 -11558545.58449  -8997717.49748  20376201.7144   20376200.1014
      1846.9224
  -6129077.85049  -4770287.87047  20932213.9334   20932211.0264
       132.3284
   9293916.88647   7229334.64844  22606981.3154   22606980.5464
     -1914.3444
  -4402218.96248  -3408744.93144  23072352.2924   23072348.6284
      3605.0474
 -10469498.29649  -8149390.05348  20262757.1364   20262754.6634
      1110.2974
 -12158459.36749  -9470757.37646  21830089.9804   21830087.6674
      3494.4224
 04  9 10 16 17 29.9990000  0  6G 1G11G14G23G25G20
 -11586229.12049  -9019289.08448  20370933.6904   20370932.5854
      1844.0784
  -6131013.61749  -4771796.27547  20931845.5344   20931842.7184
       125.6884
   9322621.43747   7251701.78944  22612443.5264   22612442.7104
     -1913.0784
  -4456293.68048  -3450881.06544  23062061.8704   23062057.8314
      3604.7974
 -10486101.52149  -8162327.62248  20259597.4484   20259595.1594
      1103.5314
 -12210875.52749  -9511601.11846  21820115.6364   21820113.2454
      3494.2194
 04  9 10 16 17 44.9990000  0  6G 1G11G14G23G25G20
 -11613870.95649  -9040828.17448  20365673.6124   20365671.9054
      1841.3594
  -6132849.46249  -4773226.82547  20931496.1834   20931493.6324
       118.9694
   9351308.14347   7274055.02244  22617901.9954   22617901.0734
     -1911.9534
  -4510363.45048  -3493013.34544  23051772.2304   23051768.6834
      3604.4384
 -10502604.44149  -8175187.04548  20256457.2374   20256454.8194
      1096.8134
 -12263289.41249  -9552443.11946  21810141.2694   21810139.2454
      3494.1254
 04  9 10 16 17 59.9990000  0  6G 1G11G14G23G25G20
 -11641464.15349  -9062329.35948  20360422.4724   20360420.8704
      1838.2194
  -6134578.49349  -4774574.14247  20931167.1444   20931164.5424
       112.0004
   9379983.82148   7296399.66844  22623358.9404   22623357.8784
     -1911.1724
  -4564421.29948  -3535136.34444  23041485.2614   23041482.0544
      3603.6564
 -10519000.16649  -8187962.93048  20253337.5424   20253334.5814
      1089.7034
 -12315693.96949  -9593277.82846  21800169.3554   21800166.9724
      3493.5474
 04  9 10 16 18 14.9990000  0  6G 1G11G14G23G25G20
 -11669011.41449  -9083794.76148  20355180.7144   20355178.8514
      1835.3134
  -6136203.64449  -4775840.51747  20930857.6754   20930855.1714
       105.2344
   9408645.65047   7318733.53644  22628814.0504   22628812.2534
     -1909.9534
  -4618469.66547  -3577251.91744  23031200.3784   23031196.6474
      3603.2344
 -10535291.51549  -8200657.49248  20250237.1754   20250234.4294
      1083.0314
 -12368091.63849  -9634107.18246  21790198.4874   21790195.8824
      3493.2814
 04  9 10 16 18 29.9990000  0  6G 1G11G14G23G25G20
 -11696516.02249  -9105226.92548  20349946.6364   20349945.0894
      1832.0944
  -6137728.11349  -4777028.43447  20930567.5974   20930565.1474
        98.1254
   9437290.27447   7341053.98444  22634264.4334   22634263.5344
     -1909.3124
  -4672511.85047  -3619362.69344  23020916.2764   23020912.5654
      3602.5164
 -10551481.57149  -8213273.12448  20247156.0894   20247153.8704
      1075.8594
 -12420485.38249  -9674933.46346  21780228.0114   21780226.0384
      3492.6884
 04  9 10 16 18 44.9990000  0  6G 1G11G14G23G25G20
 -11723978.34749  -9126626.13248  20344720.9334   20344719.1554
      1829.4534
  -6139152.34249  -4778138.23447  20930297.0814   20930293.5264
        91.6724
   9465917.25747   7363360.70344  22639712.4724   22639711.4054
     -1907.7814
  -4726548.08347  -3661468.82744  23010633.6444   23010630.3194
      3602.2974
 -10567570.62649  -8225810.04348  20244094.4484   20244091.8704
      1069.2504
 -12472875.31749  -9715756.78046  21770258.7064   21770256.1444
      3492.5784
 04  9 10 16 18 59.9990000  0  6G 1G11G14G23G25G20
 -11751394.06249  -9147989.03248  20339504.2304   20339501.9444
      1826.1564
  -6140472.12549  -4779166.64747  20930045.4094   20930043.0654
        84.4534
   9494530.85047   7385656.96444  22645156.6904   22645155.8234
     -1907.1254
  -4780573.82348  -3703566.78544  23000352.7454   23000349.9134
      3601.3444
 -10583554.36949  -8238264.91248  20241053.0894   20241050.6474
      1062.0634
 -12525256.83549  -9756573.55446  21760290.6054   21760288.3514
      3491.8444
 04  9 10 16 19 14.9990000  0  6G 1G11G14G23G25G20
 -11778763.56149  -9169315.90648  20334295.5584   20334294.1324
      1823.0164
  -6141687.91049  -4780114.03147  20929814.2304   20929811.8084
        77.5784
   9523130.59147   7407942.41244  22650599.1754   22650598.4914
     -1906.2814
  -4834589.37848  -3745656.79744  22990073.8234   22990070.3194
      3600.5634
 -10599433.15949  -8250637.99148  20238031.4174   20238028.6474
      1055.0314
 -12577630.07849  -9797383.85546  21750324.2304   21750322.0194
      3491.2034
 04  9 10 16 19 29.9980000  0  6G 1G11G14G23G25G20
 -11806090.78849  -9190609.84948  20329095.5294   20329093.9674
      1820.2974
  -6142805.50949  -4780984.90447  20929601.6544   20929598.5684
        70.9384
   9551708.75947   7430211.08644  22656037.5924   22656036.6974
     -1905.0004
  -4888597.01448  -3787740.63244  22979796.7644   22979793.6664
      3600.2974
 -10615211.78049  -8262933.03148  20235028.4044   20235026.3854
      1048.4224
 -12629997.04749  -9838189.27746  21740359.2564   21740357.3934
      3491.0164
 04  9 10 16 19 44.9980000  0  6G 1G11G14G23G25G20
 -11833378.36749  -9211872.88848  20323902.6074   20323900.8854
      1817.5634
  -6143823.96749  -4781778.52147  20929407.8114   20929405.3654
        64.3594
   9580270.07248   7452466.61944  22661472.6934   22661472.0614
     -1903.6724
  -4942602.65448  -3829822.93144  22969520.0684   22969516.6434
      3599.8914
 -10630891.31849  -8275150.84148  20232045.1004   20232042.6044
      1041.7664
 -12682363.51649  -9878994.31246  21730394.6784   21730392.3224
      3490.7504
 04  9 10 16 19 59.9980000  0  6G 1G11G14G23G25G20
 -11860621.54549  -9233101.33248  20318718.5374   20318717.1504
      1814.8594
  -6144740.36749  -4782492.61547  20929233.3184   20929230.5964
        57.7664
   9608815.43047   7474709.72444  22666905.1784   22666904.4824
     -1902.4534
  -4996599.72748  -3871898.55344  22959244.4284   22959241.1474
      3599.5784
 -10646467.59249  -8287288.20248  20229080.9434   20229078.5494
      1035.0944
 -12734722.81349  -9919793.75646  21720430.7404   21720428.8814
      3490.5164
 04  9 10 16 20 14.9980000  0  6G 1G11G14G23G25G20
 -11887823.41049  -9254297.59648  20313542.3974   20313540.2094
      1812.2974
  -6145557.99549  -4783129.74347  20929077.4434   20929075.2054
        51.4224
   9637341.71548   7496937.96144  22672333.1394   22672332.2564
     -1900.9224
  -5050591.11748  -3913969.75444  22948970.2644   22948966.8184
      3599.4534
 -10661943.94449  -8299347.70248  20226135.8894   20226133.2874
      1028.6094
 -12787077.78549  -9960589.84046  21710467.7874   21710465.3974
      3490.4064
 04  9 10 16 20 29.9980000  0  6G 1G11G14G23G25G20
 -11914983.90849  -9275461.61048  20308373.6624   20308372.1704
      1809.0474
  -6146276.84549  -4783689.90747  20928940.9674   20928938.5294
        44.3444
   9665848.94148   7519151.35444  22677757.6544   22677757.2094
     -1900.1414
  -5104576.78448  -3956036.49744  22938697.0684   22938693.3184
      3598.5634
 -10677320.17949  -8311329.17648  20223209.9514   20223207.3114
      1021.5004
 -12839428.09449 -10001382.27046  21700505.7094   21700503.5684
      3489.5474
 04  9 10 16 20 44.9980000  0  6G 1G11G14G23G25G20
 -11942099.86549  -9296590.93648  20303213.7254   20303212.0884
      1806.2504
  -6146893.82949  -4784170.69347  20928823.4674   20928820.8934
        37.7344
   9694340.17347   7541352.26644  22683179.8504   22683179.1624
     -1898.9064
  -5158553.27148  -3998096.08944  22928425.8894   22928422.1234
      3598.0944
 -10692593.02449  -8323230.09448  20220303.6004   20220301.2754
      1014.7034
 -12891770.23249 -10042168.34546  21690545.4204   21690543.2054
      3489.2034
 04  9 10 16 20 59.9980000  0  6G 1G11G14G23G25G20
 -11969174.01449  -9317687.67948  20298061.5764   20298059.8544
      1803.7504
  -6147411.69549  -4784574.25847  20928724.9284   20928722.0644
        31.4694
   9722812.48948   7563538.43544  22688597.6074   22688596.5334
     -1897.2664
  -5212523.42847  -4040150.72544  22918155.4904   22918151.7134
      3598.1564
 -10707765.26149  -8335052.61948  20217416.2324   20217413.8114
      1008.3444
 -12944106.82349 -10082950.10146  21680585.9984   21680583.4864
      3489.1564
 04  9 10 16 21 14.9980000  0  6G 1G11G14G23G25G20
 -11996208.51949  -9338753.52248  20292917.2794   20292915.7324
      1800.7664
  -6147832.68449  -4784902.31647  20928644.7564   20928641.9594
        24.6414
   9751263.71048   7585708.19544  22694012.4124   22694011.0844
     -1896.2504
  -5266489.20948  -4082201.97344  22907886.1544   22907882.5644
      3597.3914
 -10722838.97149  -8346798.37048  20214548.1394   20214545.2294
      1001.4224
 -12996439.63649 -10123728.92046  21670627.1784   21670625.1004
      3488.5634
 04  9 10 16 21 29.9980000  0  6G 1G11G14G23G25G20
 -12023198.80849  -9359784.91248  20287781.1784   20287779.4754
      1798.0164
  -6148152.10448  -4785151.24147  20928584.1544   20928581.7874
        18.0784
   9779698.47948   7607865.11544  22699422.9984   22699422.4364
     -1895.0004
  -5320445.95348  -4124246.17044  22897618.7794   22897615.4714
      3596.9844
 -10737809.71349  -8358463.87648  20211698.8344   20211697.0334
       994.8284
 -13048763.94549 -10164501.08446  21660670.2324   21660668.4514
      3488.1564
 04  9 10 16 21 44.9980000  0  6G 1G11G14G23G25G20
 -12050149.87249  -9380785.73448  20282652.5614   20282651.1154
      1795.4844
  -6148375.27549  -4785325.18447  20928541.6934   20928539.0684
        11.6564
   9808111.68148   7630005.23644  22704829.7324   22704828.6114
     -1893.4694
  -5374398.47348  -4166287.08144  22887351.7094   22887347.9514
      3596.7034
 -10752682.28849  -8370052.89748  20208868.7014   20208866.4084
       988.2664
 -13101084.36549 -10205270.23346  21650714.1544   21650712.0374
      3487.9224
 04  9 10 16 21 59.9980000  0  6G 1G11G14G23G25G20
 -12077060.01749  -9401754.68448  20277531.6544   20277529.5924
      1792.7034
  -6148500.52949  -4785422.82247  20928517.8734   20928515.3504
         5.2034
   9836505.00148   7652129.83944  22710233.0684   22710232.3574
     -1892.1564
  -5428345.07348  -4208323.36744  22877086.1394   22877082.8614
      3596.4384
 -10767455.05749  -8381564.15148  20206057.8034   20206055.2874
       981.6564
 -13153398.85849 -10246034.77646  21640759.2254   21640756.8184
      3487.5784
 04  9 10 16 22 14.9980000  0  6G 1G11G14G23G25G20
 -12103931.38649  -9422693.42248  20272418.1864   20272416.3074
      1790.0784
  -6148530.17249  -4785445.95747  20928512.5144   20928509.3224
        -1.3124
   9864876.11248   7674237.16144  22715631.6544   22715630.7444
     -1890.7034
  -5482287.71948  -4250356.58344  22866821.1624   22866817.7724
      3596.0004
 -10782130.21549  -8392999.34348  20203264.9204   20203262.3814
       975.0634
 -13205709.49049 -10286796.30446  21630804.9044   21630802.6194
      3487.1564
 04  9 10 16 22 29.9980000  0  6G 1G11G14G23G25G20
 -12130762.19749  -9443600.54748  20267312.6004   20267310.7754
      1786.9224
  -6148462.27649  -4785393.08447  20928525.1624   20928522.7874
        -8.2034
   9893226.70048   7696328.48844  22721026.5064   22721025.9244
     -1889.7974
  -5536224.48448  -4292385.21744  22856557.4204   22856554.1784
      3595.1724
 -10796705.90649  -8404357.02448  20200491.3504   20200489.0844
       967.9694
 -13258014.20749 -10327553.22746  21620851.6544   21620849.4164
      3486.3444
 04  9 10 16 22 44.9980000  0  6G 1G11G14G23G25G20
 -12157545.99649  -9464471.04148  20262216.0144   20262213.7874
      1783.8594
  -6148290.67049  -4785259.41047  20928558.2954   20928555.7484
       -15.0624
   9921563.23748   7718408.85044  22726419.1544   22726418.2324
     -1888.8124
  -5590148.87248  -4334404.20844  22846295.8114   22846292.7754
      3594.4224
 -10811175.82749  -8415632.29348  20197738.0844   20197735.4204
       960.9384
 -13310306.17749 -10368300.22146  21610900.8504   21610898.3304
      3485.4694
 04  9 10 16 22 59.9980000  0  6G 1G11G14G23G25G20
 -12184285.73449  -9485307.19448  20257127.3654   20257125.3464
      1780.9064
  -6148018.30449  -4785047.19947  20928610.1624   20928607.0764
       -21.6874
   9949882.65248   7740475.91744  22731808.3184   22731807.3114
     -1887.5784
  -5644063.63648  -4376415.70144  22836036.0534   22836032.7954
      3593.7504
 -10825542.69649  -8426827.26048  20195004.1934   20195001.6864
       954.1414
 -13362588.18849 -10409039.44046  21600951.9514   21600949.5374
      3484.9534
 04  9 10 16 23 14.9980000  0  6G 1G11G14G23G25G20
 -12210985.57949  -9506112.25948  20252046.2954   20252045.0924
      1779.0314
  -6147649.45349  -4784759.80147  20928680.0764   20928677.8574
       -27.4694
   9978180.72748   7762526.32344  22737193.4594   22737192.3544
     -1885.4694
  -5697972.88348  -4418422.86344  22825777.9434   22825773.9554
      3594.0784
 -10839810.80349  -8437945.25848  20192288.9044   20192286.3974
       948.2194
 -13414864.07349 -10449773.88946  21591003.9284   21591001.6004
      3485.2344
 04  9 10 16 23 29.9980000  0  6G 1G11G14G23G25G20
 -12237645.69849  -9526886.37748  20246973.2484   20246971.5534
      1775.4694
  -6147184.48548  -4784397.50747  20928768.4204   20928766.1934
       -34.7664
  10006457.24248   7784559.95144  22742574.4284   22742573.0024
     -1884.9064
  -5751876.73748  -4460425.85744  22815520.3424   22815516.8694
      3592.8284
 -10853980.37249  -8448986.47448  20189592.6154   20189590.1864
       940.8754
 -13467133.78349 -10490503.52546  21581057.1314   21581054.9824
      3483.8914
 04  9 10 16 23 44.9980000  0  6G 1G11G14G23G25G20
 -12264265.24249  -9547628.87848  20241907.7254   20241905.9324
      1773.3914
  -6146622.58148  -4783959.65947  20928875.5844   20928872.8264
       -40.5944
  10034712.96748   7806577.36544  22747950.6314   22747949.9364
     -1882.8914
  -5805774.18048  -4502423.85344  22805263.4284   22805260.0454
      3593.0784
 -10868050.40649  -8459950.13448  20186915.0224   20186912.8504
       934.8444
 -13519396.18749 -10531227.46846  21571112.0454   21571109.6314
      3484.0474
 04  9 10 16 23 59.9980000  0  6G 1G11G14G23G25G20
 -12290845.13649  -9568340.48648  20236849.8734   20236848.4044
      1770.8444
  -6145964.56349  -4783446.93847  20929000.4984   20928998.1624
       -46.9064
  10062946.88448   7828577.76944  22753323.6154   22753322.7174
     -1881.3754
  -5859666.05848  -4544417.53144  22795008.7174   22795005.0804
      3592.7664
 -10882021.84649  -8470836.97248  20184256.5454   20184254.1664
       928.2974
 -13571652.00249 -10571946.29046  21561168.2564   21561165.8544
      3483.6564
 04  9 10 16 24 14.9980000  0  6G 1G11G14G23G25G20
 -12317384.15449  -9589020.24348  20231799.5064   20231798.1584
      1767.7974
  -6145209.53449  -4782858.61447  20929144.5534   20929141.9674
       -53.6414
  10091160.04648   7850562.01644  22758692.6154   22758692.1354
     -1880.2194
  -5913551.10148  -4586405.85844  22784754.4674   22784751.0884
      3591.9694
 -10895893.51649  -8481646.07048  20181616.7014   20181613.9124
       921.3134
 -13623899.63949 -10612658.74346  21551225.9594   21551223.6044
      3482.7664
 04  9 10 16 24 29.9980000  0  6G 1G11G14G23G25G20
 -12343881.26849  -9609667.34648  20226757.0144   20226755.7684
      1765.2034
  -6144356.57449  -4782193.98047  20929306.8114   20929304.1824
       -60.0004
  10119353.58348   7872530.96844  22764057.6004   22764057.1114
     -1878.7664
  -5967428.13948  -4628387.95844  22774502.2254   22774498.2324
      3591.6254
 -10909664.41349  -8492376.63948  20178996.1704   20178993.8074
       914.8444
 -13676137.87549 -10653363.85046  21541285.4044   21541283.0254
      3482.3754
 04  9 10 16 24 44.9980000  0  6G 1G11G14G23G25G20
 -12370342.29749  -9630286.32048  20221722.0294   20221720.1074
      1762.8594
  -6143411.54349  -4781457.60247  20929486.4594   20929483.9634
       -65.9694
  10147521.47848   7894479.94744  22769417.7954   22769417.0104
     -1876.9534
  -6021302.94248  -4670368.31144  22764250.3974   22764246.4754
      3591.5784
 -10923340.44349  -8503033.27648  20176393.8034   20176391.1864
       908.6254
 -13728372.20749 -10694065.92146  21531345.3184   21531342.9864
      3482.1724
 04  9 10 16 24 59.9980000  0  6G 1G11G14G23G25G20
 -12396766.35049  -9650876.50148  20216693.6314   20216691.8504
      1760.2664
  -6142373.58149  -4780648.80847  20929683.6394   20929681.9124
       -72.4064
  10175664.65548   7916409.64944  22774773.0534   22774772.2174
     -1875.5164
  -6075174.32548  -4712346.00744  22753998.2644   22753994.8544
      3591.1884
 -10936920.49749  -8513615.14448  20173809.5454   20173806.6504
       902.0004
 -13780601.49449 -10734764.06246  21521406.6394   21521404.5104
      3481.6884
 04  9 10 16 25 14.9980000  0  6G 1G11G14G23G25G20
 -12423146.53649  -9671432.48448  20211673.5144   20211671.7484
      1757.5314
  -6141235.90749  -4779762.31647  20929900.5924   20929897.7834
       -78.8754
  10203789.98748   7938325.43744  22780125.3974   22780124.4674
     -1874.0624
  -6129035.41048  -4754315.66444  22743748.9204   22743745.5064
      3590.7344
 -10950397.87749  -8524116.99148  20171244.7564   20171242.1504
       895.3914
 -13832818.61249 -10775452.71446  21511469.9754   21511467.1434
      3481.0314
 04  9 10 16 25 29.9980000  0  6G 1G11G14G23G25G20
 -12449485.80949  -9691956.59448  20206661.3974   20206659.5614
      1754.4844
  -6140001.25549  -4778800.26547  20930135.2794   20930132.6544
       -85.6564
  10231894.55948   7960225.04944  22785473.4754   22785473.0494
     -1873.0784
  -6182888.98848  -4796279.47844  22733501.3894   22733497.7754
      3589.9224
 -10963775.52249  -8534541.14848  20168699.5684   20168696.9164
       888.3754
 -13885026.15049 -10816133.92046  21501535.1314   21501532.7094
      3480.0474
 04  9 10 16 25 44.9980000  0  6G 1G11G14G23G25G20
 -12475786.76949  -9712450.84448  20201656.4984   20201655.0844
      1752.1884
  -6138672.69549  -4777765.04247  20930388.2254   20930386.1004
       -91.5784
  10259975.60048   7982106.32644  22790816.7324   22790816.6894
     -1871.2974
  -6236737.63848  -4838239.44544  22723253.9284   22723250.6544
      3589.8914
 -10977055.98049  -8544889.54448  20166172.2094   20166169.3694
       882.1884
 -13937226.47549 -10856809.49546  21491601.6004   21491599.4044
      3479.8914
 04  9 10 16 25 59.9980000  0  6G 1G11G14G23G25G20
 -12502051.48749  -9732916.86648  20196658.4984   20196656.7404
      1749.6414
  -6137252.25449  -4776658.22347  20930658.8184   20930655.9674
       -97.8594
  10288030.87148   8003967.53344  22796156.2484   22796155.2524
     -1869.6254
  -6290583.21048  -4880197.03544  22713007.8264   22713004.1434
      3589.5004
 -10990241.30549  -8555163.82648  20163662.7954   20163660.2134
       875.7504
 -13989421.36749 -10897480.82746  21481669.3654   21481667.0414
      3479.3594
 04  9 10 16 26 14.9980000  0  6G 1G11G14G23G25G20
 -12528278.00749  -9753353.11048  20191667.8034   20191666.4364
      1747.1254
  -6135738.15149  -4775478.42347  20930946.8424   20930943.8734
      -104.1414
  10316062.27648   8025810.15544  22801489.9514   22801489.4984
     -1868.0314
  -6344423.62448  -4922150.58444  22702762.2254   22702758.1474
      3589.1564
 -11003329.56049  -8565362.45948  20161172.4824   20161169.8654
       869.2664
 -14041608.63749 -10938146.22246  21471738.4044   21471736.2604
      3478.8134
 04  9 10 16 26 29.9980000  0  6G 1G11G14G23G25G20
 -12554466.39549  -9773759.64848  20186684.2254   20186682.4394
      1744.0314
  -6134130.61248  -4774225.82747  20931252.5454   20931250.1894
      -110.8124
  10344069.86548   8047634.22144  22806820.2794   22806819.3504
     -1866.9064
  -6398259.03348  -4964100.26044  22692517.3034   22692513.4554
      3588.2814
 -11016320.86649  -8575485.54848  20158700.3034   20158697.6664
       862.2814
 -14093788.16349 -10978805.59446  21461809.2874   21461806.8574
      3477.8284
 04  9 10 16 26 44.9980000  0  6G 1G11G14G23G25G20
 -12580608.77849  -9794130.33648  20181709.6234   20181707.8224
      1740.9224
  -6132421.83348  -4772894.33547  20931577.7254   20931575.0614
      -117.6874
  10372061.46948   8069445.79844  22812146.4674   22812145.8614
     -1865.9844
  -6452081.41248  -5006039.76044  22682275.5684   22682271.5804
      3587.4064
 -11029207.26349  -8585526.89748  20156248.0294   20156245.1864
       855.2034
 -14145951.67549 -11019452.48346  21451882.4364   21451880.3074
      3476.7194
 04  9 10 16 26 59.9980000  0  6G 1G11G14G23G25G20
 -12606710.92649  -9814469.67748  20176742.6004   20176741.0334
      1738.9844
  -6130617.65748  -4771488.51447  20931921.2644   20931918.4324
      -123.2504
  10400031.09648   8091240.27944  22817468.9434   22817468.2364
     -1863.7664
  -6505896.37148  -5047973.47144  22672034.4824   22672031.4084
      3587.6564
 -11041994.61049  -8595491.06948  20153814.6234   20153811.7954
       849.3754
 -14198104.62449 -11060091.14446  21441958.1704   21441955.7444
      3476.5784
 04  9 10 16 27 14.9980000  0  6G 1G11G14G23G25G20
 -12632777.71049  -9834781.45748  20171782.1934   20171780.5184
      1736.3914
  -6128722.98749  -4770012.15447  20932281.9044   20932279.2644
      -129.5944
  10427973.89548   8113013.83844  22822786.3734   22822785.5614
     -1862.1724
  -6559708.68548  -5089905.13744  22661794.3894   22661790.8774
      3587.1564
 -11054687.75549  -8605381.82848  20151399.1004   20151396.6624
       842.8914
 -14250251.65249 -11100725.17446  21432035.1074   21432032.9124
      3476.0004
 04  9 10 16 27 29.9980000  0  6G 1G11G14G23G25G20
 -12658810.41949  -9855066.67348  20166828.0844   20166826.6474
      1734.3914
  -6126739.20048  -4768466.36347  20932659.2724   20932656.8694
      -135.2034
  10455888.57548   8134765.52444  22828098.2324   22828097.6474
     -1859.9694
  -6613519.48948  -5131835.61344  22651554.4514   22651551.7444
      3587.3754
 -11067287.99449  -8615200.20148  20149001.1784   20148999.0334
       837.0004
 -14302393.88649 -11141355.47346  21422112.6394   21422110.4754
      3476.0004
 04  9 10 16 27 44.9980000  0  6G 1G11G14G23G25G20
 -12684802.49349  -9875320.25248  20161882.0534   20161880.4474
      1731.0474
  -6124659.95349  -4766846.18947  20933054.9514   20933052.1624
      -142.1254
  10483781.58048   8156500.26644  22833406.3974   22833405.0644
     -1859.1414
  -6667322.08248  -5173759.70044  22641316.2174   22641312.4394
      3586.2194
 -11079788.84449  -8624941.13048  20146622.8034   20146620.1434
       829.8134
 -14354524.32149 -11181976.60546  21412192.5534   21412190.5644
      3474.5634
 04  9 10 16 27 59.9980000  0  6G 1G11G14G23G25G20
 -12710751.33749  -9895540.13848  20156944.2644   20156942.1394
      1728.4694
  -6122482.77549  -4765149.72047  20933469.1864   20933466.6584
      -148.4224
  10511655.46348   8178220.12644  22838710.7404   22838709.8184
     -1857.6564
  -6721113.73848  -5215675.26444  22631080.1474   22631076.5374
      3585.7034
 -11092187.62749  -8634602.51848  20144263.5374   20144260.7524
       823.1564
 -14406640.14649 -11222586.33546  21402275.0224   21402272.6704
      3473.8914
 04  9 10 16 28 14.9980000  0  6G 1G11G14G23G25G20
 -12736663.57049  -9915731.48448  20152013.2014   20152011.1974
      1726.3914
  -6120214.38049  -4763382.14847  20933901.2484   20933898.5104
      -154.1564
  10539503.61648   8199919.96444  22844009.9044   22844009.3184
     -1855.5474
  -6774900.99448  -5257587.38144  22620844.5454   22620841.4204
      3585.8444
 -11104490.91649  -8644189.49548  20141921.8034   20141919.3814
       817.2504
 -14458747.61949 -11263189.55446  21392359.7644   21392357.6044
      3473.6414
 04  9 10 16 28 29.9980000  0  6G 1G11G14G23G25G20
 -12762543.24049  -9935897.45448  20147088.7644   20147086.9594
      1724.0474
  -6117858.79949  -4761546.64747  20934349.3034   20934346.8504
      -160.0784
  10567321.89948   8221596.50743  22849302.7094   22849302.9364
     -1853.6564
  -6828687.82048  -5299499.17944  22610609.3574   22610605.6114
      3585.5944
 -11116702.96449  -8653705.37448  20139598.0844   20139595.8074
       810.9224
 -14510850.59549 -11303789.25746  21382444.2484   21382442.3814
      3473.2034
 04  9 10 16 28 44.9980000  0  6G 1G11G14G23G25G20
 -12788383.02249  -9956032.35848  20142171.5534   20142169.5614
      1721.6094
  -6115408.71749  -4759637.51047  20934815.9904   20934813.4044
      -166.1874
  10595117.39748   8243255.29044  22854593.2254   22854592.2134
     -1851.8914
  -6882466.79448  -5341404.87144  22600375.1314   22600371.7724
      3585.2504
 -11128816.34949  -8663144.37448  20137293.0614   20137290.5414
       804.5474
 -14562941.50449 -11344379.57446  21372532.0924   21372529.7054
      3472.5944
 04  9 10 16 28 59.9980000  0  6G 1G11G14G23G25G20
 -12814183.49149  -9976136.61448  20137261.6474   20137260.3854
      1718.7344
  -6112864.97449  -4757655.38347  20935299.5294   20935296.8814
      -172.6874
  10622889.57848   8264895.90544  22859877.7324   22859877.1784
     -1850.6414
  -6936238.39648  -5383304.81344  22590143.5064   22590139.4044
      3584.5944
 -11140831.71749  -8672507.00348  20135006.3734   20135004.1314
       797.8594
 -14615020.62549 -11384960.69746  21362621.5064   21362619.2834
      3471.5944
 04  9 10 16 29 14.9980000  0  6G 1G11G14G23G25G20
 -12839942.33349  -9996208.44948  20132360.1074   20132358.4044
      1716.0944
  -6110225.41149  -4755598.59547  20935801.8654   20935799.8264
      -178.9064
  10650640.78748   8286520.17344  22865159.0684   22865157.9634
     -1849.0624
  -6990000.16848  -5425197.07944  22579912.3734   22579908.7094
      3584.0634
 -11152746.75649  -8681791.44748  20132739.0374   20132736.5254
       791.2504
 -14667085.27449 -11425530.55146  21352714.0294   21352711.8264
      3470.7194
 04  9 10 16 29 29.9980000  0  6G 1G11G14G23G25G20
 -12865662.59749 -10016250.20848  20127465.7874   20127463.5724
      1713.1564
  -6107493.19748  -4753469.60647  20936322.0374   20936319.3974
      -185.5004
  10678367.95748   8308125.72744  22870435.4754   22870434.2094
     -1848.0004
  -7043755.14548  -5467084.06244  22569683.5374   22569679.8304
      3583.2034
 -11164564.63049  -8691000.18448  20130490.4904   20130488.0684
       784.3134
 -14719138.29849 -11466091.34446  21342808.7404   21342806.4634
      3469.5004
 04  9 10 16 29 44.9980000  0  6G 1G11G14G23G25G20
 -12891344.20049 -10036261.84748  20122578.7094   20122576.6894
      1710.5944
  -6104668.27849  -4751268.39347  20936859.3114   20936857.0184
      -191.5944
  10706071.03048   8329712.50444  22875707.2874   22875706.5294
     -1846.2504
  -7097502.99648  -5508965.50144  22559455.5534   22559451.6584
      3582.8284
 -11176285.18549  -8700133.07948  20128259.8574   20128257.3544
       777.9534
 -14771179.32949 -11506642.78746  21332905.7954   21332903.5494
      3468.7664
 04  9 10 16 29 59.9980000  0  6G 1G11G14G23G25G20
 -12916989.80249 -10056245.44248  20117698.3424   20117696.9164
      1708.4694
  -6101753.43549  -4748997.10547  20937414.2324   20937411.6354
      -197.2504
  10733747.41248   8351278.45543  22880974.1154   22880973.0414
     -1844.1414
  -7151246.34948  -5550843.41244  22549228.6784   22549224.5964
      3582.7814
 -11187911.14049  -8709192.27748  20126047.6784   20126044.8734
       771.9694
 -14823210.77949 -11547186.77846  21323004.5534   21323001.9864
      3468.4064
 04  9 10 16 30 14.9980000  0  6G 1G11G14G23G25G20
 -12942597.85249 -10076199.75948  20112825.5614   20112823.3774
      1705.7504
  -6098747.28849  -4746654.66647  20937986.5144   20937983.7134
      -203.6724
  10761398.54548   8372824.75443  22886234.8264   22886234.7724
     -1842.7974
  -7204983.54648  -5592716.55544  22539003.2324   22538998.8304
      3582.0944
 -11199440.95249  -8718176.54548  20123853.5684   20123851.2564
       765.2344
 -14875230.74749 -11587721.81346  21313105.3574   21313103.0104
      3467.4224
 04  9 10 16 30 29.9980000  0  6G 1G11G14G23G25G20
 -12968165.07349 -10096122.26848  20107959.9434   20107958.2914
      1703.1414
  -6095646.72148  -4744238.64647  20938576.2324   20938573.7254
      -209.8594
  10789027.74348   8394353.95743  22891492.6154   22891492.6234
     -1841.2814
  -7258711.27648  -5634582.29544  22528778.4594   22528775.0964
      3581.5944
 -11210871.38749  -8727083.37248  20121678.3424   20121676.0104
       758.7814
 -14927235.80349 -11628245.22946  21303208.9284   21303206.7994
      3466.5314
 04  9 10 16 30 44.9980000  0  6G 1G11G14G23G25G20
 -12993693.82849 -10116014.80448  20103102.2644   20103100.3264
      1700.3594
  -6092454.17449  -4741750.96047  20939183.7484   20939180.9794
      -216.1094
  10816632.46248   8415864.09943  22896746.3264   22896745.2754
     -1839.7194
  -7312431.69048  -5676442.32444  22518555.6704   22518552.5254
      3580.8914
 -11222204.73949  -8735914.56148  20119521.9044   20119519.4434
       752.1254
 -14979227.92949 -11668758.56946  21293315.0844   21293313.2404
      3465.4384
 04  9 10 16 30 59.9980000  0  6G 1G11G14G23G25G20
 -13019186.83849 -10135879.48148  20098250.8504   20098249.0334
      1698.4384
  -6089172.39549  -4739193.74647  20939808.6704   20939805.7484
      -221.6874
  10844210.01048   8437353.06243  22901994.1234   22901992.9984
     -1837.4694
  -7366147.52048  -5718298.81044  22508334.1624   22508330.0764
      3581.0314
 -11233443.71249  -8744672.19648  20117383.1394   20117380.1664
       746.2194
 -15031209.54649 -11709263.70146  21283423.6624   21283421.2054
      3465.1724
 04  9 10 16 31 14.9980000  0  6G 1G11G14G23G25G20
 -13044644.67049 -10155716.76648  20093406.7564   20093405.2364
      1695.6724
  -6085802.18949  -4736567.63147  20940449.8264   20940446.8344
      -228.0474
  10871759.57348   8458820.20243  22907236.3974   22907235.7834
     -1836.1254
  -7419859.08447  -5760151.95245  22498113.1234   22498109.5024
      3580.2034
 -11244589.05949  -8753356.90248  20115262.3814   20115259.3504
       739.4224
 -15083181.01949 -11749760.95446  21273533.7794   21273531.4204
      3464.0474
 04  9 10 16 31 29.9980000  0  6G 1G11G14G23G25G20
 -13070063.26749 -10175523.46048  20088569.5924   20088567.6974
      1693.4694
  -6082339.56849  -4733869.49547  20941108.7404   20941105.7604
      -233.7344
  10899285.35148   8480268.84343  22912474.3344   22912474.0924
     -1834.1254
  -7473562.26148  -5801998.57045  22487893.6314   22487890.2014
      3580.1254
 -11255636.78649  -8761965.52248  20113160.0374   20113157.9554
       733.4224
 -15135137.77849 -11790246.74046  21263646.7484   21263644.5644
      3463.4534
 04  9 10 16 31 44.9980000  0  6G 1G11G14G23G25G20
 -13095446.25249 -10195302.41048  20083739.2174   20083737.3464
      1691.0164
  -6078788.24149  -4731102.24347  20941784.3184   20941781.7754
      -239.7504
  10926783.72248   8501696.11743  22917707.0614   22917707.0064
     -1832.2664
  -7527260.51148  -5843841.34445  22477675.2484   22477672.0374
      3579.6884
 -11266590.49949  -8770500.87748  20111075.4674   20111073.0844
       727.0784
 -15187083.37449 -11830723.81946  21253761.5534   21253759.1824
      3462.6564
 04  9 10 16 31 59.9980000  0  6G 1G11G14G23G25G20
 -13120791.84049 -10215052.20648  20078916.0374   20078914.5374
      1688.8284
  -6075146.51949  -4728264.55147  20942477.4044   20942474.7794
      -245.4694
  10954256.48048   8523103.40743  22922935.7094   22922934.5574
     -1830.3754
  -7580951.93448  -5885678.80945  22467458.1394   22467454.5644
      3579.5164
 -11277448.26449  -8778961.47548  20109009.3894   20109006.7994
       720.9844
 -15239015.55949 -11871190.44846  21243879.4364   21243877.2014
      3462.0004
 04  9 10 16 32 14.9980000  0  6G 1G11G14G23G25G20
 -13146104.88049 -10234776.66248  20074099.0294   20074097.3544
      1686.7034
  -6071419.42649  -4725360.33947  20943186.5374   20943183.8184
      -251.0624
  10981698.60248   8544486.85543  22928157.1154   22928157.2874
     -1828.1564
  -7634641.38848  -5927514.72745  22457241.7254   22457237.7524
      3579.5474
 -11288215.00049  -8787351.14048  20106960.2724   20106958.0804
       715.0634
 -15290939.01449 -11911650.27946  21233998.6154   21233996.8854
      3461.5634
 04  9 10 16 32 29.9980000  0  6G 1G11G14G23G25G20
 -13171383.50549 -10254474.29848  20069288.8034   20069287.1784
      1684.2344
  -6067605.04548  -4722388.11147  20943912.6474   20943909.8814
      -257.1094
  11009111.99248   8565847.90843  22933373.7484   22933373.6544
     -1826.5314
  -7688326.87848  -5969347.56845  22447025.4204   22447021.9824
      3579.0314
 -11298889.09449  -8795668.62748  20104929.2954   20104927.0064
       708.6724
 -15342851.60249 -11952101.64447  21224119.8184   21224117.4714
      3460.5944
 04  9 10 16 32 44.9980000  0  6G 1G11G14G23G25G20
 -13196621.79149 -10274140.49248  20064486.3654   20064484.5964
      1680.9844
  -6063697.87049  -4719343.57547  20944656.2174   20944653.5144
      -263.7814
  11036502.42348   8587191.06743  22938586.2794   22938585.4204
     -1825.5164
  -7742002.36248  -6011172.60245  22436811.3974   22436808.2094
      3577.7974
 -11309464.51349  -8803909.20648  20102916.9514   20102913.9044
       701.5314
 -15394747.09649 -11992539.68546  21214244.6934   21214242.4244
      3458.9064
 04  9 10 16 32 59.9980000  0  6G 1G11G14G23G25G20
 -13221825.54249 -10293779.78548  20059690.2644   20059688.5724
      1679.2344
  -6059703.71648  -4716231.25747  20945416.3734   20945413.8614
      -268.9224
  11063864.11548   8608511.83943  22943792.8814   22943792.6624
     -1822.9374
  -7795673.64348  -6052994.35445  22426598.3034   22426594.8504
      3578.2194
 -11319947.19049  -8812077.53448  20100921.9594   20100919.6974
       695.9224
 -15446631.04849 -12032968.72846  21204371.3034   21204368.8384
      3458.7194
 04  9 10 16 33 14.9980000  0  6G 1G11G14G23G25G20
 -13246990.22649 -10313388.62648  20054901.3814   20054899.8614
      1676.5314
  -6055618.21648  -4713047.77547  20946193.2874   20946190.9284
      -275.2034
  11091201.55648   8629813.71443  22948995.2254   22948994.6234
     -1821.5164
  -7849335.88848  -6094809.06645  22416386.8814   22416382.8694
      3577.3284
 -11330332.62849  -8820170.09148  20098945.7094   20098943.4124
       689.3284
 -15498498.53249 -12073384.95546  21194501.5614   21194499.3034
      3457.4534
 04  9 10 16 33 29.9980000  0  6G 1G11G14G23G25G20
 -13272118.88749 -10332969.40148  20050119.7644   20050117.7644
      1674.0944
  -6051444.48349  -4709795.52247  20946987.8034   20946985.1864
      -281.1724
  11118511.62348   8651094.24743  22954192.0064   22954191.4554
     -1819.6564
  -7902992.18048  -6136619.12845  22406175.7324   22406173.0454
      3576.9694
 -11340623.86649  -8828189.23848  20096987.3264   20096984.5724
       683.0634
 -15550352.37949 -12113790.53447  21184633.9594   21184631.7914
      3456.5474
 04  9 10 16 33 44.9980000  0  6G 1G11G14G23G25G20
 -13297213.97249 -10352524.01948  20045343.8184   20045342.5964
      1672.2344
  -6047185.13248  -4706476.57547  20947798.3734   20947795.6394
      -286.3594
  11145791.81848   8672351.49943  22959384.1704   22959382.3694
     -1817.3284
  -7956644.69248  -6178426.27345  22395965.7404   22395962.9514
      3577.1414
 -11350823.30249  -8836136.86348  20095046.3574   20095043.6434
       677.2504
 -15602194.71749 -12154187.15846  21174768.7484   21174766.3574
      3456.1564
 04  9 10 16 33 59.9980000  0  6G 1G11G14G23G25G20
 -13322275.14349 -10372052.21248  20040575.0684   20040573.4044
      1669.4064
  -6042839.85548  -4703090.65747  20948625.1474   20948622.3114
      -292.7974
  11173042.45648   8693585.72443  22964569.0764   22964567.9944
     -1815.9534
  -8010293.11148  -6220230.21445  22385757.4364   22385753.5964
      3576.1254
 -11360930.61149  -8844012.68848  20093123.4434   20093120.6004
       670.4534
 -15654024.92549 -12194574.32646  21164905.6314   21164903.3814
      3454.6724
 04  9 10 16 34 14.9980000  0  6G 1G11G14G23G25G20
 -13347298.94449 -10391551.26848  20035813.3114   20035811.8544
      1667.1564
  -6038405.44148  -4699635.28247  20949469.1234   20949466.6864
      -298.4064
  11200267.10148   8714799.69943  22969749.5534   22969749.3344
     -1813.9064
  -8063933.80648  -6262028.12945  22375550.0844   22375545.9474
      3575.9694
 -11370942.62549  -8851814.25848  20091217.9674   20091215.5844
       664.4694
 -15705839.25349 -12234949.11747  21155045.3894   21155043.3424
      3453.9694
 04  9 10 16 34 29.9980000  0  6G 1G11G14G23G25G20
 -13372287.80649 -10411023.11248  20031058.0924   20031056.0494
      1664.6724
  -6033884.33348  -4696112.36347  20950329.5144   20950327.1074
      -304.4064
  11227463.16248   8735991.38943  22974925.5294   22974924.5614
     -1812.2814
  -8117569.11548  -6303821.85645  22365343.4674   22365339.7294
      3575.4064
 -11380861.66649  -8859543.39248  20089330.2564   20089328.4084
       657.9844
 -15757639.89549 -12275313.25646  21145188.3034   21145186.1314
      3452.7814
 04  9 10 16 34 44.9980000  0  6G 1G11G14G23G25G20
 -13397237.47949 -10430464.41748  20026310.4364   20026308.4284
      1662.0784
  -6029272.53548  -4692518.76747  20951207.0374   20951204.2484
      -310.4064
  11254634.81348   8757164.07143  22980095.8184   22980095.0254
     -1810.5474
  -8171194.73348  -6345608.03344  22355138.6784   22355134.6314
      3574.7814
 -11390683.57349  -8867196.83448  20087461.0534   20087459.0144
       651.6724
 -15809422.26649 -12315663.14346  21135334.3654   21135332.2364
      3451.6254
 04  9 10 16 34 59.9980000  0  6G 1G11G14G23G25G20
 -13422152.44649 -10449878.67048  20021569.1314   20021567.0104
      1660.0164
  -6024574.68348  -4688858.11247  20952101.1314   20952098.5924
      -315.8594
  11281777.58448   8778314.24943  22985261.2324   22985259.9284
     -1808.3754
  -8224814.94748  -6387390.01345  22344935.0224   22344931.4514
      3574.7034
 -11400412.86648  -8874778.10348  20085609.7644   20085607.2954
       645.8134
 -15861190.51949 -12356002.03546  21125483.2644   21125481.0764
      3450.8914
 04  9 10 16 35 14.9980000  0  6G 1G11G14G23G25G20
 -13447030.65149 -10469264.29748  20016835.1234   20016833.3034
      1657.6094
  -6019788.69749  -4685128.78747  20953011.4674   20953009.1434
      -321.6564
  11308893.48348   8799443.49743  22990421.2324   22990419.9004
     -1806.5474
  -8278427.66447  -6429166.14844  22334732.9364   22334729.4904
      3574.3284
 -11410047.41949  -8882285.55448  20083776.7874   20083773.6234
       639.5004
 -15912942.40349 -12396328.17247  21115635.2644   21115633.0574
      3449.8914
 04  9 10 16 35 29.9980000  0  6G 1G11G14G23G25G20
 -13471876.43349 -10488624.64748  20012106.8974   20012105.3464
      1655.0944
  -6014919.21048  -4681334.40047  20953938.0144   20953935.9434
      -327.5784
  11335978.16648   8820548.38543  22995574.3344   22995574.1864
     -1804.7974
  -8332037.09347  -6470939.71044  22324530.6864   22324527.4554
      3573.7194
 -11419591.61749  -8889722.60248  20081960.6154   20081957.7914
       633.1094
 -15964681.80649 -12436644.58946  21105789.5764   21105787.0454
      3448.7194
 04  9 10 16 35 44.9980000  0  6G 1G11G14G23G25G20
 -13496685.51949 -10507956.40448  20007386.0614   20007384.4124
      1652.8444
  -6009962.23648  -4677471.83747  20954881.8574   20954879.5414
      -333.2974
  11363035.84948   8841632.27143  23000724.3034   23000723.5254
     -1802.8594
  -8385638.79647  -6512707.26444  22314331.1934   22314327.5884
      3573.3594
 -11429041.32249  -8897086.01048  20080162.0224   20080159.2364
       626.8594
 -16016404.29049 -12476947.82147  21095947.2094   21095944.6744
      3447.6884
 04  9 10 16 35 59.9980000  0  6G 1G11G14G23G25G20
 -13521460.54449 -10527261.62048  20002671.3734   20002669.6274
      1650.6414
  -6004920.26948  -4673543.05047  20955841.1624   20955838.4594
      -338.7814
  11390063.86748   8862693.02843  23005866.6544   23005866.2684
     -1800.7504
  -8439235.36847  -6554470.80544  22304131.6544   22304128.4084
      3573.0944
 -11438399.25349  -8904377.90648  20078381.3184   20078378.6584
       620.9384
 -16068112.23249 -12517239.70646  21086107.4984   21086105.1824
      3446.8284
 04  9 10 16 36 14.9980000  0  6G 1G11G14G23G25G20
 -13546202.00249 -10546540.66848  19997963.2324   19997961.4364
      1648.6414
  -5999793.85448  -4669548.45047  20956816.7794   20956814.5024
      -344.2814
  11417061.78748   8883730.31643  23011004.6074   23011004.7874
     -1798.5314
  -8492827.20147  -6596230.65044  22293933.8574   22293930.1044
      3572.9694
 -11447665.84649  -8911598.63548  20076617.9044   20076615.6894
       615.0634
 -16119805.61549 -12557520.25947  21076270.4204   21076268.2054
      3446.0314
 04  9 10 16 36 29.9980000  0  6G 1G11G14G23G25G20
 -13570897.20849 -10565783.69848  19993263.8344   19993262.0614
      1644.9384
  -5994570.59049  -4665478.39647  20957810.8344   20957808.3654
      -351.1564
  11444042.15848   8904753.95043  23016138.8114   23016138.3974
     -1797.9374
  -8546401.43547  -6637976.81845  22283739.4364   22283735.0494
      3571.2344
 -11456828.57849  -8918738.42848  20074874.3654   20074871.8224
       607.5944
 -16171471.62749 -12597779.48947  21066438.3574   21066436.2444
      3443.6884
 04  9 10 16 36 44.9980000  0  6G 1G11G14G23G25G20
 -13595551.32649 -10584994.70048  19988571.9284   19988570.2994
      1642.2664
  -5989255.82748  -4661337.04447  20958822.2644   20958819.3184
      -357.3594
  11470999.82748   8925759.87743  23021268.5374   23021268.2994
     -1796.3594
  -8599963.14247  -6679713.20445  22273546.6154   22273543.2294
      3570.4064
 -11465892.65849  -8925801.36148  20073149.6704   20073146.9044
       601.0164
 -16223115.01149 -12638021.07747  21056611.2174   21056608.7404
      3442.1724
 04  9 10 16 36 59.9980000  0  6G 1G11G14G23G25G20
 -13620170.89849 -10604178.77548  19983887.4284   19983885.7214
      1640.2344
  -5983856.34748  -4657129.67047  20959849.3344   20959847.6704
      -362.6564
  11497928.19748   8946742.98343  23026392.9434   23026392.6664
     -1794.1724
  -8653518.85047  -6721444.92045  22263355.1004   22263351.6044
      3570.3134
 -11474864.68949  -8932792.56348  20071442.2174   20071439.6274
       595.2344
 -16274742.20049 -12678250.05347  21046786.5764   21046784.7054
      3441.4224
 04  9 10 16 37 14.9980000  0  6G 1G11G14G23G25G20
 -13644754.09949 -10623334.51848  19979209.8184   19979207.7014
      1637.5634
  -5978370.27348  -4652854.82047  20960893.3814   20960890.8424
      -368.7034
  11524829.09748   8967704.69943  23031512.4514   23031511.9284
     -1792.5784
  -8707066.61447  -6763170.45445  22253165.5764   22253161.9044
      3569.5004
 -11483742.75349  -8939710.53248  20069752.6314   20069750.3144
       588.7194
 -16326350.92349 -12718464.63447  21036965.9204   21036963.5574
      3439.8914
 04  9 10 16 37 29.9980000  0  6G 1G11G14G23G25G20
 -13669299.93949 -10642461.14048  19974538.4754   19974536.8304
      1635.3284
  -5972796.80448  -4648511.87247  20961954.1784   20961951.2954
      -374.3284
  11551703.40948   8988645.67243  23036626.7254   23036625.6544
     -1790.5314
  -8760605.37447  -6804888.95645  22242977.3894   22242973.8544
      3569.1884
 -11492525.87549  -8946554.53248  20068081.4984   20068078.8774
       582.6254
 -16377939.86349 -12758663.80747  21027149.2794   21027147.0964
      3438.7974
 04  9 10 16 37 44.9980000  0  6G 1G11G14G23G25G20
 -13693814.73549 -10661563.58248  19969873.2484   19969871.9554
      1633.1884
  -5967142.34348  -4644105.81047  20963030.0454   20963027.8614
      -379.7664
  11578544.90648   9009561.09543  23041733.5684   23041734.0494
     -1788.5004
  -8814141.12047  -6846605.09745  22232789.7794   22232785.9904
      3568.8914
 -11501220.48349  -8953329.55148  20066427.1004   20066424.4904
       576.6094
 -16429515.07349 -12798852.26747  21017334.4984   21017332.1824
      3437.7814
 04  9 10 16 37 59.9980000  0  6G 1G11G14G23G25G20
 -13718294.81249 -10680638.97548  19965215.1394   19965213.2754
      1630.8444
  -5961403.45949  -4639633.97747  20964122.3184   20964119.6274
      -385.4224
  11605357.17748   9030453.73943  23046836.3114   23046836.3854
     -1786.5314
  -8867670.24447  -6888316.11745  22222604.1154   22222600.2484
      3568.4534
 -11509823.07849  -8960032.88348  20064790.1154   20064787.6504
       570.5004
 -16481072.60249 -12839026.97047  21007523.8974   21007521.6154
      3436.5164
 04  9 10 16 38 14.9980000  0  6G 1G11G14G23G25G20
 -13742736.41849 -10699684.37348  19960564.1704   19960561.9554
      1628.3284
  -5955576.54248  -4635093.52847  20965231.0294   20965228.7054
      -391.1724
  11632143.96048   9051326.49443  23051933.9754   23051933.2054
     -1784.7344
  -8921188.91547  -6930018.95445  22212419.0224   22212415.8694
      3567.8284
 -11518329.88548  -8966661.56648  20063171.1474   20063168.7724
       564.0784
 -16532608.46449 -12879184.77447  20997716.5534   20997714.4394
      3435.1884
 04  9 10 16 38 29.9980000  0  6G 1G11G14G23G25G20
 -13767141.45549 -10718701.28648  19955919.9984   19955917.9824
      1625.8594
  -5949663.62848  -4630486.08347  20966356.4204   20966353.7684
      -396.8914
  11658903.39648   9072177.95143  23057025.7324   23057025.5494
     -1782.9064
  -8974698.81547  -6971714.96645  22202236.7644   22202232.7444
      3567.1414
 -11526742.87549  -8973217.15148  20061570.1074   20061567.5804
       557.8914
 -16584124.23849 -12919326.93047  20987913.5614   20987911.1434
      3433.7814
 04  9 10 16 38 44.9980000  0  6G 1G11G14G23G25G20
 -13791507.91049 -10737688.14248  19951283.0764   19951280.9714
      1623.1414
  -5943662.92048  -4625810.23047  20967498.1544   20967495.9754
      -403.0314
  11685637.27848   9093009.51943  23062112.9984   23062112.8184
     -1781.4224
  -9028197.80447  -7013402.48245  22192056.0534   22192052.1504
      3566.2194
 -11535060.03849  -8979698.05648  20059987.6864   20059985.1544
       551.2664
 -16635617.51849 -12959451.56147  20978114.2874   20978112.1434
      3432.1254
 04  9 10 16 38 59.9980000  0  6G 1G11G14G23G25G20
 -13815837.29549 -10756646.09748  19946653.6624   19946651.4944
      1620.9224
  -5937575.99649  -4621067.18847  20968656.9514   20968654.1544
      -408.5474
  11712344.25548   9113820.10843  23067194.9984   23067195.0804
     -1779.3754
  -9081687.41547  -7055082.69545  22181877.3504   22181873.7604
      3565.8594
 -11543283.10449  -8986105.64748  20058422.4364   20058420.1664
       545.2344
 -16687089.59149 -12999559.65447  20968319.6004   20968317.3734
      3430.9384
 04  9 10 16 39 14.9980000  0  6G 1G11G14G23G25G20
 -13840132.24549 -10775577.22348  19942030.2564   19942028.4944
      1618.0004
  -5931405.70548  -4616259.18247  20969830.5684   20969828.1864
      -414.6254
  11739021.49048   9134607.52143  23072272.2644   23072271.5104
     -1777.9694
  -9135170.13147  -7096757.52945  22171700.4674   22171696.3574
      3564.8284
 -11551414.81849  -8992442.05448  20056875.2174   20056872.9594
       538.5944
 -16738542.75549 -13039653.02147  20958528.4984   20958526.0294
      3429.0784
 04  9 10 16 39 29.9980000  0  6G 1G11G14G23G25G20
 -13864388.83649 -10794478.46548  19937414.2724   19937412.7174
      1615.9844
  -5925148.24548  -4611383.25747  20971021.3034   20971018.9284
      -419.8754
  11765672.99248   9155374.88043  23077343.5614   23077343.2954
     -1775.6724
  -9188641.94547  -7138423.87945  22161524.8504   22161521.0844
      3564.6254
 -11559451.23049  -8998704.20148  20055346.0144   20055343.6624
       532.7194
 -16789972.80649 -13079728.38647  20948741.8184   20948739.4984
      3428.1094
 04  9 10 16 39 44.9980000  0  6G 1G11G14G23G25G20
 -13888610.16849 -10813352.23148  19932805.1474   19932803.3694
      1613.5474
  -5918806.74148  -4606441.83347  20972228.1004   20972225.7094
      -425.5474
  11792295.59648   9176119.72543  23082409.3504   23082409.3424
     -1773.8444
  -9242105.84647  -7180084.05645  22151350.7954   22151347.1394
      3564.1094
 -11567395.54849  -9004894.58248  20053834.2954   20053832.0144
       526.6094
 -16841382.51049 -13119787.89247  20938958.6474   20938956.4244
      3426.6414
 04  9 10 16 39 59.9980000  0  6G 1G11G14G23G25G20
 -13912798.73649 -10832200.47748  19928202.3814   19928200.5374
      1611.5474
  -5912384.05548  -4601437.15347  20973450.1234   20973447.7954
      -430.8594
  11818886.82448   9196840.12743  23087469.9514   23087469.8424
     -1771.6254
  -9295564.18647  -7221739.89145  22141177.8894   22141174.8774
      3563.6724
 -11575250.23749  -9011015.12448  20052339.6004   20052337.1974
       520.7194
 -16892774.23749 -13159833.38947  20929178.9124   20929176.7724
      3425.5474
 04  9 10 16 40 14.9980000  0  6G 1G11G14G23G25G20
 -13936957.24749 -10851025.28448  19923605.3734   19923603.0644
      1609.6094
  -5905882.92748  -4596371.34947  20974687.4984   20974685.0224
      -436.0314
  11845443.80648   9217533.83543  23092523.2954   23092523.1664
     -1769.2974
  -9349019.50647  -7263393.36245  22131005.9434   22131002.1704
      3563.6414
 -11583018.20449  -9017068.08848  20050861.3184   20050858.9864
       515.0634
 -16944150.30449 -13199866.68347  20919402.6784   20919400.4124
      3424.5314
 04  9 10 16 40 29.9980000  0  6G 1G11G14G23G25G20
 -13961080.20849 -10869822.40748  19919014.5224   19919012.5684
      1607.2034
  -5899298.01348  -4591240.26947  20975940.6864   20975938.3034
      -441.6254
  11871972.10848   9238205.19343  23097571.7324   23097571.5254
     -1767.4534
  -9402466.32647  -7305040.23245  22120834.7794   22120831.8034
      3563.0004
 -11590693.86249  -9023049.12848  20049400.7324   20049398.0964
       508.7814
 -16995504.92849 -13239883.27247  20909630.5534   20909628.1584
      3423.0474
 04  9 10 16 40 44.9980000  0  6G 1G11G14G23G25G20
 -13985167.87649 -10888592.00848  19914430.7794   19914429.1864
      1604.6254
  -5892629.82948  -4586044.29647  20977209.4284   20977207.2484
      -447.4224
  11898471.54048   9258854.06043  23102614.3894   23102613.9984
     -1765.7034
  -9455904.72747  -7346680.52345  22110666.0614   22110662.2754
      3562.2194
 -11598277.53149  -9028958.47648  20047957.5224   20047955.1624
       502.5474
 -17046837.89049 -13279882.97747  20899861.9364   20899859.7444
      3421.4694
 04  9 10 16 40 59.9980000  0  6G 1G11G14G23G25G20
 -14009220.41249 -10907334.24948  19909854.1314   19909852.2174
      1602.2504
  -5885878.62848  -4580783.63147  20978493.9984   20978491.9714
      -452.9224
  11924941.90248   9279480.28143  23107651.4594   23107651.2564
     -1763.7664
  -9509334.79147  -7388314.32845  22100499.1234   22100495.5964
      3561.6094
 -11605769.37549  -9034796.27448  20046532.1314   20046529.6194
       496.3754
 -17098149.13949 -13319865.75547  20890097.8034   20890095.6274
      3419.9844
 04  9 10 16 41 14.9980000  0  6G 1G11G14G23G25G20
 -14033238.14849 -10926049.36848  19905283.3574   19905281.6274
      1600.2974
  -5879044.88048  -4575458.64947  20979794.8034   20979792.7754
      -458.0164
  11951382.78348   9300083.51843  23112682.9044   23112682.8814
     -1761.4844
  -9562756.67147  -7429941.76045  22090332.7174   22090329.1234
      3561.4694
 -11613169.89249  -9040562.92548  20045123.7174   20045121.2174
       490.5474
 -17149438.73049 -13359831.66647  20880337.5144   20880335.2754
      3418.8284
 04  9 10 16 41 29.9980000  0  6G 1G11G14G23G25G20
 -14057223.02149 -10944738.88248  19900719.1474   19900717.3344
      1597.8754
  -5872130.65748  -4570070.95647  20981110.2794   20981107.7564
      -463.5474
  11977792.22248   9320662.27743  23117708.6544   23117708.5884
     -1759.5314
  -9616172.26647  -7471564.30745  22080168.6004   22080164.5884
      3560.8914
 -11620481.08148  -9046259.96748  20043732.2324   20043730.3614
       484.4384
 -17200708.23849 -13399781.93247  20870581.6544   20870578.7994
      3417.3284
 04  9 10 16 41 44.9980000  0  6G 1G11G14G23G25G20
 -14081173.57749 -10963401.65548  19896161.9594   19896160.2684
      1595.6414
  -5865134.71249  -4564619.59847  20982441.9824   20982439.2914
      -469.1094
  12004171.77448   9341217.70343  23122728.6314   23122728.8544
     -1757.6564
  -9669579.96247  -7513180.69345  22070005.3184   22070001.8934
      3560.2504
 -11627701.54949  -9051886.31648  20042358.4594   20042356.3074
       478.3754
 -17251955.92949 -13439715.19547  20860829.4904   20860827.0884
      3415.8134
 04  9 10 16 41 59.9980000  0  6G 1G11G14G23G25G20
 -14105092.68049 -10982039.92648  19891610.0614   19891607.9594
      1593.4694
  -5858060.07748  -4559106.90647  20983787.9514   20983785.6744
      -474.3444
  12030518.37648   9361747.49743  23127742.3574   23127742.0614
     -1755.5004
  -9722982.60547  -7554793.13345  22059843.1704   22059839.0334
      3559.9534
 -11634834.30549  -9057444.30448  20041001.0614   20040998.5884
       472.4534
 -17303184.41449 -13479633.49547  20851080.9674   20851078.7914
      3414.4384
 04  9 10 16 42 14.9980000  0  6G 1G11G14G23G25G20
 -14128977.84149 -11000651.74148  19887064.4904   19887063.1004
      1591.2194
  -5850904.38048  -4553531.04447  20985149.5374   20985147.6274
      -479.7034
  12056834.67047   9382253.66343  23132749.4514   23132749.9674
     -1753.4844
  -9776377.44347  -7596399.48345  22049682.0684   22049678.1194
      3559.4064
 -11641876.92548  -9062932.06148  20039661.1074   20039658.6474
       466.5164
 -17354390.84248 -13519534.59647  20841336.5844   20841334.6744
      3412.9694
 04  9 10 16 42 29.9980000  0  6G 1G11G14G23G25G20
 -14152827.84949 -11019236.16148  19882526.2954   19882524.5574
      1588.5474
  -5843666.51748  -4547891.16747  20986526.7794   20986524.4824
      -485.5944
  12083121.79948   9402737.11443  23137752.2324   23137751.8144
     -1751.7664
  -9829763.29747  -7637998.82945  22039522.8734   22039519.6194
      3558.5004
 -11648828.28649  -9068348.71048  20038338.2094   20038335.7754
       460.0314
 -17405573.66849 -13559417.31847  20831596.6864   20831594.7094
      3411.0784
 04  9 10 16 42 44.9980000  0  6G 1G11G14G23G25G20
 -14176642.22949 -11037792.82948  19877994.5224   19877992.4324
      1586.3914
  -5836346.39948  -4542187.20347  20987919.8734   20987917.8424
      -490.8284
  12109380.14047   9423198.10343  23142748.3034   23142748.7134
     -1749.6254
  -9883139.59047  -7679590.71545  22029365.9514   22029362.7524
      3558.0314
 -11655687.97949  -9073693.93748  20037032.8974   20037030.6234
       454.1724
 -17456732.17049 -13599281.08347  20821861.8344   20821859.1664
      3409.7194
 04  9 10 16 42 59.9980000  0  6G 1G11G14G23G25G20
 -14200422.28149 -11056322.73748  19873469.4364   19873467.7404
      1584.1254
  -5828945.33748  -4536420.15447  20989328.3184   20989326.1544
      -496.1724
  12135608.44147   9443635.70643  23147741.1234   23147740.7754
     -1747.5944
  -9936507.48347  -7721176.07245  22019210.4984   22019207.0684
      3557.5004
 -11662457.30849  -9078968.74648  20035744.7644   20035742.0764
       448.2504
 -17507867.33149 -13639126.65247  20812130.9284   20812128.7294
      3408.1724
 04  9 10 16 43 14.9980000  0  6G 1G11G14G23G25G20
 -14224167.23449 -11074825.30148  19868950.9124   19868949.3694
      1581.2814
  -5821462.84748  -4530589.65947  20990752.0454   20990750.0804
      -502.0624
  12161807.30847   9464050.35542  23152725.7484   23152725.4944
     -1746.2034
  -9989866.20948  -7762754.28345  22009057.0294   22009052.9984
      3556.4224
 -11669135.65549  -9084172.65648  20034473.6544   20034471.5254
       441.5784
 -17558978.10648 -13678953.22147  20802404.9124   20802402.8504
      3406.0474
 04  9 10 16 43 29.9980000  0  6G 1G11G14G23G25G20
 -14247878.24549 -11093301.41548  19864438.8184   19864437.0494
      1579.7344
  -5813900.11648  -4524696.62847  20992191.2484   20992189.4164
      -506.7504
  12187975.70447   9484441.28543  23157705.6784   23157705.0884
     -1743.4224
 -10043216.63548  -7804326.05645  21998904.8814   21998900.4084
      3556.5004
 -11675724.15848  -9089306.56148  20033219.8264   20033217.6044
       436.4384
 -17610065.33149 -13718761.45347  20792683.3574   20792681.2754
      3405.1414
 04  9 10 16 43 44.9980000  0  6G 1G11G14G23G25G20
 -14271553.71449 -11111749.84148  19859933.4754   19859931.7724
      1577.4064
  -5806255.78949  -4518740.02047  20993646.1314   20993643.6154
      -512.1414
  12214115.13948   9504809.63743  23162679.5294   23162679.6154
     -1741.4374
 -10096557.12148  -7845890.05345  21988753.9044   21988750.3974
      3555.9384
 -11682221.32949  -9094369.30348  20031983.7724   20031981.4044
       430.3134
 -17661127.09349 -13758549.83047  20782966.4594   20782964.2834
      3403.4844
 04  9 10 16 43 59.9980000  0  6G 1G11G14G23G25G20
 -14295200.05149 -11130175.55848  19855433.8574   19855431.7874
      1575.1724
  -5798536.33048  -4512724.87047  20995115.0924   20995113.1474
      -517.3754
  12240219.26748   9525150.49042  23167647.8504   23167647.1894
     -1739.4224
 -10149893.99948  -7887451.24945  21978604.2174   21978600.3504
      3555.4064
 -11688633.73549  -9099365.98148  20030763.4124   20030760.9394
       424.4064
 -17712169.40049 -13798323.05347  20773253.6784   20773251.5064
      3401.9064
 04  9 10 16 44 14.9980000  0  6G 1G11G14G23G25G20
 -14318811.13549 -11148573.81048  19850940.7174   19850939.0534
      1573.0634
  -5790735.98548  -4506646.67947  20996599.4044   20996597.1824
      -522.5624
  12266294.20647   9545468.59342  23172609.3424   23172608.9364
     -1737.2664
 -10203221.10348  -7929004.82245  21968456.6004   21968452.9944
      3555.0314
 -11694955.26849  -9104291.86248  20029560.3974   20029558.4864
       418.5944
 -17763185.90148 -13838076.15947  20763545.2094   20763543.0684
      3400.3444
 04  9 10 16 44 29.9980000  0  6G 1G11G14G23G25G20
 -14342390.30649 -11166947.19048  19846453.5144   19846452.0964
      1570.8444
  -5782858.14248  -4500508.13546  20998098.9044   20998096.3114
      -527.8444
  12292336.59447   9565761.33242  23177564.4824   23177564.4944
     -1735.1724
 -10256541.53147  -7970553.22145  21958309.9514   21958305.9794
      3554.3284
 -11701189.18649  -9109149.47748  20028374.1314   20028371.4634
       412.5784
 -17814179.48349 -13877811.42147  20753841.6864   20753839.0064
      3398.7034
 04  9 10 16 44 44.9980000  0  6G 1G11G14G23G25G20
 -14365933.86449 -11185292.82048  19841973.4754   19841971.6474
      1568.3444
  -5774899.31148  -4494306.44847  20999612.9124   20999610.9634
      -533.2504
  12318350.17548   9586031.62243  23182515.8034   23182514.5724
     -1733.2814
 -10309851.47547  -8012093.42645  21948165.2014   21948162.0534
      3553.5944
 -11707332.07649  -9113936.13948  20027205.1474   20027202.8074
       406.5164
 -17865146.28449 -13917525.80047  20744143.0684   20744140.5924
      3396.9224
 04  9 10 16 44 59.9980000  0  6G 1G11G14G23G25G20
 -14389445.19649 -11203613.34748  19837499.4434   19837497.7684
      1566.3444
  -5766862.96149  -4488044.37147  21001142.2254   21001139.6934
      -538.3124
  12344331.52447   9606276.77942  23187459.6474   23187459.3544
     -1730.9844
 -10363154.26848  -8053628.05145  21938022.5144   21938018.8384
      3553.2974
 -11713387.36949  -9118654.55348  20026052.7724   20026050.4244
       400.8754
 -17916089.38549 -13957221.71947  20734449.0374   20734446.6864
      3395.4694
 04  9 10 16 45 14.9980000  0  6G 1G11G14G23G25G20
 -14412923.60649 -11221908.21748  19833031.8734   19833029.8974
      1564.0004
  -5758748.67448  -4481721.57447  21002686.6704   21002684.6784
      -543.7664
  12370281.29347   9626497.34743  23192397.1314   23192397.5764
     -1729.0784
 -10416449.09148  -8095156.47245  21927880.9204   21927877.0884
      3552.5474
 -11719354.42249  -9123304.21848  20024917.4904   20024915.0924
       394.6564
 -17967007.73149 -13996898.35247  20724759.7564   20724757.1394
      3393.5634
 04  9 10 16 45 29.9980000  0  6G 1G11G14G23G25G20
 -14436364.79949 -11240174.08548  19828570.9364   19828568.9394
      1561.3914
  -5750552.18548  -4475334.71747  21004246.2874   21004243.6784
      -549.4224
  12396203.66247   9646696.52943  23197330.3574   23197330.5614
     -1727.4694
 -10469731.55948  -8136675.26145  21917741.4984   21917737.4824
      3551.5784
 -11725229.04849  -9127881.85648  20023799.5924   20023797.2054
       388.3444
 -18017896.78149 -14036552.14747  20715075.9044   20715073.1974
      3391.4384
 04  9 10 16 45 44.9980000  0  6G 1G11G14G23G25G20
 -14459773.25549 -11258414.44148  19824116.6934   19824114.7684
      1559.6414
  -5742278.25348  -4468887.51947  21005821.0454   21005818.0254
      -553.9844
  12422094.17147   9666870.93142  23202257.3814   23202256.9364
     -1724.7504
 -10523006.04448  -8178187.83745  21907603.6314   21907599.6234
      3551.4694
 -11731015.88349  -9132391.08248  20022698.5924   20022696.1114
       383.0164
 -18068760.70349 -14076186.36347  20705396.5684   20705394.3114
      3390.2664
 04  9 10 16 45 59.9980000  0  6G 1G11G14G23G25G20
 -14483148.94049 -11276629.26548  19819668.5924   19819666.6584
      1557.4844
  -5733927.02348  -4462380.07647  21007410.0534   21007407.2834
      -559.1564
  12447952.98347   9687020.63242  23207177.3574   23207177.9474
     -1722.7034
 -10576272.38148  -8219694.06345  21897466.9904   21897463.5064
      3550.9534
 -11736714.87249  -9136831.85148  20021614.0454   20021611.5884
       377.1884
 -18119599.06849 -14115800.66547  20695722.4824   20695719.8384
      3388.5634
 04  9 10 16 46 14.9980000  0  6G 1G11G14G23G25G20
 -14506489.63249 -11294816.83648  19815226.6784   19815225.2324
      1554.8914
  -5725496.50448  -4455810.86047  21009014.2724   21009011.6504
      -564.6874
  12473782.12847   9707147.18242  23212092.5454   23212093.1864
     -1720.8754
 -10629528.22848  -8261192.12645  21887333.1934   21887329.5104
      3550.1254
 -11742323.90849  -9141202.54448  20020546.5764   20020543.8574
       370.9844
 -18170409.42848 -14155393.15447  20686053.5064   20686051.2364
      3386.4694
 04  9 10 16 46 29.9970000  0  6G 1G11G14G23G25G20
 -14529795.27349 -11312977.06948  19810791.5714   19810790.2084
      1552.2664
  -5716988.87648  -4449181.55046  21010633.1104   21010630.5994
      -570.1874
  12499578.51247   9727248.23142  23217001.4544   23217001.7674
     -1719.2664
 -10682771.52348  -8302680.37345  21877200.9624   21877197.5054
      3549.0944
 -11747844.27949  -9145504.13548  20019495.8684   20019493.6924
       364.7034
 -18221189.48048 -14194962.01947  20676390.2904   20676387.9384
      3384.3134
 04  9 10 16 46 44.9970000  0  6G 1G11G14G23G25G20
 -14553060.07649 -11331105.49248  19806364.8684   19806362.9504
      1549.5944
  -5708394.25148  -4442484.44647  21012268.8924   21012266.6814
      -575.8914
  12525354.38447   9747333.25143  23221906.9704   23221907.4314
     -1717.7034
 -10736000.32648  -8344157.34845  21867071.5874   21867067.9894
      3547.9064
 -11753267.92549  -9149730.36448  20018463.8844   20018461.6424
       358.3594
 -18271936.83949 -14234505.41447  20666733.6814   20666730.8844
      3381.9064
 04  9 10 16 46 59.9970000  0  6G 1G11G14G23G25G20
 -14576289.75949 -11349206.55248  19801944.0484   19801942.3134
      1547.0314
  -5699720.84248  -4435725.96946  21013919.2284   21013916.9814
      -581.2344
  12551100.75147   9767395.32143  23226806.1814   23226806.9624
     -1715.8594
 -10789218.23548  -8385625.85445  21856945.3454   21856940.7554
      3547.1414
 -11758601.73649  -9153886.59748  20017449.0324   20017446.7354
       352.2194
 -18322655.24248 -14274026.25147  20657082.2044   20657079.3964
      3379.8594
 04  9 10 16 47 14.9970000  0  6G 1G11G14G23G25G20
 -14599481.30949 -11367277.89648  19797531.1424   19797528.9504
      1544.9844
  -5690965.71648  -4428903.81646  21015585.2124   21015583.1384
      -586.2974
  12576820.60446   9787436.70942  23231700.1574   23231700.7594
     -1713.6564
 -10842422.23648  -8427083.49545  21846821.1184   21846816.6814
      3546.5944
 -11763842.91849  -9157970.64148  20016451.7434   20016449.1734
       346.4224
 -18373341.21248 -14313521.80147  20647436.4234   20647434.3844
      3378.0944
 04  9 10 16 47 29.9970000  0  6G 1G11G14G23G25G20
 -14622635.91749 -11385320.45348  19793124.7204   19793123.1884
      1542.5634
  -5682130.18348  -4422018.99946  21017266.8294   21017264.4114
      -591.5474
  12602512.80446   9807456.54142  23236590.0014   23236590.0444
     -1711.7034
 -10895613.27448  -8468531.04645  21836698.9384   21836695.1464
      3545.7504
 -11768992.65749  -9161983.42948  20015471.6734   20015468.9784
       340.4694
 -18423995.56548 -14352992.72147  20637797.4544   20637795.1964
      3376.0474
 04  9 10 16 47 44.9970000  0  6G 1G11G14G23G25G20
 -14645756.84249 -11403336.76248  19788725.2824   19788723.1854
      1540.2974
  -5673217.69948  -4415074.22946  21018962.4464   21018960.1424
      -596.7664
  12628174.13446   9827452.37842  23241472.5794   23241473.5054
     -1709.7034
 -10948794.51348  -8509970.96345  21826579.0094   21826574.7314
      3545.1414
 -11774054.29349  -9165927.57348  20014508.4854   20014506.0874
       334.5314
 -18474621.36748 -14392441.40347  20628163.6574   20628161.1064
      3374.1094
 04  9 10 16 47 59.9970000  0  6G 1G11G14G23G25G20
 -14668846.28449 -11421328.53848  19784331.3994   19784329.5564
      1538.2344
  -5664230.73349  -4408071.39947  21020672.7354   21020670.4074
      -601.5944
  12653802.34546   9847422.31342  23246349.7284   23246349.7434
     -1707.4844
 -11001968.16348  -8551404.96445  21816460.0244   21816456.1464
      3544.6724
 -11779030.11349  -9169804.83948  20013561.3764   20013558.8684
       328.8594
 -18525220.45449 -14431869.24747  20618534.8684   20618532.3414
      3372.3594
 04  9 10 16 48 14.9970000  0  6G 1G11G14G23G25G20
 -14691898.07849 -11439290.97748  19779944.8134   19779942.7824
      1535.5634
  -5655163.15248  -4401005.77646  21022398.3604   21022395.8764
      -607.1414
  12679403.67646   9867371.37042  23251221.1424   23251222.0874
     -1705.7814
 -11055127.73648  -8592827.99645  21806343.9464   21806340.4544
      3543.5634
 -11783913.96949  -9173610.44348  20012632.2124   20012629.4314
       322.5784
 -18575786.24048 -14471271.15347  20608912.7824   20608910.0484
      3369.9534
 04  9 10 16 48 29.9970000  0  6G 1G11G14G23G25G20
 -14714909.45049 -11457221.92548  19775565.9704   19775563.8134
      1532.6724
  -5646012.42049  -4393875.35147  21024139.6184   21024137.6344
      -612.9694
  12704980.73446   9887301.48442  23256088.7204   23256089.4544
     -1704.4224
 -11108270.46248  -8634237.90045  21796231.0244   21796227.0674
      3542.1564
 -11788703.36049  -9177342.45648  20011720.9784   20011718.5874
       316.0314
 -18626315.75349 -14510644.79947  20599297.1884   20599294.5244
      3367.3754
 04  9 10 16 48 44.9970000  0  6G 1G11G14G23G25G20
 -14737883.34049 -11475123.66448  19771194.0404   19771192.1964
      1530.1884
  -5636781.62848  -4386682.53347  21025896.0874   21025893.6424
      -618.2034
  12730530.60846   9907210.37642  23260950.7284   23260951.1924
     -1702.6254
 -11161399.17448  -8675636.89045  21786121.3534   21786117.3064
      3541.1564
 -11793401.44649  -9181003.31148  20010827.0244   20010824.4784
       310.0004
 -18676811.66249 -14549992.25547  20589688.4854   20589685.5564
      3365.0944
 04  9 10 16 48 59.9970000  0  6G 1G11G14G23G25G20
 -14760818.67349 -11492995.36048  19766829.5174   19766828.3214
      1527.7664
  -5627470.11049  -4379426.82247  21027668.2044   21027665.4854
      -623.4224
  12756054.28846   9927098.95442  23265807.7434   23265808.2514
     -1700.6564
 -11214512.76048  -8717024.07945  21776014.1344   21776009.6144
      3540.4064
 -11798007.08449  -9184592.12848  20009950.4624   20009947.9624
       303.9534
 -18727272.56949 -14589312.44547  20580086.1344   20580083.3174
      3362.9534
 04  9 10 16 49 14.9970000  0  6G 1G11G14G23G25G20
 -14783716.60949 -11510837.91448  19762472.4074   19762470.3764
      1525.2034
  -5618079.05949  -4372109.13647  21029455.1734   21029452.8134
      -628.7814
  12781550.71746   9946966.25643  23270660.7674   23270659.5714
     -1699.0164
 -11267612.23548  -8758400.29145  21765909.7674   21765905.0674
      3539.3914
 -11802521.51449  -9188109.87248  20009091.4934   20009088.8104
       297.8594
 -18777699.14749 -14628605.87247  20570489.9784   20570487.5174
      3360.4534
 04  9 10 16 49 29.9970000  0  6G 1G11G14G23G25G20
 -14806576.59649 -11528650.89548  19758122.2284   19758120.3374
      1522.6884
  -5608608.05349  -4364729.14047  21031257.6424   21031255.0524
      -634.1564
  12807020.45846   9966812.80643  23275507.3064   23275506.7204
     -1697.0944
 -11320696.98448  -8799765.02145  21755807.9704   21755803.6034
      3538.4694
 -11806944.25649  -9191556.17148  20008250.0014   20008247.5954
       291.7814
 -18828090.70649 -14667872.02047  20560900.8604   20560898.3684
      3358.2194
 04  9 10 16 49 44.9970000  0  6G 1G11G14G23G25G20
 -14829399.03849 -11546434.62248  19753779.2824   19753777.1104
      1520.1254
  -5599057.67749  -4357287.29847  21033074.8294   21033071.7744
      -639.4224
  12832463.03846   9986638.11843  23280348.2904   23280348.3104
     -1695.4224
 -11373767.29148  -8841118.50045  21745709.2204   21745704.8604
      3537.5634
 -11811275.84649  -9194931.44148  20007425.6104   20007423.0404
       285.7034
 -18878447.31849 -14707110.93747  20551318.4624   20551316.0484
      3355.8754
 04  9 10 16 49 59.9970000  0  6G 1G11G14G23G25G20
 -14852185.26549 -11564190.12548  19749443.0794   19749441.7864
      1517.6094
  -5589429.61849  -4349784.93347  21034906.7904   21034904.6694
      -644.7194
  12857877.07246  10006441.22443  23285185.0794   23285184.2904
     -1693.5624
 -11426824.30748  -8882461.63145  21735612.5564   21735608.2864
      3536.4534
 -11815517.75149  -9198236.82648  20006618.0714   20006615.7354
       279.5634
 -18928769.92749 -14746323.35247  20541742.3994   20541739.8214
      3353.4534
 04  9 10 16 50 14.9970000  0  6G 1G11G14G23G25G20
 -14874932.01849 -11581914.87248  19745114.5954   19745112.7124
      1515.4224
  -5579720.77149  -4342219.62147  21036755.0174   21036752.8924
      -649.6414
  12883265.83946  10026224.64943  23290016.2824   23290016.0714
     -1691.3914
 -11479864.76948  -8923791.84145  21725519.2514   21725515.8884
      3535.7344
 -11819666.83249  -9201469.89048  20005828.8374   20005826.3644
       273.8594
 -18979055.04149 -14785506.56247  20532172.9704   20532170.4154
      3351.3594
 04  9 10 16 50 29.9970000  0  6G 1G11G14G23G25G20
 -14897647.42749 -11599615.20048  19740791.8454   19740790.3254
      1513.0634
  -5569939.48149  -4334597.86346  21038615.7594   21038613.6144
      -654.5944
  12908621.33246  10045982.12242  23294841.6884   23294840.8134
     -1689.5314
 -11532896.59948  -8965115.33545  21715427.7284   21715423.6924
      3534.8594
 -11823731.22849  -9204636.96648  20005055.3134   20005052.8294
       267.8914
 -19029310.46549 -14824666.62647  20522609.8994   20522607.1464
      3349.0314
 04  9 10 16 50 44.9970000  0  6G 1G11G14G23G25G20
 -14920324.86849 -11617285.93748  19736476.3374   19736474.5714
      1510.6884
  -5560079.08049  -4326914.43846  21040492.2284   21040489.3844
      -659.8754
  12933950.16846  10065718.83343  23299661.0874   23299661.2244
     -1687.5314
 -11585913.18548  -9006426.94445  21705338.9784   21705334.9854
      3534.0634
 -11827704.39249  -9207732.93948  20004299.3994   20004296.7784
       261.8914
 -19079529.16949 -14863798.09347  20513053.7204   20513050.9354
      3346.8134
 04  9 10 16 50 59.9970000  0  6G 1G11G14G23G25G20
 -14942964.96249 -11634927.57048  19732168.2124   19732166.6304
      1508.2194
  -5550140.64049  -4319170.21446  21042383.5794   21042381.3534
      -664.9844
  12959251.66846  10085434.26243  23304475.8764   23304476.1964
     -1685.7814
 -11638914.90948  -9047726.98745  21695253.0174   21695249.3024
      3533.0784
 -11831587.01049  -9210758.36448  20003560.4154   20003558.1854
       255.9534
 -19129711.42949 -14902901.13747  20503504.3214   20503501.3334
      3344.4384
 04  9 10 16 51 14.9970000  0  6G 1G11G14G23G25G20
 -14965565.95549 -11652538.74248  19727867.6814   19727865.7824
      1505.5164
  -5540122.56848  -4311363.95046  21044290.0564   21044287.3334
      -670.4694
  12984527.60046  10105129.73243  23309285.4704   23309285.2044
     -1684.1094
 -11691900.02048  -9089014.07545  21685170.1104   21685166.0754
      3531.8594
 -11835377.68049  -9213712.14148  20002839.3604   20002837.0244
       249.7194
 -19179855.26749 -14941974.26047  20493962.2354   20493959.5364
      3341.6884
 04  9 10 16 51 29.9970000  0  6G 1G11G14G23G25G20
 -14988130.20649 -11670121.27648  19723573.8134   19723571.7514
      1502.7194
  -5530027.29049  -4303497.52046  21046211.1344   21046208.6184
      -675.9374
  13009775.57646  10124803.43943  23314090.1184   23314090.1224
     -1682.5944
 -11744870.69248  -9130289.90945  21675090.3844   21675086.1034
      3530.5314
 -11839078.67549  -9216596.04648  20002135.0714   20002132.3134
       243.4224
 -19229962.69849 -14981019.00547  20484427.0564   20484424.7354
      3338.9064
 04  9 10 16 51 44.9970000  0  6G 1G11G14G23G25G20
 -15010656.09149 -11687673.91748  19719287.1814   19719285.6694
      1500.3594
  -5519853.50748  -4295569.90246  21048146.8134   21048144.5284
      -680.9694
  13034997.16847  10144456.59243  23318889.9854   23318889.5244
     -1680.7194
 -11797825.30248  -9171553.23045  21665013.3294   21665009.4894
      3529.6884
 -11842688.64749  -9219409.00548  20001447.9784   20001445.5714
       237.5474
 -19280031.82549 -15020033.89947  20474899.2984   20474896.7124
      3336.5784
 04  9 10 16 51 59.9970000  0  6G 1G11G14G23G25G20
 -15033147.27249 -11705199.51848  19715007.0014   19715005.5714
      1498.3444
  -5509605.00148  -4287584.07246  21050096.9544   21050094.5524
      -685.6724
  13060188.72547  10164086.32943  23323683.3604   23323684.0714
     -1678.4064
 -11850767.36348  -9212806.77745  21654938.7514   21654934.4814
      3529.1414
 -11846211.32649  -9222153.96148  20000777.7124   20000775.4424
       232.0634
 -19330065.99949 -15059021.57347  20465377.9544   20465375.3134
      3334.5164
 04  9 10 16 52 14.9970000  0  6G 1G11G14G23G25G20
 -15055601.76849 -11722696.54248  19710734.3994   19710732.5754
      1495.9224
  -5499279.93748  -4279538.58946  21052062.1734   21052059.7314
      -690.7194
  13085352.31846  10183694.29443  23328472.0404   23328472.2394
     -1676.4224
 -11903694.77048  -9254048.89245  21644867.1424   21644863.6224
      3528.1254
 -11849644.83149  -9224829.42748  20000124.2514   20000121.8374
       226.0474
 -19380062.94549 -15097980.22447  20455863.7594   20455861.4544
      3332.0004
 04  9 10 16 52 29.9970000  0  6G 1G11G14G23G25G20
 -15078018.59549 -11740164.20648  19706468.6184   19706466.6034
      1493.1564
  -5488877.63848  -4271432.92446  21054041.2434   21054039.0914
      -696.0624
  13110488.90746  10203281.19043  23333255.2514   23333255.9074
     -1674.7974
 -11956606.50048  -9295278.80445  21634798.2824   21634794.1614
      3526.8754
 -11852988.27449  -9227434.70948  19999487.7984   19999485.5284
       219.8914
 -19430021.29849 -15136908.80847  20446357.1814   20446354.5484
      3329.2664
 04  9 10 16 52 44.9970000  0  6G 1G11G14G23G25G20
 -15100401.39549 -11757605.34948  19702209.1574   19702207.0674
      1490.8914
  -5478401.95948  -4263270.07346  21056035.2744   21056032.7784
      -701.0474
  13135594.87546  10222844.22543  23338032.2354   23338032.9744
     -1672.9064
 -12009505.96248  -9336499.14845  21624732.0014   21624728.1224
      3526.1724
 -11856245.31149  -9229972.67148  19998868.0014   19998865.9814
       214.0784
 -19479944.28449 -15175809.83647  20436857.0324   20436854.4114
      3326.8284
 04  9 10 16 52 59.9970000  0  6G 1G11G14G23G25G20
 -15122752.38849 -11775021.71148  19697955.8844   19697954.3884
      1489.1884
  -5467855.38348  -4255051.97246  21058041.9464   21058039.8134
      -705.2814
  13160667.94746  10242381.63743  23342803.3684   23342804.1534
     -1670.3124
 -12062395.39048  -9377711.66246  21614667.0244   21614663.3454
      3525.7814
 -11859418.47749  -9232445.26548  19998264.2984   19998262.0834
       208.9224
 -19529833.92949 -15214684.87047  20427363.6184   20427360.9814
      3325.0634
 04  9 10 16 53 14.9970000  0  6G 1G11G14G23G25G20
 -15145069.34749 -11792411.55248  19693708.8994   19693707.1694
      1486.5944
  -5457235.77948  -4246776.97546  21060062.8844   21060060.7204
      -710.4374
  13185710.34846  10261895.16942  23347569.2594   23347569.6614
     -1668.5624
 -12115272.36248  -9418914.48046  21604605.0874   21604601.1884
      3524.6724
 -11862505.54049  -9234850.76748  19997676.7594   19997674.3684
       202.9064
 -19579687.70349 -15253531.96147  20417876.3374   20417873.8534
      3322.3444
 04  9 10 16 53 29.9970000  0  6G 1G11G14G23G25G20
 -15167349.60549 -11809772.79348  19689469.4854   19689467.5634
      1484.2814
  -5446540.69548  -4238443.17246  21062098.4154   21062095.6104
      -715.3594
  13210724.79346  10281386.89442  23352329.2284   23352329.4424
     -1666.5314
 -12168134.19248  -9460105.50546  21594546.0324   21594542.2744
      3523.7504
 -11865503.88349  -9237187.16248  19997106.4784   19997103.8454
       197.0474
 -19629502.58649 -15292348.75047  20408396.9854   20408394.4354
      3319.8284
 04  9 10 16 53 44.9970000  0  6G 1G11G14G23G25G20
 -15189596.87049 -11827108.33448  19685235.9314   19685233.6344
      1482.1254
  -5435774.04148  -4230053.58546  21064146.6034   21064144.8104
      -720.2034
  13235707.54446  10300853.92742  23357083.8454   23357084.3644
     -1664.3444
 -12220984.46748  -9501287.51946  21584488.7284   21584484.3964
      3522.9224
 -11868417.31849  -9239457.38148  19996552.0954   19996549.3924
       191.4064
 -19679281.98049 -15331137.87947  20398924.3064   20398921.9544
      3317.3914
 04  9 10 16 53 59.9970000  0  6G 1G11G14G23G25G20
 -15211810.51249 -11844417.68148  19681009.0324   19681006.9424
      1479.5784
  -5424935.39648  -4221607.91146  21066209.4704   21066207.3724
      -725.1874
  13260659.14546  10320296.71842  23361832.6344   23361831.6734
     -1662.7664
 -12273822.47448  -9542459.97345  21574433.9934   21574429.7004
      3521.9384
 -11871245.42249  -9241661.10548  19996013.6654   19996011.3064
       185.4064
 -19729024.96449 -15369898.65347  20389458.4234   20389456.4114
      3314.7344
 04  9 10 16 54 14.9970000  0  6G 1G11G14G23G25G20
 -15233986.48249 -11861697.65648  19676788.8064   19676786.9234
      1477.5164
  -5414020.94849  -4213103.16847  21068286.6574   21068284.3644
      -729.8124
  13285583.76146  10339718.41642  23366575.0874   23366575.4854
     -1660.3444
 -12326644.05748  -9583619.62745  21564382.1964   21564378.2354
      3521.2664
 -11873984.32849  -9243795.31548  19995492.7204   19995490.2084
       179.9534
 -19778727.13849 -15408627.60747  20380000.6424   20379998.0994
      3312.5004
 04  9 10 16 54 29.9970000  0  6G 1G11G14G23G25G20
 -15256130.24649 -11878952.53948  19672575.0874   19672573.3294
      1475.0474
  -5403036.38848  -4204543.78947  21070376.7284   21070374.9464
      -734.7194
  13310475.87546  10359114.84442  23371311.1734   23371311.9784
     -1658.5314
 -12379454.48548  -9624770.61545  21554332.8454   21554329.0214
      3520.1564
 -11876639.48049  -9245864.27748  19994987.4854   19994984.9464
       174.1414
 -19828393.60549 -15447328.75447  20370549.3134   20370547.1534
      3309.7194
 04  9 10 16 54 44.9970000  0  6G 1G11G14G23G25G20
 -15278235.20249 -11896177.18148  19668368.5634   19668366.8534
      1472.2344
  -5391975.29948  -4195924.77546  21072481.7904   21072479.4384
      -740.0944
  13335342.07146  10378491.06942  23376043.0244   23376043.6924
     -1656.9224
 -12432247.18348  -9665907.76746  21544286.2984   21544283.2714
      3518.8594
 -11879204.46349  -9247862.96848  19994499.3764   19994496.8844
       167.9384
 -19878017.56849 -15485996.76747  20361106.1034   20361103.8534
      3306.7504
 04  9 10 16 54 59.9970000  0  5G 1G11G23G25G20
 -15300304.15649 -11913373.78048  19664169.0564   19664167.4424
      1469.9384
  -5380840.69249  -4187248.48146  21074600.6494   21074597.6964
      -744.8914
 -12485024.76147  -9707033.13946  21534243.2124   21534239.1654
      3517.8134
 -11881682.18649  -9249793.67748  19994027.7514   19994025.4074
       162.1094
 -19927601.37249 -15524633.49747  20351670.3374   20351668.0404
      3304.0944
 04  9 10 16 55 14.9970000  0  5G 1G11G23G25G20
 -15322339.96149 -11930544.53948  19659976.1184   19659973.7244
      1467.8134
  -5369635.70948  -4178517.33246  21076732.4784   21076730.7124
      -749.4844
 -12537790.01548  -9748148.91346  21524202.5484   21524198.7204
      3517.0784
 -11884075.67549  -9251658.73948  19993572.3844   19993569.5484
       156.5944
 -19977147.63549 -15563240.96447  20342242.3684   20342239.9894
      3301.6884
 04  9 10 16 55 29.9970000  0  5G 1G11G23G25G20
 -15344340.58249 -11947687.88648  19655789.0094   19655786.9814
      1465.3914
  -5358358.47248  -4169729.90146  21078878.7354   21078876.5834
      -754.4374
 -12590540.79948  -9789253.40746  21514164.3684   21514160.8644
      3516.0474
 -11886383.03849  -9253456.69448  19993133.1104   19993130.8494
       150.7974
 -20026654.02149 -15601817.37047  20332821.5094   20332819.3844
      3299.0164
 04  9 10 16 55 44.9970000  0  5G 1G11G23G25G20
 -15366303.90949 -11964802.17048  19651609.7744   19651608.2674
      1463.1724
  -5347006.90949  -4160884.54346  21081039.0174   21081036.3104
      -759.0164
 -12643274.86648  -9830344.86846  21504129.2204   21504125.5244
      3515.1884
 -11888602.18149  -9255185.88848  19992710.9934   19992708.3134
       145.2814
 -20076118.02549 -15640360.73847  20323408.7434   20323406.5834
      3296.4064
 04  9 10 16 55 59.9970000  0  5G 1G11G23G25G20
 -15388231.05249 -11981888.27248  19647437.2824   19647435.1264
      1460.7974
  -5335582.46948  -4151982.42246  21083212.6344   21083210.5244
      -763.9064
 -12695993.22448  -9871424.09945  21494096.9234   21494093.5214
      3514.1884
 -11890734.34649  -9256847.33348  19992305.2984   19992302.8764
       139.4224
 -20125540.36749 -15678871.65547  20314004.1814   20314001.8024
      3293.6094
 04  9 10 16 56 14.9970000  0  5G 1G11G23G25G20
 -15410121.32849 -11998945.62548  19643271.5714   19643270.0874
      1458.3914
  -5324084.76249  -4143023.16346  21085400.8374   21085398.4384
      -768.6724
 -12748695.04748  -9912490.44746  21484068.8684   21484064.4744
      3513.1724
 -11892778.98849  -9258440.56248  19991916.2124   19991913.6344
       133.6414
 -20174920.13749 -15717349.38547  20304607.4314   20304605.1424
      3290.7664
 04  9 10 16 56 29.9970000  0  5G 1G11G23G25G20
 -15431977.22249 -12015976.19448  19639112.5094   19639110.1034
      1455.8754
  -5312516.42048  -4134008.90146  21087601.8994   21087599.3884
      -773.6874
 -12801382.85748  -9953545.88046  21474042.2904   21474038.5874
      3511.9224
 -11894738.73149  -9259967.64548  19991543.2744   19991540.8494
       127.7034
 -20224259.53849 -15755795.67347  20295218.6574   20295216.6064
      3287.8444
 04  9 10 16 56 44.9970000  0  5G 1G11G23G25G20
 -15453797.68949 -12032979.15948  19634960.1184   19634958.1694
      1453.8284
  -5300876.69748  -4124938.99946  21089817.1494   21089814.9974
      -778.0164
 -12854055.47048  -9994589.46546  21464019.0014   21464015.0524
      3511.4064
 -11896612.77549  -9261427.94048  19991186.4624   19991183.9894
       122.4064
 -20273557.14549 -15794209.38247  20285837.1344   20285835.1184
      3285.4384
 04  9 10 16 56 59.9970000  0  5G 1G11G23G25G20
 -15475581.15849 -12049953.30248  19630814.9624   19630813.2514
      1451.2194
  -5289164.12748  -4115812.33146  21092045.9234   21092043.7864
      -783.0004
 -12906711.13248 -10035619.82945  21453999.0484   21453995.2394
      3510.0314
 -11898399.52749  -9262820.22348  19990846.5484   19990844.6464
       116.4534
 -20322811.05849 -15832589.05447  20276464.6494   20276462.9074
      3282.3914
 04  9 10 16 57 14.9970000  0  5G 1G11G23G25G20
 -15497326.35849 -12066897.61648  19626677.1104   19626674.8924
      1448.6254
  -5277377.69249  -4106628.12446  21094288.7354   21094286.9234
      -787.9534
 -12959348.54248 -10076635.98846  21443982.4704   21443978.8104
      3508.7814
 -11900097.81949  -9264143.56848  19990523.2904   19990521.0484
       110.5004
 -20372019.87749 -15870933.57647  20267100.6654   20267098.4664
      3279.3134
 04  9 10 16 57 29.9970000  0  5G 1G11G23G25G20
 -15519036.13649 -12083814.34148  19622545.8844   19622543.8564
      1446.0634
  -5265520.26149  -4097388.57746  21096545.3294   21096543.1654
      -792.9064
 -13011970.38148 -10117640.01346  21433968.7904   21433964.7904
      3507.4694
 -11901710.72049  -9265400.38548  19990216.7824   19990214.0994
       104.5784
 -20421185.93249 -15909244.78647  20257744.7594   20257742.4274
      3276.1724
 04  9 10 16 57 44.9970000  0  5G 1G11G23G25G20
 -15540709.49349 -12100702.67048  19618421.5564   19618419.6654
      1443.6724
  -5253591.34249  -4088093.34546  21098815.7204   21098813.4314
      -797.6724
 -13064575.66048 -10158631.10746  21423958.2744   21423954.2944
      3506.5164
 -11903237.35949  -9266589.98348  19989925.8604   19989924.0524
        98.9064
 -20470307.96149 -15947521.68847  20248396.9784   20248394.6534
      3273.2974
 04  9 10 16 57 59.9970000  0  5G 1G11G23G25G20
 -15562346.88349 -12117562.97448  19614304.0404   19614302.0364
      1441.4064
  -5241591.56149  -4078742.88246  21101098.9074   21101096.7904
      -802.1414
 -13117164.77848 -10199609.62846  21413950.9314   21413947.3254
      3505.5314
 -11904678.28149  -9267712.79048  19989651.9784   19989649.7244
        93.3914
 -20519386.14349 -15985764.41647  20239057.7744   20239055.6424
      3270.5474
 04  9 10 16 58 14.9970000  0  5G 1G11G23G25G20
 -15583949.80349 -12134396.42948  19610193.3214   19610191.5324
      1438.4534
  -5229522.67148  -4069338.57946  21103395.3604   21103392.8374
      -807.4064
 -13169739.01848 -10240576.55445  21403946.3064   21403942.2044
      3503.8914
 -11906035.24149  -9268770.16348  19989393.5484   19989391.2354
        87.1094
 -20568421.60249 -16023973.86147  20229726.4934   20229724.4544
      3267.0944
 04  9 10 16 58 29.9970000  0  5G 1G11G23G25G20
 -15605515.31249 -12151200.72448  19606089.2904   19606087.7004
      1436.5474
  -5217381.82049  -4059878.19046  21105706.0954   21105703.7474
      -811.7034
 -13222295.19148 -10281529.40646  21393945.5634   21393941.4354
      3503.1724
 -11907305.30849  -9269759.83948  19989152.0324   19989149.7004
        81.8914
 -20617411.00749 -16062147.41747  20220404.3374   20220402.1734
      3264.5634
 04  9 10 16 58 44.9970000  0  5G 1G11G23G25G20
 -15627041.69949 -12167974.53748  19601993.0094   19601990.9354
      1434.0784
  -5205167.54149  -4050360.59446  21108030.2744   21108028.1034
      -816.3914
 -13274831.54448 -10322466.82546  21383947.8454   21383943.4034
      3502.0784
 -11908486.92149  -9270680.58048  19988927.2744   19988924.8724
        76.1414
 -20666352.36549 -16100283.53947  20211091.1734   20211089.1184
      3261.4384
 04  9 10 16 58 59.9970000  0  5G 1G11G23G25G20
 -15648532.08949 -12184720.30648  19597903.5564   19597901.7004
      1431.5164
  -5192883.28249  -4040788.47046  21110367.8844   21110365.1924
      -821.3124
 -13327351.22948 -10363391.23846  21373954.1104   21373950.1464
      3500.7194
 -11909583.25549  -9271534.88148  19988718.3764   19988715.8534
        70.2814
 -20715248.48549 -16138384.41447  20201786.5014   20201784.1104
      3258.1884
 04  9 10 16 59 14.9970000  0  5G 1G11G23G25G20
 -15669985.93449 -12201437.59848  19593820.8064   19593819.0674
      1428.4844
  -5180528.57549  -4031161.43946  21112718.8534   21112716.6104
      -826.5474
 -13379853.50448 -10404302.08246  21363962.9934   21363958.8534
      3499.0784
 -11910594.04149  -9272322.51448  19988526.1424   19988523.7744
        64.0784
 -20764098.51749 -16176449.36647  20192490.8844   20192488.3804
      3254.6414
 04  9 10 16 59 29.9970000  0  5G 1G11G23G25G20
 -15691398.59549 -12218122.78848  19589746.3534   19589744.4744
      1426.3444
  -5168099.09149  -4021476.15146  21115084.1264   21115082.0794
      -830.9064
 -13432333.72748 -10445195.74446  21353976.0564   21353971.9664
      3498.1564
 -11911514.69249  -9273039.90748  19988351.0244   19988348.5634
        58.5784
 -20812897.46549 -16214474.51547  20183204.5874   20183202.2864
      3251.6884
 04  9 10 16 59 44.9970000  0  5G 1G11G23G25G20
 -15712777.66249 -12234781.80348  19585677.8374   19585676.0604
      1423.9844
  -5155602.61549  -4011738.65946  21117462.2124   21117459.8374
      -835.5004
 -13484799.35148 -10486078.03546  21343992.5244   21343988.5954
      3497.0634
 -11912352.85249  -9273693.03548  19988191.4464   19988189.2044
        52.9844
 -20861652.64549 -16252465.54947  20173926.7354   20173924.2554
      3248.7034
 04  9 10 16 59 59.9970000  0  5G 1G11G23G25G20
 -15734119.42949 -12251411.75648  19581616.8454   19581614.9544
      1421.4534
  -5143035.65849  -4001946.24646  21119853.3134   21119851.1654
      -840.2194
 -13537246.43348 -10526945.86446  21334011.3604   21334007.9744
      3495.7504
 -11913105.06849  -9274279.17748  19988048.3534   19988046.0754
        47.1254
 -20910360.01149 -16290419.33247  20164657.6264   20164655.8534
      3245.4064
 04  9 10 17  0 14.9970000  0  5G 1G11G23G25G20
 -15755421.43349 -12268010.73648  19577563.1104   19577561.4114
      1418.9224
  -5130396.08949  -3992097.24846  21122258.4784   21122256.7594
      -844.9374
 -13589672.56748 -10567797.39646  21324035.8764   21324031.5604
      3494.5314
 -11913768.97349  -9274796.50848  19987921.9234   19987919.5444
        41.4534
 -20959016.85749 -16328333.76147  20155398.8134   20155396.5134
      3242.2344
 04  9 10 17  0 29.9970000  0  5G 1G11G23G25G20
 -15776683.40949 -12284578.51648  19573517.0954   19573514.9974
      1416.2344
  -5117683.73849  -3982191.54546  21124677.7824   21124675.7984
      -849.8594
 -13642077.34148 -10608632.27346  21314063.4074   21314059.4114
      3493.1094
 -11914344.50949  -9275244.99448  19987812.4314   19987810.0134
        35.5004
 -21007622.51749 -16366208.29447  20146149.3534   20146147.1574
      3238.7974
 04  9 10 17  0 44.9970000  0  5G 1G11G23G25G20
 -15797908.57949 -12301117.61248  19569478.1574   19569476.3064
      1413.8134
  -5104902.10549  -3972231.85646  21127109.8994   21127107.8924
      -854.3594
 -13694463.91148 -10649452.96646  21304094.9544   21304090.7044
      3491.8284
 -11914834.95849  -9275627.16648  19987718.9854   19987716.7434
        29.8444
 -21056179.95249 -16404045.24647  20136909.1574   20136906.9704
      3235.5004
 04  9 10 17  0 59.9970000  0  5G 1G11G23G25G20
 -15819096.58349 -12317627.76048  19565446.4074   19565444.2354
      1410.9384
  -5092051.02649  -3962218.05646  21129555.4234   21129553.3964
      -859.3914
 -13746831.80048 -10690259.10746  21294128.6964   21294125.3374
      3490.2034
 -11915240.11349  -9275942.88548  19987642.2124   19987640.1264
        23.8134
 -21104688.41249 -16441844.05347  20127678.6034   20127676.1344
      3231.8754
 04  9 10 17  1 14.9970000  0  5G 1G11G23G25G20
 -15840247.14549 -12334108.70548  19561421.4704   19561419.4894
      1408.8444
  -5079130.55749  -3952150.16746  21132014.4544   21132011.9934
      -863.6414
 -13799180.67648 -10731050.42246  21284167.3534   21284164.0404
      3489.3284
 -11915559.90149  -9276192.07048  19987581.2674   19987578.8644
        18.5164
 -21153147.34749 -16479604.24447  20118456.8844   20118454.6574
      3229.0004
 04  9 10 17  1 29.9970000  0  5G 1G11G23G25G20
 -15861357.58549 -12350558.41048  19557404.2824   19557402.0524
      1406.2814
  -5066138.19849  -3942026.27446  21134486.6034   21134484.3294
      -868.3444
 -13851507.71348 -10771824.72346  21274209.9934   21274206.5014
      3487.9844
 -11915791.68649  -9276372.69448  19987537.2354   19987534.4314
        12.7664
 -21201553.71749 -16517323.48747  20109245.4854   20109243.3564
      3225.6254
 04  9 10 17  1 44.9970000  0  5G 1G11G23G25G20
 -15882430.27349 -12366978.70148  19553394.5564   19553392.5604
      1403.6884
  -5053076.58349  -3931848.41546  21136972.2434   21136970.0244
      -873.0004
 -13903815.20848 -10812583.80846  21264256.6264   21264252.2594
      3486.6094
 -11915937.90549  -9276486.64448  19987509.3604   19987506.8644
         6.9694
 -21249909.62649 -16555003.41948  20100043.6964   20100041.2314
      3222.1414
 04  9 10 17  1 59.9970000  0  5G 1G11G23G25G20
 -15903468.56049 -12383372.17548  19549390.4934   19549388.8294
      1401.3594
  -5039949.26449  -3921619.36246  21139470.2904   21139467.4664
      -877.2974
 -13956106.27848 -10853330.08246  21254305.6654   21254301.6924
      3485.5004
 -11916002.24349  -9276536.78448  19987497.0094   19987494.8134
         1.5634
 -21298218.04449 -16592646.33547  20090850.8214   20090848.3374
      3218.9384
 04  9 10 17  2 14.9970000  0  5G 1G11G23G25G20
 -15924469.77749 -12399736.75848  19545394.0404   19545392.0914
      1398.8914
  -5026753.62249  -3911337.05046  21141981.5094   21141979.4784
      -881.8754
 -14008378.19249 -10894061.43146  21244358.5954   21244354.7784
      3484.2344
 -11915982.11949  -9276521.09848  19987500.8604   19987498.1774
        -4.0474
 -21346475.97349 -16630249.89947  20081667.8684   20081665.1494
      3215.5634
 04  9 10 17  2 29.9970000  0  5G 1G11G23G25G20
 -15945432.93449 -12416071.69048  19541405.1884   19541403.2554
      1396.4064
  -5013488.99349  -3901000.99546  21144505.4544   21144503.0284
      -886.5164
 -14060629.83849 -10934776.97746  21234415.3684   21234411.4814
      3482.8444
 -11915876.71249  -9276438.98648  19987520.7044   19987518.2714
        -9.8444
 -21394682.13449 -16667813.14347  20072494.1574   20072491.9744
      3212.0784
 04  9 10 17  2 44.9970000  0  5G 1G11G23G25G20
 -15966358.99849 -12432377.72248  19537423.1494   19537421.0754
      1393.7814
  -5000156.70849  -3890612.22246  21147042.5484   21147040.5754
      -891.1564
 -14112862.38248 -10975477.66046  21224475.5874   21224471.9464
      3481.4384
 -11915687.18449  -9276291.31048  19987556.8374   19987554.5954
       -15.5164
 -21442837.22949 -16705336.58247  20063330.7514   20063328.1854
      3208.5784
 04  9 10 17  2 59.9970000  0  5G 1G11G23G25G20
 -15987248.17149 -12448655.00648  19533448.1424   19533446.1224
      1391.6414
  -4986757.18649  -3880171.04946  21149592.5874   21149589.7244
      -895.3444
 -14165075.70549 -11016163.35646  21214539.7824   21214535.7394
      3480.3914
 -11915413.66649  -9276078.18348  19987608.8214   19987606.7744
       -20.8444
 -21490941.12949 -16742820.14547  20054176.7904   20054174.5674
      3205.4224
 04  9 10 17  3 14.9970000  0  5G 1G11G23G25G20
 -16008099.60749 -12464902.88948  19529480.4154   19529478.0794
      1388.7814
  -4973289.88249  -3869677.06346  21152155.3844   21152153.0874
      -900.1874
 -14217268.92149 -11056833.37546  21204607.6344   21204603.5714
      3478.8914
 -11915055.62149  -9275799.20048  19987676.8994   19987674.8254
       -26.7034
 -21538992.65549 -16780262.88847  20045032.9544   20045030.2594
      3201.6884
 04  9 10 17  3 29.9970000  0  5G 1G11G23G25G20
 -16028913.65449 -12481121.62348  19525519.5954   19525517.5014
      1386.4844
  -4959755.28249  -3859130.62846  21154730.8374   21154728.8764
      -904.4534
 -14269442.23249 -11097487.89346  21194679.8454   21194675.7944
      3477.6254
 -11914613.45249  -9275454.65748  19987761.3214   19987759.0634
       -32.1564
 -21586991.75949 -16817664.78247  20035898.9784   20035896.8534
      3198.2974
 04  9 10 17  3 44.9970000  0  5G 1G11G23G25G20
 -16049694.66449 -12497314.62748  19521564.8064   19521562.9894
      1384.2664
  -4946157.66449  -3848535.10446  21157318.4544   21157316.2824
      -908.5624
 -14321599.90849 -11138130.22946  21184754.4314   21184750.3964
      3476.6564
 -11914091.88149  -9275048.25148  19987860.5014   19987858.1144
       -37.4064
 -21634942.55749 -16855029.03847  20026774.4234   20026771.6694
      3195.0944
 04  9 10 17  3 59.9970000  0  5G 1G11G23G25G20
 -16070441.99449 -12513481.38348  19517616.9704   19517614.9854
      1381.9064
  -4932497.13949  -3837890.56146  21159918.0174   21159915.8994
      -912.9534
 -14373741.19949 -11178759.79146  21174832.1034   21174828.0874
      3475.4064
 -11913490.27749  -9274579.48548  19987975.0954   19987973.0604
       -42.9534
 -21682843.98649 -16892354.81947  20017659.0174   20017656.5954
      3191.6094
 04  9 10 17  4 14.9970000  0  5G 1G11G23G25G20
 -16091150.97949 -12529618.26648  19513675.7674   19513673.7824
      1379.0164
  -4918769.16049  -3827193.44146  21162530.3134   21162527.8994
      -917.7344
 -14425861.29648 -11219372.83546  21164914.0484   21164910.2044
      3473.6724
 -11912804.09049  -9274044.80648  19988105.7204   19988103.2314
       -48.8754
 -21730691.15849 -16929638.32047  20008553.7204   20008551.4154
      3187.6884
 04  9 10 17  4 29.9970000  0  5G 1G11G23G25G20
 -16111822.72849 -12545726.12548  19509742.3064   19509740.2714
      1377.2344
  -4904974.92849  -3816444.71746  21165154.8294   21165152.8604
      -921.4224
 -14477961.16749 -11259970.11446  21154999.8684   21154996.0174
      3473.0004
 -11912034.54949  -9273445.16448  19988251.8684   19988249.8214
       -53.7194
 -21778484.80349 -16966880.11747  19999459.1104   19999456.6384
      3184.7974
 04  9 10 17  4 44.9970000  0  5G 1G11G23G25G20
 -16132460.78349 -12561807.73548  19505814.9934   19505812.8024
      1374.7344
  -4891118.26849  -3805647.33746  21167792.3064   21167789.7394
      -925.8444
 -14530044.29349 -11300554.35546  21145088.6424   21145084.8724
      3471.6414
 -11911185.37849  -9272783.48848  19988413.9314   19988411.2474
       -59.2664
 -21826228.19949 -17004082.76047  19990374.0564   19990371.0874
      3181.2344
 04  9 10 17  4 59.9970000  0  5G 1G11G23G25G20
 -16153064.35249 -12577862.45648  19501894.2744   19501892.4194
      1372.1094
  -4877198.70649  -3794800.94246  21170440.4624   21170438.5054
      -930.2664
 -14582109.77649 -11341124.85246  21135181.3684   21135177.0214
      3470.1254
 -11910255.94949  -9272059.26048  19988590.6654   19988588.4894
       -64.8444
 -21873920.16449 -17041245.32747  19981298.4384   19981295.5484
      3177.5314
 04  9 10 17  5 14.9970000  0  5G 1G11G23G25G20
 -16173628.71749 -12593886.63948  19497981.3064   19497979.4814
      1369.7664
  -4863211.67349  -3783901.97746  21173102.8534   21173100.6574
      -934.6564
 -14634152.79749 -11381677.83146  21125277.4544   21125273.1654
      3468.8754
 -11909241.61449  -9271268.87948  19988783.4154   19988781.3724
       -70.3754
 -21921555.66149 -17078363.88548  19972233.7674   19972231.1384
      3173.8754
 04  9 10 17  5 29.9970000  0  5G 1G11G23G25G20
 -16194156.05949 -12609881.96948  19494074.8374   19494073.1494
      1367.2974
  -4849159.63249  -3772952.35646  21175776.3994   21175774.5134
      -938.8914
 -14686175.56749 -11422215.04146  21115377.8374   21115373.7164
      3467.6094
 -11908144.91149  -9270414.31248  19988992.3684   19988990.0364
       -75.8124
 -21969136.61949 -17115439.96047  19963179.1814   19963176.8064
      3170.2504
 04  9 10 17  5 44.9970000  0  5G 1G11G23G25G20
 -16214651.25549 -12625852.26348  19490174.6034   19490172.8374
      1365.0004
  -4835047.67149  -3761956.04446  21178462.2354   21178460.0174
      -943.0314
 -14738182.69549 -11462740.06046  21105481.3454   21105477.2864
      3466.3754
 -11906970.61749  -9269499.28748  19989215.7984   19989213.8294
       -81.1094
 -22016667.53649 -17152477.02947  19954134.6884   19954131.9784
      3166.8134
 04  9 10 17  5 59.9970000  0  5G 1G11G23G25G20
 -16235110.35649 -12641794.42248  19486281.4234   19486279.6854
      1362.8594
  -4820871.97449  -3750910.06946  21181160.0564   21181157.4274
      -947.0164
 -14790170.29948 -11503249.85146  21095587.7124   21095584.1854
      3465.2974
 -11905715.05149  -9268520.93548  19989454.5174   19989452.7124
       -86.2974
 -22064144.09449 -17189471.74047  19945099.9934   19945097.5994
      3163.3914
 04  9 10 17  6 14.9970000  0  5G 1G11G23G25G20
 -16255534.27849 -12657709.16948  19482395.0094   19482393.2634
      1360.2814
  -4806633.93349  -3739815.51346  21183869.0014   21183866.5214
      -951.4064
 -14842139.16249 -11543745.06146  21085698.9384   21085695.4074
      3463.8444
 -11904379.35949  -9267480.15048  19989708.9704   19989706.8884
       -91.8914
 -22111567.03049 -17226424.67247  19936075.5324   19936073.0364
      3159.6254
 04  9 10 17  6 29.9970000  0  5G 1G11G23G25G20
 -16275918.02649 -12673592.61048  19478516.1734   19478513.8174
      1357.4534
  -4792328.65549  -3728668.56846  21186591.0324   21186588.8254
      -956.0474
 -14894084.07249 -11584221.59546  21075813.9384   21075810.3334
      3462.0784
 -11902958.57849  -9266373.05348  19989979.1104   19989976.9584
       -97.6564
 -22158930.86949 -17263331.56047  19927062.8374   19927060.3174
      3155.5004
 04  9 10 17  6 44.9970000  0  5G 1G11G23G25G20
 -16296265.45149 -12689447.75348  19474644.2434   19474642.2434
      1355.2814
  -4777960.40149  -3717472.53946  21189325.5094   21189323.2944
      -959.8914
 -14946009.00349 -11624682.56146  21065933.0244   21065929.3104
      3461.0314
 -11901456.84149  -9265202.88248  19990265.0564   19990262.8564
      -102.7974
 -22206239.32049 -17300195.28347  19918060.0174   19918057.3454
      3152.1094
 04  9 10 17  6 59.9970000  0  5G 1G11G23G25G20
 -16316576.24249 -12705274.35148  19470779.1494   19470777.1104
      1352.6564
  -4763529.05749  -3706227.36646  21192071.9384   21192069.4234
      -964.3444
 -14997913.33849 -11665127.48446  21056056.3134   21056052.1534
      3459.4694
 -11899873.95849  -9263969.48048  19990566.1814   19990564.1064
      -108.3444
 -22253491.70649 -17337015.32447  19909068.2044   19909065.5094
      3148.1094
 04  9 10 17  7 14.9970000  0  5G 1G11G23G25G20
 -16336852.80549 -12721074.28348  19466920.6814   19466918.7714
      1350.2814
  -4749037.31949  -3694935.11146  21194829.4234   21194827.4074
      -968.5624
 -15049799.55149 -11705558.29846  21046183.0174   21046178.0604
      3458.0004
 -11898212.53149  -9262674.87948  19990882.7744   19990879.9074
      -113.8444
 -22300690.19249 -17373793.36647  19900086.7824   19900084.0444
      3144.3754
 04  9 10 17  7 29.9970000  0  5G 1G11G23G25G20
 -16357095.48949 -12736847.78748  19463068.3764   19463067.1034
      1348.2034
  -4734485.54849  -3683596.08146  21197598.8374   21197596.0994
      -972.2664
 -15101667.78649 -11745975.07846  21036312.4704   21036308.7784
      3457.1564
 -11896473.10549  -9261319.48348  19991213.6654   19991211.1884
      -118.6724
 -22347834.64249 -17410529.28048  19891115.4314   19891112.5874
      3141.0164
 04  9 10 17  7 44.9970000  0  5G 1G11G23G25G20
 -16377303.26649 -12752594.11748  19459223.1574   19459221.2674
      1346.4064
  -4719873.11949  -3672209.78546  21200379.3134   21200377.0284
      -975.7504
 -15153516.91948 -11786376.98446  21026445.4464   21026441.4424
      3456.3134
 -11894654.75849  -9259902.60348  19991559.2824   19991557.1574
      -123.4534
 -22394923.73449 -17447222.08047  19882154.7744   19882152.2244
      3137.8134
 04  9 10 17  7 59.9970000  0  6G 1G11G16G23G25G20
 -16397479.01749 -12768315.49448  19455383.7744   19455381.9584
      1344.1724
  -4705203.16249  -3660778.66146  21203170.9314   21203168.4894
      -979.7504
   -155236.54356   -112623.76152  23069697.8294   23069698.5834
      4322.5004
 -15205349.74249 -11826766.17946  21016582.2594   21016578.1964
      3455.1094
 -11892760.48949  -9258426.56848  19991919.8374   19991917.9384
      -128.6564
 -22441960.09449 -17483873.79447  19873204.0874   19873201.4934
      3134.1094
 04  9 10 17  8 14.9970000  0  6G 1G11G16G23G25G20
 -16417620.11349 -12784009.86248  19451551.0174   19451549.1344
      1341.7034
  -4690473.36149  -3649300.91546  21205973.4234   21205971.5014
      -983.8914
   -220073.73946   -163146.19243  23057360.2824   23057360.1854
      4323.0004
 -15257163.58348 -11867140.57946  21006721.9624   21006718.3494
      3453.6884
 -11890787.84449  -9256889.45648  19992295.0244   19992292.9154
      -133.9224
 -22488940.76849 -17520482.10848  19864263.8374   19864261.1964
      3130.2974
 04  9 10 17  8 29.9960000  0  6G 1G11G16G23G25G20
 -16437728.02349 -12799678.35748  19447724.4814   19447722.6604
      1339.5944
  -4675687.60549  -3637779.57346  21208787.5744   21208785.5314
      -987.7504
   -284919.05946   -213675.01143  23045020.8014   23045019.7584
      4323.6254
 -15308957.62349 -11907499.55746  20996866.1604   20996862.4144
      3452.5944
 -11888739.93649  -9255293.69548  19992685.2774   19992683.0474
      -139.1724
 -22535865.01549 -17557046.45348  19855334.8014   19855331.7424
      3126.5944
 04  9 10 17  8 44.9960000  0  6G 1G11G16G23G25G20
 -16457797.87749 -12815317.21848  19443905.5744   19443903.3914
      1336.9694
  -4660836.62549  -3626207.39046  21211613.7854   21211611.2664
      -991.9224
   -349773.28447   -264210.70243  23032679.3634   23032678.9844
      4324.0944
 -15360731.18149 -11947842.56546  20987013.8404   20987010.0234
      3451.0314
 -11886609.03649  -9253633.26148  19993090.5744   19993088.3284
      -144.6094
 -22582731.32949 -17593565.65548  19846415.8714   19846413.6414
      3122.6414
 04  9 10 17  8 59.9960000  0  6G 1G11G16G23G25G20
 -16477834.35749 -12830930.05948  19440092.6294   19440090.6254
      1334.5004
  -4645927.75749  -3614590.11246  21214450.5044   21214448.3954
      -996.1094
   -414637.57546   -314754.26443  23020335.8794   23020335.9454
      4324.4694
 -15412486.72049 -11988171.52946  20977165.3014   20977161.1524
      3449.5314
 -11884401.58149  -9251913.17448  19993510.9264   19993508.3204
      -149.8914
 -22629542.23349 -17630041.67648  19837508.4574   19837505.6174
      3118.6414
 04  9 10 17  9 14.9960000  0  6G 1G11G16G23G25G20
 -16497835.20249 -12846515.14448  19436286.7854   19436285.0044
      1331.8444
  -4630959.10949  -3602926.26346  21217298.7704   21217296.9224
     -1000.2814
   -479509.20546   -365303.56843  23007990.9024   23007990.8404
      4324.6564
 -15464221.86448 -12028484.62246  20967320.1604   20967316.2424
      3447.9224
 -11882115.47249  -9250131.81048  19993945.7704   19993943.5084
      -155.4064
 -22676295.24449 -17666472.59748  19828611.6374   19828608.6024
      3114.5314
 04  9 10 17  9 29.9960000  0  6G 1G11G16G23G25G20
 -16517797.93149 -12862070.51548  19432487.9414   19432486.2154
      1329.8754
  -4615928.25949  -3591213.93446  21220159.4654   21220157.3794
     -1003.7974
   -544385.27746   -415856.31543  22995645.7154   22995645.1684
      4325.4694
 -15515933.95948 -12068779.72846  20957479.4734   20957475.7734
      3447.0004
 -11879748.33449  -9248287.29448  19994395.9024   19994393.7814
      -160.1564
 -22722987.45549 -17702856.11548  19819726.2154   19819723.3674
      3111.0944
 04  9 10 17  9 44.9960000  0  6G 1G11G16G23G25G20
 -16537726.05749 -12877598.93448  19428695.4734   19428693.8794
      1327.1884
  -4600838.98149  -3579456.07146  21223030.7774   21223028.8954
     -1008.0004
   -609268.82446   -466414.86343  22983299.4884   22983298.7734
      4325.8134
 -15567626.42149 -12109059.55546  20947642.8954   20947639.0984
      3445.3444
 -11877303.81449  -9246382.49148  19994861.1764   19994859.1604
      -165.7344
 -22769622.07049 -17739194.77748  19810851.9814   19810849.4924
      3106.9064
 04  9 10 17  9 59.9960000  0  6G 1G11G16G23G25G20
 -16557616.48249 -12893097.96448  19424910.6524   19424908.6064
      1324.5164
  -4585688.59849  -3567650.60246  21225913.3954   21225911.9454
     -1012.3284
   -674156.27746   -516976.45743  22970950.9814   22970951.6174
      4325.5314
 -15619296.19549 -12149321.69946  20937810.5274   20937806.5204
      3443.6254
 -11874779.13849  -9244415.22448  19995341.5744   19995339.5474
      -171.2814
 -22816195.73449 -17775485.94148  19801989.3874   19801986.5514
      3102.5944
 04  9 10 17 10 14.9960000  0  6G 1G11G16G23G25G20
 -16577466.19249 -12908565.28848  19421133.4104   19421131.3284
      1322.0474
  -4570474.18849  -3555795.24246  21228809.2074   21228807.1804
     -1016.3594
   -739044.24246   -567538.47343  22958603.0744   22958603.2584
      4325.8754
 -15670940.12549 -12189563.69446  20927982.9184   20927978.8244
      3442.0784
 -11872171.33649  -9242383.18748  19995837.8714   19995835.6214
      -176.5624
 -22862705.08349 -17811726.98748  19793138.9104   19793136.3914
      3098.5474
 04  9 10 17 10 29.9960000  0  6G 1G11G16G23G25G20
 -16597279.36549 -12924004.11848  19417363.2934   19417361.5204
      1319.7974
  -4555200.24649  -3543893.48446  21231715.7384   21231713.2314
     -1020.1724
   -803936.40947   -618103.78143  22946254.4654   22946254.4774
      4326.4064
 -15722562.28249 -12229788.73246  20918159.2384   20918155.3204
      3440.8754
 -11869484.78449  -9240289.78248  19996349.0354   19996346.9814
      -181.5944
 -22909153.94149 -17847920.89648  19784300.0204   19784297.0394
      3094.7034
 04  9 10 17 10 44.9960000  0  6G 1G11G16G23G25G20
 -16617054.22549 -12939413.10948  19413600.0824   19413598.2934
      1317.0634
  -4539865.29649  -3531944.19746  21234633.7154   21234631.5274
     -1024.3594
   -868830.48446   -668670.56243  22933905.6134   22933904.7934
      4326.3594
 -15774160.80548 -12269995.35346  20908340.9024   20908336.8204
      3439.1094
 -11866717.75149  -9238133.66648  19996875.5274   19996873.3594
      -187.1414
 -22955540.22349 -17884066.04748  19775473.2464   19775470.3364
      3090.3134
 04  9 10 17 10 59.9960000  0  6G 1G11G16G23G25G20
 -16636788.88349 -12954790.76048  19409844.6524   19409842.7234
      1314.2664
  -4524467.59549  -3519946.01246  21237564.0984   21237561.5594
     -1028.5624
   -933724.18247   -719237.02943  22921556.4104   22921556.4184
      4326.2814
 -15825733.59449 -12310181.92946  20898526.6764   20898522.2464
      3437.3444
 -11863868.60949  -9235913.57848  19997417.8714   19997415.5634
      -192.6724
 -23001861.73449 -17920160.72948  19766658.1764   19766655.7344
      3085.9064
 04  9 10 17 11 14.9960000  0  6G 1G11G16G23G25G20
 -16656485.30149 -12970138.62548  19406096.3564   19406094.7704
      1311.7664
  -4509009.39549  -3507900.68646  21240505.9024   21240503.6064
     -1032.5784
   -998619.05147   -769804.41143  22909207.4104   22909207.1334
      4326.2814
 -15877282.59648 -12350349.98246  20888717.6134   20888713.0004
      3435.6884
 -11860939.53649  -9233631.19148  19997975.1994   19997973.1644
      -198.0314
 -23048120.22149 -17956206.30048  19757855.4884   19757852.8244
      3081.7504
 04  9 10 17 11 29.9960000  0  6G 1G11G16G23G25G20
 -16676143.40849 -12985456.63548  19402355.7234   19402354.3444
      1309.2344
  -4493491.03449  -3495808.47546  21243458.6994   21243456.5354
     -1036.5624
  -1063514.57247   -820372.31243  22896858.7624   22896857.9574
      4326.3444
 -15928807.67748 -12390499.39146  20878912.1994   20878907.8794
      3434.1564
 -11857930.44849  -9231286.47148  19998548.0594   19998545.7704
      -203.2504
 -23094315.21749 -17992202.40148  19749065.0044   19749062.4064
      3077.5474
 04  9 10 17 11 44.9960000  0  6G 1G11G16G23G25G20
 -16695762.79449 -13000744.46848  19398622.2384   19398620.5394
      1307.1564
  -4477912.30349  -3483669.21846  21246423.0744   21246421.2154
     -1040.0624
  -1128409.92146   -870940.08442  22884508.6914   22884508.0434
      4326.8134
 -15980308.32249 -12430629.73246  20869112.2934   20869108.4224
      3433.0474
 -11854841.29549  -9228879.35048  19999135.8484   19999133.6214
      -208.0944
 -23140446.02149 -18028148.47648  19740286.5514   19740284.2624
      3073.7664
 04  9 10 17 11 59.9960000  0  6G 1G11G16G23G25G20
 -16715343.04249 -13016001.80648  19394896.2234   19394894.7344
      1303.9694
  -4462272.96549  -3471482.74746  21249399.0904   21249397.0474
     -1044.6564
  -1193304.26146   -921507.05943  22872160.0354   22872159.7584
      4326.2814
 -16031783.99049 -12470740.62746  20859316.4734   20859312.4384
      3430.8444
 -11851671.80149  -9226409.62648  19999738.9184   19999736.9614
      -214.0004
 -23186511.84849 -18064043.91647  19731520.5514   19731517.7934
      3068.9224
 04  9 10 17 12 14.9960000  0  6G 1G11G16G23G25G20
 -16734883.55349 -13031228.18948  19391177.6844   19391176.2704
      1301.3754
  -4446572.68749  -3459248.79245  21252386.6294   21252384.4574
     -1048.6254
  -1258196.47146   -972072.36543  22859812.2314   22859811.1994
      4326.1414
 -16083234.03949 -12510831.55846  20849525.8244   20849522.3874
      3429.1884
 -11848421.60649  -9223877.02748  20000357.9884   20000355.4494
      -219.2664
 -23232511.82549 -18099888.06248  19722767.0744   19722764.0664
      3064.5474
 04  9 10 17 12 29.9960000  0  6G 1G11G16G23G25G20
 -16754385.18649 -13046424.27348  19387466.9414   19387465.1764
      1299.0634
  -4430812.56549  -3446968.19745  21255385.8874   21255383.8324
     -1052.4374
  -1323086.98846  -1022636.38942  22847463.3324   22847462.8594
      4326.3134
 -16134659.23549 -12550903.11746  20839740.2774   20839736.0984
      3427.7344
 -11845091.59049  -9221282.22648  20000991.3954   20000989.1994
      -224.3444
 -23278446.46449 -18135681.29148  19714025.8564   19714023.1174
      3060.3284
 04  9 10 17 12 44.9960000  0  6G 1G11G16G23G25G20
 -16773850.36449 -13061591.94548  19383762.5354   19383760.9414
      1296.5784
  -4414995.43749  -3434643.17345  21258395.5904   21258393.9964
     -1056.2664
  -1387977.77846  -1073200.59242  22835115.2384   22835114.3404
      4326.1094
 -16186061.85249 -12590957.07146  20829958.5124   20829954.6094
      3426.1724
 -11841684.43949  -9218627.31648  20001639.2314   20001637.4574
      -229.6414
 -23324317.90949 -18171425.25948  19705296.6914   19705294.4694
      3056.0784
 04  9 10 17 12 59.9960000  0  6G 1G11G16G23G25G20
 -16793274.43249 -13076727.58448  19380066.4814   19380064.5124
      1293.4224
  -4399116.77649  -3422270.21945  21261417.2624   21261414.6844
     -1060.7664
  -1452863.68546  -1123760.98442  22822766.4964   22822767.0204
      4325.3914
 -16237437.17949 -12630989.78546  20820182.3484   20820177.7544
      3423.9534
 -11838195.67349  -9215908.81148  20002303.2774   20002301.1294
      -235.5164
 -23370121.10449 -18207116.06648  19696580.5124   19696578.0234
      3051.1564
 04  9 10 17 13 14.9960000  0  6G 1G11G16G23G25G20
 -16812657.32949 -13091831.14548  19376377.9734   19376376.1414
      1290.9694
  -4383176.76549  -3409849.45945  21264450.7624   21264448.8054
     -1064.4694
  -1517744.14946  -1174317.16542  22810421.1134   22810420.9574
      4325.3594
 -16288785.05949 -12671001.10846  20810411.1134   20810406.3754
      3422.4534
 -11834625.39849  -9213126.80048  20002982.7774   20002980.4534
      -240.5164
 -23415855.74549 -18242753.44148  19687877.5514   19687875.1484
      3046.8754
 04  9 10 17 13 29.9960000  0  6G 1G11G16G23G25G20
 -16831996.48449 -13106900.63148  19372697.7154   19372695.8134
      1287.8284
  -4367173.01249  -3397379.03845  21267496.3954   21267494.3984
     -1069.0314
  -1582616.21746  -1224866.78642  22798076.0354   22798076.1644
      4324.4844
 -16340102.70349 -12710988.87346  20800645.3244   20800641.6064
      3420.2034
 -11830971.05049  -9210279.27148  20003678.2074   20003676.3014
      -246.3754
 -23461518.93949 -18278335.15348  19679188.2704   19679185.8484
      3041.9224
 04  9 10 17 13 44.9960000  0  6G 1G11G16G23G25G20
 -16851292.16149 -13121936.22348  19369026.1294   19369024.1524
      1285.0944
  -4351106.10749  -3384859.39045  21270553.1604   21270551.4304
     -1072.9694
  -1647479.68945  -1275409.71542  22785733.5514   22785732.8164
      4324.1884
 -16391390.45749 -12750953.33946  20790885.6684   20790881.2584
      3418.3594
 -11827233.24949  -9207366.72048  20004389.7234   20004387.4924
      -251.7664
 -23507110.65049 -18313861.16448  19670512.6454   19670509.8484
      3037.2344
